     2              OBSERVATION DATA    GPS                 RINEX VERSION / TYPE
ASRINEXO V2.9.7 UX USGS/MENLO_PARK 07-MAR-00 16:11          PGM / RUN BY / DATE
                                                            COMMENT
BIT 2 OF LLI (+4) FLAGS DATA COLLECTED UNDER "AS" CONDITION COMMENT
BIT 2 OF LLI (+4) FLAGS DATA COLLECTED UNDER "AS" CONDITION COMMENT
BIT 2 OF LLI (+4) FLAGS DATA COLLECTED UNDER "AS" CONDITION COMMENT
BIT 2 OF LLI (+4) FLAGS DATA COLLECTED UNDER "AS" CONDITION COMMENT
BIT 2 OF LLI (+4) FLAGS DATA COLLECTED UNDER "AS" CONDITION COMMENT
BIT 2 OF LLI (+4) FLAGS DATA COLLECTED UNDER "AS" CONDITION COMMENT
BIT 2 OF LLI (+4) FLAGS DATA COLLECTED UNDER "AS" CONDITION COMMENT
Original Marker Name: brin Brink_2_1967_USC&GS              COMMENT
Campaign Name: Cajon Monit                                  COMMENT
4-Character Station Name: BRIN                              COMMENT
6-Character Antenna Code: DMRCHT                            COMMENT
Vertical Measurement Point: BCR                             COMMENT
Vertical Offset to Rinex Ref. Point: 0.0348                 COMMENT
Radial Measurement Point: ECF                               COMMENT
Radial Offset to Rinex Ref. Point: 0.1897                   COMMENT
Antenna Height from Field Measurement: 1.3550 m             COMMENT
Additional Antenna Identification Info.:                    COMMENT
Turborogue and Ashtech Choke Ring                           COMMENT
Original XYZ: -2414404.2727 -4710254.2861 3548105.8138      COMMENT
New XYZ position is based on association with SCEC monument COMMENT
E1D0R7W7+0011. Position of that monument is believed to be  COMMENT
valid to within 1 m horizontally; vertical accuracy         COMMENT
should be no worse than 3-times this value.                 COMMENT
                                                            COMMENT
Revised Rinex header created by UCSD GPS archive for        COMMENT
GSAC on 08-Jul-2000 (2000:190) 01:40:25 GMT                 COMMENT
For assistance contact dagnew@ucsd.edu                      COMMENT
or anderson@python.ucsd.edu                                 COMMENT
                                                            COMMENT
BRINK 2 1967                                                MARKER NAME
CHS US GEOLOGICAL SURVEY                                    OBSERVER / AGENCY
O4579 ASHTECH Z-XII3 CC00                                   REC # / TYPE / VERS
CR14329 DORNE-MARGOL. TYPE T                                ANT # / TYPE
 -2414401.0820 -4710205.5048  3548085.7428                  APPROX POSITION XYZ
        1.3069        0.0000        0.0000                  ANTENNA: DELTA H/E/N
     1     1     0                                          WAVELENGTH FACT L1/2
     5    C1    L1    L2    P1    P2                        # / TYPES OF OBSERV
    30                                                      INTERVAL
  2000     2    29    16    14   30.000000                  TIME OF FIRST OBS
  2000     2    29    23    29   30.000000                  TIME OF LAST OBS
                                                            END OF HEADER
 00  2 29 16 14 30.0000000  0  9 18 02 27 19 31 07 08 10 13
  22219315.246      603388.461 8    442231.86846  22219315.558    22219325.1394
  22135322.180      132962.674 9     95187.46247  22135321.476    22135329.9454
  20772118.396      167664.987 9    125259.18247  20772117.992    20772124.8014
  20880831.571      327689.342 9    242741.34847  20880831.531    20880839.1114
  22519501.301      486749.558 8    355412.84146  22519501.154    22519510.5294
  24556463.792      -70778.17145                  24556459.097    24556473.4574
  20655745.916      140532.696 9    102599.43947  20655745.305    20655752.3814
  24270768.531      343924.244 7    248659.86045  24270768.367    24270777.7444
  20938589.985        9609.48846                  20938590.695    20938596.2494
 00  2 29 16 15  0.0000000  0  9 18 02 27 19 31 07 08 10 13
  22084530.486     -104912.338 8   -109691.03046  22084530.448    22084540.0314
  21974223.206     -713618.081 9   -564485.87147  21974222.542    21974230.9984
  20613669.719     -664988.165 9   -523561.50247  20613669.394    20613676.2164
  20731150.711     -458889.348 9   -370177.19447  20731150.643    20731158.2054
  22378311.553     -255207.503 8   -222735.66746  22378311.447    22378320.9454
  24382995.378    -1007131.68617   -781098.39145  24382990.997    24383004.8774
  20495158.907     -703357.451 9   -554977.33247  20495158.387    20495165.4404
  24122824.927     -433518.000 7   -357139.45545  24122824.985    24122835.5464
  20782482.475     -602659.943 9   -629624.28447  20782483.146    20782488.5524
 00  2 29 16 15 30.0000000  0  9 18 02 27 19 31 07 08 10 13
  22103157.883       -7026.391 8    -33416.47746  22103157.652    22103167.2124
  21966514.031     -754130.691 9   -596054.15447  21966513.289    21966521.7224
  20608613.688     -691557.868 9   -544265.21647  20608613.394    20608620.1954
  20734871.670     -439336.763 9   -354941.49647  20734871.447    20734878.9724
  22390566.492     -190808.962 8   -172555.12046  22390566.193    22390575.6234
  24362878.151    -1112837.008 7   -863466.22345  24362877.320    24362890.3964
  20487961.313     -741181.024 9   -584450.27747  20487960.820    20487967.8944
  24128312.471     -404682.079 7   -334670.06845  24128312.237    24128322.7034
  20779829.701     -616601.081 9   -640487.55447  20779830.173    20779835.6954
 00  2 29 16 16  0.0000000  0  9 18 02 27 19 31 07 08 10 13
  22121845.630       91178.212 8     43106.38846  22121845.474    22121855.0474
  21958846.051     -794425.883 9   -627453.01847  21958845.437    21958853.8154
  20603600.227     -717903.831 9   -564794.58047  20603599.925    20603606.7704
  20738642.654     -419520.739 9   -339500.51947  20738642.397    20738649.9444
  22402920.231     -125890.777 8   -121969.67446  22402919.841    22402929.4354
  24342767.339    -1218519.038 7   -945815.87845  24342766.693    24342780.0404
  20480806.405     -778780.610 9   -613748.69447  20480805.893    20480812.9794
  24133878.570     -375433.737 7   -311879.32645  24133878.114    24133888.5014
  20777284.492     -629977.110 9   -650910.47848  20777284.825    20777290.3474
 00  2 29 16 16 30.0000000  0  9 18 02 27 19 31 07 08 10 13
  22140588.430      189671.785 8    119854.41946  22140588.309    22140597.8434
  21951221.180     -834495.011 9   -658675.72247  21951220.576    21951228.9424
  20598630.742     -744018.796 9   -585143.94947  20598630.465    20598637.3694
  20742466.294     -399427.205 9   -323843.30347  20742466.080    20742473.6874
  22415372.883      -60452.431 8    -70978.90946  22415372.510    22415382.0144
  24322663.759    -1324164.075 7  -1028136.71845  24322663.131    24322676.5264
  20473694.345     -816154.938 9   -642871.58947  20473693.857    20473700.9734
  24139522.888     -345773.795 7   -288767.84345  24139522.236    24139532.8584
  20774850.036     -642770.289 9   -660879.23648  20774850.380    20774855.8884
 00  2 29 16 17  0.0000000  0  9 18 02 27 19 31 07 08 10 13
  22159379.014      288415.167 8    196797.08946  22159378.721    22159388.2454
  21943639.178     -874339.299 9   -689723.22547  21943638.515    21943646.8764
  20593707.788     -769889.171 9   -605302.72447  20593707.513    20593714.4644
  20746343.611     -379052.168 9   -307966.74347  20746343.395    20746351.0534
  22427925.443        5510.707 8    -19579.20646  22427925.020    22427934.5974
  24302570.408    -1429755.674 7  -1110415.91645  24302569.681    24302583.1394
  20466626.791     -853295.507 9   -671812.34047  20466626.299    20466633.3964
  24145248.421     -315687.550 7   -265324.17145  24145247.632    24145258.3254
  20772526.366     -654981.725 9   -670394.68548  20772526.649    20772532.1734
 00  2 29 16 17 30.0000000  0  9 18 02 27 19 31 07 08 10 13
  22178211.862      387381.613 8    273913.57446  22178211.593    22178221.1334
  21936099.538     -913960.625 9   -720597.00047  21936098.885    21936107.2474
  20588830.827     -795518.030 9   -625273.30447  20588830.579    20588837.5474
  20750274.484     -358396.084 9   -291871.17747  20750274.254    20750281.8684
  22440575.806       71988.452 8     32221.47146  22440575.422    22440585.1704
  24282487.871    -1535288.363 7  -1192649.20945  24282487.353    24282500.9774
  20459602.818     -890206.825 9   -700574.45147  20459602.342    20459609.4464
  24151057.452     -285161.567 7   -241537.85545  24151056.621    24151067.3144
  20770310.170     -666628.081 9   -679469.81648  20770310.493    20770315.9934
 00  2 29 16 18  0.0000000  0  9 18 02 27 19 31 07 08 10 13
  22197088.079      486575.655 8    351207.41746  22197087.805    22197097.3504
  21928602.963     -953355.213 9   -751294.09847  21928602.364    21928610.7294
  20584001.398     -820897.150 9   -645049.28447  20584001.142    20584008.1474
  20754260.965     -337447.686 9   -275547.83547  20754260.704    20754268.3464
  22453320.060      138958.968 8     84406.13346  22453319.650    22453329.2754
  24262413.817    -1640778.129 7  -1274849.05545  24262413.391    24262427.0364
  20452619.513     -926904.553 9   -729170.13347  20452619.056    20452626.1644
  24156948.461     -254204.443 8   -217415.59445  24156947.643    24156958.4674
  20768197.390     -677731.326 9   -688121.74948  20768197.666    20768203.1714
 00  2 29 16 18 30.0000000  0  9 18 02 27 19 31 07 08 10 13
  22216010.662      586013.505 8    428691.25646  22216010.415    22216019.9924
  21921151.864     -992511.195 9   -781805.26247  21921151.273    21921159.6514
  20579220.404     -846021.729 9   -664626.92647  20579220.172    20579227.1884
  20758306.772     -316187.170 9   -258981.27847  20758306.523    20758314.2154
  22466154.631      206404.136 8    136960.66646  22466154.145    22466163.8224
  24242348.933    -1746220.752 7  -1357012.13545  24242348.162    24242361.9824
  20445675.243     -963397.378 9   -757606.14047  20445674.764    20445681.8904
  24162923.636     -222805.258 7   -192948.85945  24162922.897    24162933.7124
  20766186.748     -688297.819 9   -696355.42748  20766186.978    20766192.4934
 00  2 29 16 19  0.0000000  0  9 18 02 27 19 31 07 08 10 13
  22234985.217      685724.657 8    506388.02546  22234984.950    22234994.6244
  21913747.684    -1031420.514 9   -812124.23547  21913747.108    21913755.4824
  20574486.768     -870897.570 9   -684010.74747  20574486.489    20574493.5044
  20762411.634     -294616.529 9   -242173.06247  20762411.402    20762419.1074
  22479078.458      274319.079 8    189881.24746  22479078.058    22479087.7294
  24222293.010    -1851615.306 7  -1439137.75445  24222292.316    24222306.1754
  20438770.982     -999679.523 9   -785877.98147  20438770.514    20438777.6464
  24168982.944     -190964.394 7   -168137.96745  24168982.142    24168993.0074
  20764276.422     -698337.039 9   -704178.24948  20764276.660    20764282.1604
 00  2 29 16 19 30.0000000  0  9 18 02 27 19 31 07 08 10 13
  22254016.320      785732.951 8    584316.34946  22254016.085    22254025.8134
  21906389.760    -1070086.887 9   -842253.88947  21906389.162    21906397.5764
  20569797.668     -895538.948 9   -703211.87147  20569797.435    20569804.4844
  20766573.021     -272748.689 9   -225133.26747  20766572.771    20766580.5244
  22492090.787      342697.816 8    243163.21446  22492090.310    22492100.0174
  24202246.110    -1956962.379 7  -1521226.34745  24202245.514    24202259.3894
  20431906.764    -1035751.359 9   -813985.95147  20431906.326    20431913.4924
  24175121.791     -158705.468 7   -143001.30145  24175120.952    24175131.8184
  20762469.533     -707833.234 9   -711577.92648  20762469.661    20762475.1824
 00  2 29 16 20  0.0000000  0  9 18 02 27 19 31 07 08 10 13
  22273107.362      886056.294 8    662490.15346  22273107.178    22273116.9664
  21899076.083    -1108520.559 9   -872202.22347  21899075.505    21899083.9474
  20565153.795     -919942.943 9   -722228.03047  20565153.560    20565160.6344
  20770788.956     -250594.177 9   -207870.09347  20770788.732    20770796.4794
  22505191.725      411543.196 8    296808.80646  22505191.330    22505201.0404
  24182209.466    -2062253.667 7  -1603271.46845  24182209.185    24182223.1374
  20425083.216    -1071609.725 9   -841927.58347  20425082.749    20425089.9534
  24181335.315     -126054.038 7   -117558.81245  24181334.421    24181345.3394
  20760768.053     -716774.380 9   -718545.11348  20760768.259    20760773.8124
 00  2 29 16 20 30.0000000  0  9 18 02 27 19 31 07 08 10 13
  22292258.900      986697.821 8    740911.90146  22292258.820    22292268.6204
  21891807.010    -1146719.865 9   -901967.91847  21891806.438    21891814.9004
  20560555.431     -944107.890 9   -741057.90447  20560555.174    20560562.2704
  20775058.954     -228155.833 9   -190385.75047  20775058.736    20775066.4684
  22518386.304      480880.134 8    350837.42246  22518385.975    22518395.6544
  24162188.589    -2167464.342 7  -1685253.73545  24162188.285    24162202.2004
  20418304.832    -1107230.812 9   -869684.31447  20418304.362    20418311.5754
  24187623.205      -93011.507 8    -91811.53545  24187622.397    24187633.2264
  20759176.851     -725136.664 9   -725061.22648  20759177.041    20759182.5844
 00  2 29 16 21  0.0000000  0  9 18 02 27 19 31 07 08 10 13
  22311469.786     1087650.521 8    819576.13246  22311469.760    22311479.5274
  21884581.845    -1184688.535 9   -931553.91747  21884581.309    21884589.7424
  20556000.257     -968045.877 9   -759710.92547  20556000.007    20556007.0564
  20779380.340     -205447.628 9   -172691.12147  20779380.094    20779387.7644
  22531675.180      550712.963 8    405252.47246  22531674.836    22531684.6394
  24142180.676    -2272606.996 7  -1767182.99245  24142180.286    24142194.1994
  20411573.736    -1142603.371 9   -897247.38747  20411573.282    20411580.4704
  24193982.592      -59595.594 7    -65773.35145  24193981.595    24193992.2654
  20757697.825     -732908.968 9   -731117.62848  20757698.094    20757703.6084
 00  2 29 16 21 30.0000000  0  9 18 02 27 19 31 07 08 10 13
  22330738.180     1188903.950 8    898474.67246  22330737.971    22330747.6674
  21877402.245    -1222417.806 9   -960953.36347  21877401.730    21877410.1474
  20551490.396     -991745.689 9   -778178.37047  20551490.149    20551497.1824
  20783752.762     -182470.717 9   -154787.11247  20783752.537    20783760.2064
  22545060.412      621051.630 8    460061.64546  22545059.950    22545069.6834
  24122186.130    -2377677.573 7  -1849056.04545  24122186.008    24122200.0084
  20404891.030    -1177721.766 9   -924612.41147  20404890.558    20404897.6914
  24200412.070      -25807.874 7    -39445.42445  24200411.323    24200422.0004
  20756333.437     -740079.533 9   -736705.14548  20756333.629    20756339.1414
 00  2 29 16 22  0.0000000  0  9 18 02 27 19 31 07 08 10 13
  22350060.165     1290440.428 8    977593.78746  22350059.945    22350069.6804
  21870270.492    -1259895.661 9   -990156.90447  21870269.947    21870278.3854
  20547027.401    -1015199.218 9   -796453.89147  20547027.149    20547034.1554
  20788179.583     -159207.754 9   -136660.20947  20788179.363    20788187.0824
  22558541.666      691896.015 8    515264.91946  22558541.287    22558551.1894
  24102205.729    -2482674.661 7  -1930871.83245  24102205.541    24102219.8474
  20398255.125    -1212593.859 9   -951785.50047  20398254.682    20398261.7904
  24206913.997        8359.768 7    -12821.44045  24206913.303    24206924.0894
  20755080.329     -746664.858 9   -741836.62748  20755080.557    20755086.0794
 00  2 29 16 22 30.0000000  0  9 18 02 27 19 31 07 08 10 13
  22369433.023     1392244.610 8   1056921.49346  22369432.823    22369442.6184
  21863186.268    -1297124.072 9  -1019166.07347  21863185.642    21863194.0584
  20542610.643    -1038409.980 9   -814540.25147  20542610.387    20542617.3624
  20792661.821     -135653.833 9   -118306.58147  20792661.610    20792669.3404
  22572116.726      763232.446 8    570851.57646  22572116.309    22572126.1674
  24082237.662    -2587606.793 7  -2012637.02245  24082237.574    24082251.8384
  20391663.952    -1247231.090 9   -978775.59047  20391663.515    20391670.6174
  24213490.635       42919.235 8     14107.85545  24213489.740    24213500.5994
  20753937.731     -752669.828 9   -746515.88348  20753937.928    20753943.4774
 00  2 29 16 23  0.0000000  0  9 18 02 27 19 31 07 08 10 13
  22388855.519     1494308.529 8   1136451.60346  22388855.198    22388865.0014
  21856150.653    -1334096.236 9  -1047975.56947  21856150.082    21856158.4834
  20538241.886    -1061368.088 9   -832429.73947  20538241.641    20538248.6454
  20797200.959     -111800.753 9    -99719.84347  20797200.777    20797208.5924
  22585781.009      835038.440 8    626804.14546  22585780.599    22585790.5714
  24062279.878    -2692484.898 7  -2094360.08245  24062279.781    24062294.0964
  20385117.250    -1281634.986 9  -1005583.85047  20385116.757    20385123.8544
  24220146.415       77894.963 7     41361.50545  24220145.642    24220156.5044
  20752906.000     -758091.671 9   -750740.76248  20752906.252    20752911.8134
 00  2 29 16 23 30.0000000  0  9 18 02 27 19 31 07 08 10 13
  22408325.005     1596620.200 8   1216174.76046  22408324.709    22408334.5954
  21849162.246    -1370820.952 9  -1076592.26547  21849161.640    21849170.0074
  20533923.810    -1084060.175 9   -850111.92947  20533923.550    20533930.5754
  20801799.778      -87633.811 9    -80888.54247  20801799.633    20801807.5304
  22599533.850      907308.561 8    683118.35846  22599533.358    22599543.2994
  24042335.423    -2797294.680 7  -2176029.90545  24042334.998    24042349.3064
  20378615.178    -1315803.951 9  -1032209.06147  20378614.709    20378621.7994
  24226883.792      113299.382 7     68949.21545  24226882.968    24226893.8944
  20751985.092     -762931.669 9   -754512.25748  20751985.309    20751990.8724
 00  2 29 16 24  0.0000000  0  9 18 02 27 19 31 07 08 10 13
  22427842.392     1699184.120 8   1296094.48146  22427842.087    22427852.1604
  21842217.915    -1407313.791 9  -1105028.24847  21842217.347    21842225.6754
  20529655.929    -1106488.283 9   -867588.41947  20529655.685    20529662.7294
  20806460.912      -63139.846 9    -61802.41647  20806460.777    20806468.7234
  22613372.975      980033.314 8    739786.85246  22613372.568    22613382.5254
  24022404.666    -2902031.605 7  -2257642.97645  24022404.136    24022418.3374
  20372158.463    -1349734.461 9  -1058648.45147  20372158.008    20372165.0764
  24233705.078      149143.033 7     96879.15545  24233703.976    24233714.8494
  20751175.603     -767185.500 9   -757826.99648  20751175.880    20751181.4624
 00  2 29 16 24 30.0000000  0  9 18 02 27 19 31 07 08 10 13
  22447407.517     1801999.512 8   1376210.13746  22447407.303    22447417.5194
  21835317.300    -1443577.076 9  -1133285.35647  21835316.745    21835325.0394
  20525438.678    -1128650.427 9   -884857.67747  20525438.435    20525445.5144
  20811183.779      -38321.758 9    -42463.73447  20811183.617    20811191.5084
  22627297.375     1053206.140 8    796804.47846  22627297.027    22627307.0184
  24002487.626    -3006696.108 7  -2339199.62145  24002487.025    24002501.3904
  20365750.405    -1383409.599 9  -1084888.86547  20365749.915    20365757.0004
  24240609.965      185429.073 7    125153.82645  24240609.095    24240620.0514
  20750482.516     -770828.156 9   -760665.49948  20750482.770    20750488.3654
 00  2 29 16 25  0.0000000  0  9 18 02 27 19 31 07 08 10 13
  22467021.488     1905071.136 8   1456525.46446  22467021.304    22467031.6464
  21828461.687    -1479603.840 9  -1161358.18347  21828461.141    21828469.4224
  20521273.894    -1150536.712 9   -901911.96647  20521273.668    20521280.7314
  20815969.899      -13171.520 9    -22866.22147  20815969.714    20815977.5624
  22641310.539     1126844.888 8    854185.17446  22641310.127    22641320.1744
  23982585.969    -3111278.299 7  -2420692.14145  23982585.561    23982600.0914
  20359393.489    -1416815.758 9  -1110919.67447  20359392.995    20359400.1214
  24247597.240      222148.958 7    153766.56745  24247596.798    24247607.7144
  20749905.285     -773861.834 9   -763029.46648  20749905.569    20749911.1734
 00  2 29 16 25 30.0000000  0  9 18 02 27 19 31 07 08 10 13
  22486685.031     2008403.332 8   1537043.83546  22486684.911    22486695.2904
  21821649.265    -1515403.700 9  -1189254.17747  21821648.677    21821656.9724
  20517160.168    -1172155.050 9   -918757.46547  20517159.906    20517166.9894
  20820818.236       12305.942 9     -3013.73547  20820818.007    20820825.8714
  22655414.713     1200961.488 8    911938.20746  22655414.303    22655424.3234
  23962703.307    -3215762.842 7  -2502108.58445  23962702.846    23962717.3214
  20353087.220    -1449955.410 9  -1136742.82047  20353086.761    20353093.8974
  24254663.036      259279.259 7    182699.11645  24254662.566    24254673.4924
  20749440.806     -776303.206 9   -764931.90148  20749441.061    20749446.6984
 00  2 29 16 26  0.0000000  0  9 18 02 27 19 31 07 08 10 13
  22506398.321     2111995.973 8   1617765.15846  22506398.145    22506408.5644
  21814879.503    -1550979.356 9  -1216975.46747  21814878.903    21814887.2104
  20513094.888    -1193518.500 9   -935404.35047  20513094.630    20513101.7274
  20825725.892       38095.598 9     17082.01747  20825725.710    20825733.6104
  22669608.409     1275548.930 8    970058.13746  22669608.027    22669618.0034
  23942838.807    -3320152.117 7  -2583450.80645  23942838.198    23942852.6554
  20346827.970    -1482848.633 9  -1162373.94147  20346827.484    20346834.5654
  24261804.443      296806.138 7    211940.67145  24261803.852    24261814.8064
  20749086.644     -778164.978 9   -766382.69148  20749086.846    20749092.5234
 00  2 29 16 26 30.0000000  0  9 18 02 27 19 31 07 08 10 13
  22526158.740     2215836.588 8   1698679.69346  22526158.524    22526168.9704
  21808152.575    -1586329.576 9  -1244521.08647  21808152.011    21808160.2844
  20509077.708    -1214629.370 9   -951854.41947  20509077.411    20509084.5134
  20830691.094       64187.734 9     37413.47047  20830690.923    20830698.8134
  22683891.519     1350606.645 8   1028544.51446  22683891.099    22683901.1984
  23922992.311    -3424445.382 7  -2664718.23745  23922991.797    23923006.2104
  20340613.460    -1515506.254 9  -1187821.47447  20340612.987    20340620.0324
  24269018.332      334713.814 7    241478.94845  24269017.459    24269028.6354
  20748838.860     -779467.581 9   -767397.76948  20748839.077    20748844.7144
 00  2 29 16 27  0.0000000  0  9 18 02 27 19 31 07 08 10 13
  22545966.694     2319926.910 8   1779788.80146  22545966.511    22545976.8824
  21801464.642    -1621475.338 9  -1271907.40947  21801464.050    21801472.2984
  20505107.106    -1235495.164 9   -968113.52047  20505106.850    20505113.9464
  20835711.769       90571.152 9     57971.89047  20835711.587    20835719.4794
  22698262.869     1426128.070 8   1087392.23446  22698262.400    22698272.5864
  23903164.914    -3528639.737 7  -2745908.59645  23903164.214    23903178.5394
  20334440.022    -1547948.268 9  -1213101.00247  20334439.540    20334446.5744
  24276302.274      372989.836 7    271304.24445  24276301.266    24276312.4454
  20748691.179     -780244.215 9   -768002.99348  20748691.350    20748696.9674
 00  2 29 16 27 30.0000000  0  9 18 02 27 19 31 07 08 10 13
  22565820.061     2424255.075 8   1861083.25046  22565819.728    22565830.0774
  21794813.208    -1656429.079 9  -1299144.08047  21794812.565    21794820.8284
  20501180.862    -1256128.009 9   -984191.09747  20501180.598    20501187.6764
  20840785.914      117235.484 9     78749.20547  20840785.734    20840793.6104
  22712716.903     1502083.852 8   1146578.39346  22712716.493    22712726.6304
  23883354.843    -3632743.011 8  -2827027.99045  23883353.998    23883368.2644
  20328305.368    -1580186.265 9  -1238221.56247  20328304.917    20328311.9384
  24283653.286      411619.404 7    301405.05145  24283652.367    24283663.5144
  20748643.419     -780495.517 9   -768198.86648  20748643.623    20748649.2284
 00  2 29 16 28  0.0000000  0  9 18 02 27 19 31 07 08 10 13
  22585717.409     2528815.368 8   1942558.57346  22585717.103    22585727.4654
  21788199.698    -1691183.318 9  -1326225.30447  21788199.074    21788207.3454
  20497301.922    -1276512.295 9  -1000074.98848  20497301.653    20497308.7434
  20845912.563      144175.660 9     99741.46247  20845912.365    20845920.2334
  22727252.524     1578467.555 8   1206098.01046  22727252.110    22727262.0464
  23863561.921    -3736755.875 8  -2908076.95045  23863561.030    23863575.3224
  20322210.614    -1612214.950 9  -1263179.00947  20322210.147    20322217.1684
  24291070.618      450596.410 7    331776.56045  24291069.711    24291080.9564
  20748697.413     -780212.157 9   -767978.11848  20748697.635    20748703.2174
 00  2 29 16 28 30.0000000  0  9 18 02 27 19 31 07 08 10 13
  22605656.803     2633596.676 8   2024206.10946  22605656.539    22605666.9484
  21781625.429    -1725731.329 9  -1353145.82747  21781624.835    21781633.1074
  20493472.929    -1296634.331 9  -1015754.53747  20493472.634    20493479.7354
  20851092.016      171393.089 9    120949.76147  20851091.809    20851099.6434
  22741869.595     1655280.103 8   1265951.78646  22741869.171    22741879.2534
  23843785.963    -3840680.112 8  -2989056.83945  23843784.951    23843799.2564
  20316159.304    -1644015.079 9  -1287958.35747  20316158.816    20316165.8294
  24298554.401      489922.960 7    362420.46045  24298553.401    24298564.8364
  20748854.020     -779389.561 9   -767337.18348  20748854.247    20748859.8004
 00  2 29 16 29  0.0000000  0  9 18 02 27 19 31 07 08 10 13
  22625638.664     2738601.274 8   2106027.63246  22625638.436    22625648.9624
  21775092.963    -1760060.073 9  -1379895.48947  21775092.317    21775100.5764
  20489696.212    -1316481.510 9  -1031219.91147  20489695.909    20489702.9694
  20856324.122      198887.351 9    142373.77347  20856323.927    20856331.7724
  22756566.976     1732514.856 8   1326134.54246  22756566.586    22756576.6654
  23824026.787    -3944515.569 8  -3069967.57245  23824025.770    23824039.9604
  20310154.250    -1675572.153 9  -1312548.31547  20310153.763    20310160.7724
  24306105.320      529603.005 7    393339.82545  24306104.464    24306115.8844
  20749114.797     -778019.522 9   -766269.66848  20749115.026    20749120.5804
 00  2 29 16 29 30.0000000  0  9 18 02 27 19 31 07 08 10 13
  22645660.178     2843814.473 8   2188011.71246  22645659.975    22645670.6634
  21768606.114    -1794149.050 9  -1406458.32347  21768605.458    21768613.7004
  20485974.472    -1336039.471 9  -1046459.91447  20485974.165    20485981.2634
  20861611.396      226671.592 9    164023.75247  20861611.167    20861619.0364
  22771345.051     1810174.154 8   1386648.10946  22771344.636    22771354.8564
  23804284.933    -4048258.621 8  -3150806.31145  23804284.147    23804298.1874
  20304199.688    -1706863.942 9  -1336931.55947  20304199.185    20304206.1954
  24313723.842      569636.900 7    424534.90745  24313722.690    24313734.2894
  20749483.248     -776083.853 9   -764761.40148  20749483.441    20749488.9984
 00  2 29 16 30  0.0000000  0  9 18 02 27 19 31 07 08 10 13
  22665721.503     2949236.030 8   2270158.14946  22665721.257    22665731.9184
  21762167.335    -1827984.883 9  -1432823.90747  21762166.715    21762174.9614
  20482310.151    -1355295.874 9  -1061464.93847  20482309.852    20482316.9474
  20866956.115      254757.917 9    185909.11147  20866955.907    20866963.8464
  22786206.444     1888269.586 8   1447501.52146  22786205.927    22786216.0824
  23784561.947    -4151903.748 8  -3231568.73445  23784561.191    23784575.1104
  20298296.829    -1737883.660 9  -1361102.80747  20298296.352    20298303.3794
  24321412.123      610038.936 7    456016.85345  24321411.117    24321422.5974
  20749960.598     -773576.302 9   -762807.51048  20749960.691    20749966.2664
 00  2 29 16 30 30.0000000  0  9 18 02 27 19 31 07 08 10 13
  22685823.716     3054872.237 8   2352471.84846  22685823.371    22685834.0694
  21755777.375    -1861564.602 9  -1458989.91447  21755776.719    21755784.9844
  20478702.614    -1374253.788 9  -1076237.37647  20478702.319    20478709.4364
  20872360.723      283159.021 9    208039.75447  20872360.515    20872368.4914
  22801149.431     1966795.298 8   1508690.20846  22801148.913    22801159.2484
  23764855.892    -4255459.855 8  -3312261.78645  23764855.233    23764869.1744
  20292446.182    -1768629.515 9  -1385060.65147  20292445.692    20292452.6694
  24329172.828      650821.000 7    487794.95845  24329171.875    24329183.2534
  20750549.205     -770483.412 9   -760397.51748  20750549.344    20750554.9034
 00  2 29 16 31  0.0000000  0  9 18 02 27 19 31 07 08 10 13
  22705971.167     3160746.496 8   2434971.02446  22705970.733    22705981.5864
  21749434.662    -1894895.772 9  -1484962.25847  21749434.030    21749442.2994
  20475151.651    -1392914.527 9  -1090778.25647  20475151.377    20475158.4814
  20877828.160      311890.169 9    230427.58147  20877827.940    20877835.9274
  22816174.878     2045753.452 8   1570215.86046  22816174.311    22816184.6424
  23745168.916    -4358915.298 7  -3392876.39645  23745168.352    23745182.1794
  20286648.872    -1799095.153 9  -1408800.13747  20286648.336    20286655.2574
  24337004.820      691978.505 7    519865.61045  24337003.963    24337015.3524
  20751253.847     -766780.595 9   -757512.24848  20751254.006    20751259.5804
 00  2 29 16 31 30.0000000  0  9 18 02 27 19 31 07 08 10 13
  22726165.903     3266869.076 8   2517663.70146  22726165.392    22726176.3484
  21743136.692    -1927991.822 9  -1510751.37447  21743136.090    21743144.3064
  20471655.929    -1411285.086 9  -1105093.02347  20471655.628    20471662.6994
  20883360.730      340963.625 9    253082.14847  20883360.510    20883368.5064
  22831284.392     2125152.640 8   1632085.18046  22831283.770    22831294.0094
  23725505.129    -4462248.578 8  -3473395.83945  23725504.785    23725518.4334
  20280906.125    -1829273.630 9  -1432315.85647  20280905.581    20280912.5304
  24344910.840      733524.833 7    552239.23045  24344909.960    24344921.5154
  20752079.918     -762439.477 9   -754129.60348  20752080.124    20752085.7444
 00  2 29 16 32  0.0000000  0  9 18 02 27 19 31 07 08 10 13
  22746412.663     3373265.356 8   2600569.64646  22746412.146    22746423.1614
  21736882.705    -1960857.025 9  -1536360.62947  21736882.070    21736890.2774
  20468213.356    -1429376.052 9  -1119189.92647  20468213.081    20468220.1604
  20888956.546      370369.506 9    275995.74647  20888956.346    20888964.3694
  22846477.097     2204989.933 8   1694295.87846  22846476.513    22846486.7734
  23705867.143    -4565446.749 8  -3553809.96245  23705866.770    23705880.3314
  20275216.420    -1859173.362 9  -1455614.38347  20275215.890    20275222.8584
  24352892.666      775468.176 7    584922.20945  24352891.594    24352903.3274
  20753029.630     -757449.044 9   -750241.00548  20753029.876    20753035.4654
 00  2 29 16 32 30.0000000  0  9 18 02 27 19 31 07 08 10 13
  22766711.075     3479933.973 8   2683687.79646  22766710.724    22766721.8094
  21730668.727    -1993511.994 9  -1561806.06247  21730668.061    21730676.2834
  20464821.849    -1447198.930 9  -1133077.92847  20464821.559    20464828.6124
  20894614.115      400099.959 9    299162.25647  20894613.920    20894622.0024
  22861753.011     2285265.149 8   1756847.81646  22861752.438    22861762.7574
  23686257.449    -4668497.477 8  -3634109.18845  23686256.856    23686270.4844
  20269579.341    -1888796.727 9  -1478697.55647  20269578.813    20269585.8004
  24360950.833      817812.445 7    617917.60145  24360949.685    24360961.3474
  20754101.173     -751818.344 9   -745853.50248  20754101.414    20754107.0074
 00  2 29 16 33  0.0000000  0  9 18 02 27 19 31 07 08 10 13
  22787055.873     3586846.490 8   2766996.00046  22787055.639    22787066.8164
  21724491.713    -2025972.022 9  -1587099.59347  21724491.108    21724499.3254
  20461478.037    -1464771.008 9  -1146770.50448  20461477.743    20461484.8404
  20900332.516      430150.184 9    322577.93447  20900332.341    20900340.4754
  22877111.515     2365973.612 8   1819737.33546  22877110.936    22877121.1914
  23666678.720    -4771384.948 8  -3714281.19245  23666678.050    23666691.7104
  20263992.071    -1918158.313 9  -1501576.74847  20263991.540    20263998.5314
  24369081.871      860539.613 7    651211.34345  24369080.656    24369092.1344
  20755289.094     -745576.404 9   -740989.70648  20755289.282    20755294.9014
 00  2 29 16 33 30.0000000  0  9 18 02 27 19 31 07 08 10 13
  22807441.418     3693972.424 8   2850470.48646  22807441.157    22807452.4974
  21718352.898    -2058231.617 9  -1612236.93047  21718352.308    21718360.5284
  20458180.664    -1482099.338 9  -1160273.14848  20458180.366    20458187.4154
  20906108.357      460502.111 9    346228.71347  20906108.182    20906116.3534
  22892550.719     2447107.200 8   1882958.12346  22892550.277    22892560.6674
  23647129.292    -4874116.764 8  -3794331.91445  23647128.913    23647142.4434
  20258449.156    -1947286.473 9  -1524274.05347  20258448.598    20258455.6384
  24377284.178      903642.541 7    684797.90945  24377282.988    24377294.5934
  20756585.595     -738763.216 9   -735680.78748  20756585.825    20756591.4734
 00  2 29 16 34  0.0000000  0  9 18 02 27 19 31 07 08 10 13
  22827860.713     3801275.851 8   2934083.27446  22827860.491    22827871.8794
  21712252.389    -2090290.210 9  -1637217.65947  21712251.761    21712259.9794
  20454929.899    -1499182.579 9  -1173584.80847  20454929.567    20454936.6184
  20911938.526      491139.561 9    370101.97047  20911938.376    20911946.5774
  22908069.070     2528656.339 8   1946502.73546  22908068.603    22908079.1094
  23627603.678    -4976725.986 8  -3874287.07245  23627602.921    23627616.4444
  20252946.646    -1976202.392 9  -1546805.97147  20252946.107    20252953.1754
  24385551.664      947087.971 7    718651.37245  24385550.574    24385562.1104
  20757982.903     -731420.439 9   -729959.20048  20757983.167    20757988.8174
 00  2 29 16 34 30.0000000  0  9 18 02 27 19 31 07 08 10 13
  22848305.809     3908715.021 8   3017801.85446  22848305.667    22848317.1174
  21706187.757    -2122160.266 9  -1662051.47647  21706187.139    21706195.3454
  20451726.957    -1516014.139 9  -1186700.35647  20451726.674    20451733.7564
  20917823.552      522064.829 9    394199.50747  20917823.382    20917831.5354
  22923667.177     2610623.627 8   2010373.15846  22923666.676    22923677.1724
  23608096.664    -5079235.560 8  -3954164.59245  23608095.935    23608109.5674
  20247486.012    -2004898.572 9  -1569166.66647  20247485.477    20247492.5414
  24393880.901      990856.340 7    752756.45345  24393879.628    24393891.3494
  20759476.039     -723574.240 9   -723845.33848  20759476.294    20759481.9544
 00  2 29 16 35  0.0000000  0  9 18 02 27 19 31 07 08 10 13
  22868774.096     4016275.175 8   3101614.70946  22868773.927    22868785.4104
  21700161.191    -2153830.320 9  -1686729.46247  21700160.541    21700168.7404
  20448574.051    -1532583.312 9  -1199611.44547  20448573.747    20448580.8154
  20923761.130      553266.294 9    418512.26847  20923760.912    20923769.0764
  22939343.577     2693002.709 8   2074564.46546  22939343.113    22939353.6174
  23588607.518    -5181651.425 8  -4033969.05345  23588606.828    23588620.3814
  20242067.617    -2033372.815 9  -1591354.42147  20242067.058    20242074.1264
  24402266.283     1034921.856 7    787093.09345  24402265.004    24402276.9024
  20761064.962     -715224.722 9   -717339.28348  20761065.214    20761070.8874
 00  2 29 16 35 30.0000000  0  9 18 02 27 19 31 07 08 10 13
  22889267.546     4123967.680 8   3185530.68146  22889267.280    22889278.8124
  21694173.120    -2185298.008 9  -1711249.75647  21694172.487    21694180.6914
  20445474.577    -1548871.549 9  -1212303.61947  20445474.233    20445481.3154
  20929750.948      584742.816 9    443039.36247  20929750.725    20929758.9454
  22955098.514     2775794.794 8   2139077.60046  22955098.056    22955108.5434
  23569133.804    -5283984.880 8  -4113709.30845  23569133.359    23569146.9154
  20236693.769    -2061612.732 9  -1613359.57947  20236693.229    20236700.3084
  24410709.517     1079291.292 7    821666.51745  24410708.288    24410720.2884
  20762752.941     -706354.863 9   -710427.76548  20762753.175    20762758.8324
 00  2 29 16 36  0.0000000  0  9 18 02 27 19 31 07 08 10 13
  22909788.357     4231803.793 8   3269558.55546  22909788.053    22909799.5604
  21688221.810    -2216572.533 9  -1735619.53847  21688221.177    21688229.3854
  20442431.187    -1564865.021 9  -1224766.10448  20442430.850    20442437.9554
  20935795.153      616504.794 9    467788.88847  20935794.901    20935803.1394
  22970930.951     2858994.399 8   2203908.27246  22970930.525    22970941.0974
  23549677.786    -5386227.222 8  -4193378.54145  23549677.257    23549690.7754
  20231370.778    -2089584.900 9  -1635156.10447  20231370.274    20231377.4004
  24419211.148     1123967.748 7    856479.19845  24419210.122    24419221.9874
  20764544.335     -696941.549 9   -703092.77548  20764544.535    20764550.2054
 00  2 29 16 36 30.0000000  0  9 18 02 27 19 31 07 08 10 13
  22930341.643     4339810.269 8   3353719.19846  22930341.305    22930352.6594
  21682308.638    -2247646.772 9  -1759833.24247  21682307.991    21682316.2254
  20439443.075    -1580567.583 9  -1237001.90747  20439442.738    20439449.8914
  20941896.012      648564.892 9    492770.71347  20941895.797    20941904.0604
  22986838.003     2942585.499 8   2269044.02146  22986837.583    22986848.1334
  23530244.291    -5488350.633 8  -4272955.09545  23530243.781    23530257.3424
  20226100.989    -2117277.956 9  -1656735.14047  20226100.482    20226107.6134
  24427774.618     1168968.596 7    891544.65345  24427773.664    24427785.5734
  20766443.348     -686962.300 9   -695316.79748  20766443.580    20766449.2444
 00  2 29 16 37  0.0000000  0  9 18 02 27 19 31 07 08 10 13
  22950935.486     4448031.144 8   3438046.87646  22950935.278    22950946.6694
  21676438.073    -2278496.792 9  -1783872.21347  21676437.395    21676445.6574
  20436511.427    -1595973.766 9  -1249006.76247  20436511.128    20436518.2314
  20948057.045      680940.895 9    517998.69547  20948056.832    20948065.0334
  23002816.465     3026552.109 8   2334472.38346  23002816.060    23002826.5894
  23510835.624    -5590342.942 8  -4352429.47645  23510835.217    23510848.7884
  20220883.462    -2144696.425 9  -1678100.21847  20220882.944    20220890.0894
  24436399.782     1214295.394 7    926864.09845  24436399.122    24436411.1864
  20768455.684     -676388.144 9   -687077.25048  20768455.837    20768461.5174
 00  2 29 16 37 30.0000000  0  9 18 02 27 19 31 07 08 10 13
  22971574.261     4556487.948 8   3522558.39846  22971574.110    22971585.6454
  21670612.233    -2309111.695 9  -1807727.97747  21670611.568    21670619.8454
  20433638.431    -1611071.736 9  -1260771.45548  20433638.127    20433645.2104
  20954283.061      713658.052 9    543492.52147  20954282.812    20954290.9884
  23018867.285     3110897.780 8   2400196.11046  23018866.830    23018877.1024
  23491453.016    -5692199.191 8  -4431797.83245  23491452.555    23491466.0584
  20215721.674    -2171822.419 9  -1699237.38547  20215721.157    20215728.2704
  24445090.878     1259965.611 7    962451.12545  24445090.006    24445102.0554
  20770584.620     -665200.824 9   -678359.91548  20770584.793    20770590.4794
 00  2 29 16 38  0.0000000  0  9 18 02 27 19 31 07 08 10 13
  22992258.934     4665184.752 8   3607256.94846  22992258.720    22992270.2144
  21664833.259    -2339480.610 9  -1831392.07647  21664832.628    21664840.8824
  20430826.171    -1625850.520 9  -1272287.44348  20430825.863    20430832.9604
  20960576.197      746728.547 9    569261.65947  20960575.965    20960584.1634
  23034990.995     3195627.666 8   2466219.21846  23034990.588    23035001.0634
  23472099.966    -5793899.615 8  -4511044.75945  23472099.544    23472113.0064
  20210616.076    -2198653.010 9  -1720144.36447  20210615.522    20210622.6284
  24453847.480     1305979.212 7    998305.71545  24453846.324    24453858.1884
  20772832.824     -653386.605 9   -669154.08848  20772833.027    20772838.7154
 00  2 29 16 38 30.0000000  0  9 18 02 27 19 31 07 08 10 13
  23012989.233     4774122.401 8   3692143.14646  23012989.069    23013000.6024
  21659104.145    -2369587.584 9  -1854852.06947  21659103.524    21659111.7424
  20428076.837    -1640298.753 9  -1283545.86148  20428076.527    20428083.6304
  20966937.778      780158.151 9    595310.63247  20966937.491    20966945.7034
  23051190.433     3280755.261 8   2532552.20846  23051189.943    23051200.5374
  23452777.399    -5895440.431 8  -4590167.32345  23452776.901    23452790.2694
  20205564.150    -2225200.893 9  -1740831.05247  20205563.619    20205570.7514
  24462669.450     1352337.925 7   1034429.26045  24462668.277    24462679.9324
  20775201.930     -640937.520 9   -659453.55848  20775202.077    20775207.7834
 00  2 29 16 39  0.0000000  0  9 18 02 27 19 31 07 08 10 13
  23033762.609     4883285.093 8   3777204.70946  23033762.268    23033773.9034
  21653422.020    -2399447.896 9  -1878119.84447  21653421.328    21653429.5204
  20425393.416    -1654400.573 9  -1294534.33748  20425393.125    20425400.2194
  20973366.251      813939.588 9    621633.75547  20973365.971    20973374.2074
  23067470.084     3366305.113 8   2599214.25046  23067469.582    23067480.3334
  23433486.257    -5996815.662 8  -4669160.86045  23433485.756    23433499.1184
  20200566.274    -2251465.268 9  -1761296.81547  20200565.739    20200572.8784
  24471555.909     1399036.106 7   1070817.31345  24471554.814    24471566.5994
  20777690.503     -627860.242 9   -649263.52648  20777690.624    20777696.3744
 00  2 29 16 39 30.0000000  0  9 18 02 27 19 31 07 08 10 13
  23054572.570     4992639.923 8   3862415.96946  23054572.111    23054583.6744
  21647781.652    -2429088.304 9  -1901216.27347  21647780.963    21647789.1104
  20422774.468    -1668163.456 9  -1305258.69848  20422774.207    20422781.3144
  20979857.043      848049.069 9    648212.48547  20979856.847    20979865.0994
  23083831.422     3452282.703 8   2666209.57946  23083830.767    23083841.4914
  23414229.739    -6098008.737 8  -4748012.45545  23414229.276    23414242.6244
  20195623.428    -2277440.369 9  -1781537.16747  20195622.891    20195630.0264
  24480507.819     1446078.833 7   1107473.85745  24480506.848    24480518.6994
  20780296.517     -614165.662 9   -638592.47948  20780296.690    20780302.4534
 00  2 29 16 40  0.0000000  0 10 18 02 27 19 31 07 08 10 11 13
  23075416.108     5102172.974 8   3947766.12846  23075415.792    23075427.3794
  21642179.464    -2458527.942 9  -1924156.23747  21642178.801    21642186.9484
  20420215.790    -1681609.754 9  -1315736.36947  20420215.499    20420222.6044
  20986405.063      882458.250 9    675024.75047  20986404.814    20986413.0344
  23100270.155     3538668.976 8   2733523.39746  23100269.586    23100280.6724
  23395007.681    -6199020.847 8  -4826723.03046  23395007.174    23395020.4794
  20190733.031    -2303139.616 9  -1801562.57847  20190732.527    20190739.6634
  24489523.372     1493454.907 7   1144390.14045  24489522.426    24489534.0994
  24711660.715     -367708.865 7   -281133.45545  24711660.354    24711677.6904
  20783015.451     -599878.060 9   -627459.34048  20783015.617    20783021.3744
 00  2 29 16 40 30.0000000  0 10 18 02 27 19 31 07 08 10 11 13
  23096294.426     5211887.421 8   4033257.62546  23096293.928    23096305.5764
  21636614.723    -2487770.829 9  -1946942.88847  21636614.074    21636622.2264
  20417713.050    -1694762.052 9  -1325984.95147  20417712.712    20417719.8664
  20993006.901      917150.811 9    702057.83147  20993006.684    20993014.8854
  23116784.602     3625451.058 8   2801145.60246  23116784.023    23116794.9814
  23375819.533    -6299853.940 8  -4905294.10345  23375819.148    23375832.4484
  20185895.828    -2328559.663 9  -1821370.42147  20185895.296    20185902.4204
  24498601.770     1541160.873 7   1181563.49145  24498600.731    24498612.2824
  24701068.881     -423367.781 7   -324503.85645  24701068.716    24701086.0944
  20785843.712     -585015.846 9   -615878.45648  20785843.860    20785849.6064
 00  2 29 16 41  0.0000000  0 10 18 02 27 19 31 07 08 10 11 13
  23117205.582     5321774.100 8   4118883.31146  23117204.902    23117216.6304
  21631085.169    -2516829.073 9  -1969585.67847  21631084.502    21631092.6884
  20415261.247    -1707646.139 9  -1336024.54347  20415260.939    20415268.1934
  20999660.258      952114.097 9    729301.86047  20999660.018    20999668.2444
  23133369.178     3712603.540 8   2869056.44646  23133368.701    23133379.7314
  23356664.929    -6400510.658 8  -4983727.76846  23356664.698    23356677.9364
  20181113.125    -2353693.283 9  -1840955.08647  20181112.596    20181119.7074
  24507741.143     1589186.681 7   1218986.04645  24507739.834    24507751.5074
  24690507.090     -478870.486 7   -367752.51645  24690506.768    24690524.1074
  20788779.605     -569587.949 9   -603856.78448  20788779.757    20788785.5094
 00  2 29 16 41 30.0000000  0 10 18 02 27 19 31 07 08 10 11 13
  23138149.985     5431836.237 8   4204645.73546  23138149.322    23138161.0814
  21625592.335    -2545694.354 9  -1992078.10447  21625591.635    21625599.8504
  20412858.676    -1720271.862 9  -1345862.80548  20412858.392    20412865.6284
  21006367.297      987359.344 9    756765.61047  21006367.085    21006375.3084
  23150018.394     3800095.426 8   2937231.75745  23150017.936    23150029.0774
  23337541.220    -6501005.589 8  -5062035.35346  23337541.017    23337554.2554
  20176384.464    -2378542.604 9  -1860318.22047  20176383.920    20176391.0534
  24516939.116     1637522.853 7   1256650.46145  24516937.947    24516949.6604
  24679975.012     -534217.047 7   -410879.50745  24679974.939    24679991.9604
  20791823.336     -553593.684 9   -591393.78648  20791823.440    20791829.2054
 00  2 29 16 42  0.0000000  0 10 18 02 27 19 31 07 08 10 11 13
  23159127.638     5542073.760 8   4290544.81546  23159126.950    23159138.9124
  21620138.424    -2574354.334 9  -2014410.55347  21620137.780    21620146.0134
  20410506.881    -1732631.164 9  -1355493.46548  20410506.550    20410513.8114
  21013131.957     1022907.882 9    784465.68847  21013131.771    21013140.0104
  23166731.553     3887921.683 8   3005667.61746  23166730.996    23166742.2204
  23318446.943    -6601346.146 8  -5140222.64546  23318446.666    23318459.9614
  20171707.599    -2403120.005 9  -1879469.46547  20171707.068    20171714.1954
  24526194.892     1686161.776 7   1294550.77945  24526193.639    24526205.6064
  24669475.932     -589390.512 7   -453871.65944  24669475.769    24669493.1304
  20794971.914     -537047.990 9   -578501.10348  20794972.010    20794977.8024
 00  2 29 16 42 30.0000000  0 10 18 02 27 19 31 07 08 10 11 13
  23180137.495     5652480.412 8   4376575.67346  23180136.864    23180148.9114
  21614724.298    -2602805.830 9  -2036580.55747  21614723.668    21614731.8924
  20408208.358    -1744709.870 9  -1364905.48848  20408208.081    20408215.3734
  21019958.966     1058783.686 9    812420.77047  21019958.785    21019967.0334
  23183509.747     3976091.294 8   3074371.01345  23183509.260    23183520.4074
  23299382.599    -6701529.341 8  -5218287.33646  23299382.343    23299395.6014
  20167081.640    -2427429.692 9  -1898412.10647  20167081.100    20167088.2294
  24535507.520     1735099.548 7   1332683.95445  24535506.492    24535518.2504
  24659009.852     -644389.206 7   -496727.65044  24659009.792    24659026.8524
  20798228.160     -519936.274 9   -565167.36748  20798228.336    20798234.1334
 00  2 29 16 43  0.0000000  0 10 18 02 27 19 31 07 08 10 11 13
  23201177.654     5763044.691 8   4462729.36746  23201176.859    23201188.8384
  21609349.970    -2631048.223 9  -2058587.62447  21609349.359    21609357.5534
  20405968.324    -1756481.817 9  -1374078.46848  20405968.032    20405975.3214
  21026852.115     1095007.127 9    840646.73547  21026851.923    21026860.2424
  23200355.442     4064615.044 8   3143350.38845  23200354.848    23200366.0334
  23280348.158    -6801555.485 8  -5296229.64846  23280347.901    23280361.1404
  20162508.951    -2451459.533 9  -1917136.68447  20162508.426    20162515.5114
  24544877.055     1784336.435 7   1371050.21145  24544876.105    24544887.8414
  24648578.657     -699204.846 7   -539441.04944  24648578.564    24648595.6524
  20801592.749     -502255.474 9   -551390.18648  20801592.937    20801598.7464
 00  2 29 16 43 30.0000000  0 10 18 02 27 19 31 07 08 10 11 13
  23222247.034     5873764.508 8   4549004.25946  23222246.343    23222258.4134
  21604016.197    -2659077.788 9  -2080428.83447  21604015.551    21604023.7434
  20403790.065    -1767928.991 9  -1382998.38648  20403789.770    20403797.0824
  21033812.926     1131585.715 9    869149.44747  21033812.724    21033820.9814
  23217271.488     4153509.727 8   3212618.79445  23217270.928    23217282.3764
  23261343.902    -6901423.737 8  -5374048.92046  23261343.507    23261356.7564
  20157989.448    -2475210.034 9  -1935643.59048  20157988.895    20157995.9984
  24554302.920     1833869.716 7   1409647.43545  24554302.021    24554313.9134
  24638184.276     -753827.270 8   -582003.97845  24638184.121    24638201.0924
  20805064.153     -484013.883 9   -537176.02248  20805064.284    20805070.1124
 00  2 29 16 44  0.0000000  0 10 18 02 27 19 31 07 08 10 11 13
  23243342.344     5984621.957 8   4635386.40546  23243342.019    23243354.1954
  21598723.285    -2686892.428 9  -2102102.58247  21598722.615    21598730.7994
  20401672.934    -1779055.171 9  -1391668.17448  20401672.606    20401679.8454
  21040837.150     1168497.968 9    897912.14647  21040836.931    21040845.2444
  23234260.436     4242786.590 8   3282184.97045  23234259.897    23234271.4704
  23242371.103    -7001126.195 8  -5451739.02546  23242370.692    23242383.9244
  20153523.919    -2498676.658 9  -1953929.30648  20153523.376    20153530.4934
  24563786.352     1883705.049 7   1448480.01945  24563785.315    24563797.4274
  24627826.649     -808256.874 8   -624416.56545  24627826.450    24627842.8094
  20808641.014     -465217.377 9   -522529.45947  20808641.187    20808647.0424
 00  2 29 16 44 30.0000000  0 10 18 02 27 19 31 07 08 10 11 13
  23264462.297     6095606.354 8   4721867.45346  23264461.887    23264474.0934
  21593470.362    -2714496.552 9  -2123612.31247  21593469.732    21593477.9104
  20399615.075    -1789869.540 9  -1400094.99148  20399614.721    20399621.9774
  21047922.192     1205729.635 9    926923.75047  21047921.967    21047930.2794
  23251319.700     4332433.764 8   3352039.71445  23251319.276    23251330.8364
  23223428.564    -7100670.366 8  -5529305.77946  23223427.945    23223441.1184
  20149113.806    -2521851.689 9  -1971987.79748  20149113.339    20149120.4514
  24573324.282     1933826.333 7   1487535.40845  24573323.262    24573335.3634
  24617504.415     -862501.649 8   -666685.17345  24617504.047    24617520.5234
  20812323.891     -445863.808 9   -507448.81647  20812324.108    20812329.9714
 00  2 29 16 45  0.0000000  0 10 18 02 27 19 31 07 08 10 11 13
  23285605.762     6206713.560 8   4808444.20746  23285605.131    23285617.3654
  21588257.267    -2741891.680 9  -2144959.16947  21588256.651    21588264.8064
  20397616.305    -1800373.129 9  -1408279.64648  20397615.994    20397623.2614
  21055067.921     1243280.182 9    956183.82647  21055067.670    21055076.0104
  23268448.101     4422442.350 8   3422176.11245  23268447.589    23268459.1434
  23204514.523    -7200063.296 8  -5606754.69246  23204514.049    23204527.1334
  20144761.619    -2544722.896 9  -1989809.54147  20144761.092    20144768.2614
  24582917.138     1984236.475 7   1526815.87445  24582916.131    24582928.0874
  24607219.069     -916551.162 7   -708801.60045  24607218.658    24607235.2594
  20816110.989     -425962.891 9   -491941.67447  20816111.166    20816117.0494
 00  2 29 16 45 30.0000000  0 10 18 02 27 19 31 07 08 10 11 13
  23306771.988     6317942.974 8   4895116.17645  23306771.547    23306783.9494
  21583084.059    -2769077.507 9  -2166142.94447  21583083.392    21583091.5364
  20395675.701    -1810571.465 9  -1416226.43648  20395675.358    20395682.6604
  21062274.607     1281151.123 9    985693.55147  21062274.350    21062282.7124
  23285642.505     4512797.933 8   3492582.83945  23285641.886    23285653.3994
  23185631.999    -7299291.361 8  -5684075.14046  23185631.541    23185644.5634
  20140465.863    -2567297.447 9  -2007400.13048  20140465.356    20140472.5314
  24592566.103     2034941.396 7   1566326.04645  24592565.081    24592576.8944
  24596969.903     -970410.157 7   -750769.51945  24596969.453    24596986.0754
  20820003.210     -405509.258 9   -476003.84547  20820003.461    20820009.3444
 00  2 29 16 46  0.0000000  0 11 18 02 27 19 26 31 07 08 10 11 13
  23327963.145     6429301.492 8   4981888.75345  23327962.697    23327975.0394
  21577950.774    -2796053.342 9  -2187163.07747  21577950.076    21577958.1934
  20393794.303    -1820458.507 9  -1423930.66148  20393793.980    20393801.2774
  21069545.568     1319359.709 9   1015466.38847  21069545.297    21069553.6604
  24572036.103    -2004171.181 7  -1552504.33445  24572036.162    24572047.3434
  23302901.678     4603496.353 8   3563256.75045  23302901.297    23302912.9724
  23166783.916    -7398339.710 8  -5761255.53646  23166783.200    23166796.1444
  20136228.365    -2589566.376 9  -2024752.56548  20136227.799    20136234.9534
  24602273.574     2085955.320 7   1606077.03545  24602272.840    24602284.7764
  24586757.218    -1024077.100 7   -792587.84845  24586756.684    24586773.8004
  20824004.201     -384484.680 9   -459621.12647  20824004.362    20824010.2734
 00  2 29 16 46 30.0000000  0 11 18 02 27 19 26 31 07 08 10 11 13
  23349180.647     6540799.644 8   5068770.15645  23349180.348    23349192.7534
  21572854.661    -2822833.703 9  -2208030.89047  21572854.014    21572862.1054
  20391975.270    -1830018.082 9  -1431379.71848  20391974.910    20391982.1864
  21076885.060     1357928.421 9   1045519.85047  21076884.796    21076893.1664
  24554491.098    -2096372.145 7  -1624349.27445  24554491.039    24554502.2914
  23320226.917     4694539.008 8   3634198.85845  23320226.493    23320238.0754
  23147970.950    -7497202.145 8  -5838291.06546  23147970.194    23147983.1094
  20132050.914    -2611519.303 9  -2041858.76548  20132050.391    20132057.4944
  24612039.423     2137275.242 7   1646066.43845  24612038.830    24612050.9114
  24576584.633    -1077534.104 7   -834242.53444  24576584.085    24576600.8224
  20828115.646     -362878.900 9   -442785.52047  20828115.875    20828121.7854
 00  2 29 16 47  0.0000000  0 11 18 02 27 19 26 31 07 08 10 11 13
  23370424.818     6652437.402 8   5155760.33145  23370424.541    23370437.0874
  21567792.904    -2849433.615 9  -2228758.10147  21567792.208    21567800.3144
  20390220.008    -1839242.243 9  -1438567.40748  20390219.635    20390226.9084
  21084289.632     1396839.567 9   1075840.12547  21084289.390    21084297.8514
  24536989.994    -2188339.658 7  -1696012.29645  24536990.254    24537001.6024
  23337617.051     4785924.513 8   3705408.15845  23337616.614    23337628.1844
  23129196.022    -7595864.899 8  -5915170.99246  23129195.162    23129208.0734
  20127932.943    -2633159.607 9  -2058721.36348  20127932.372    20127939.4694
  24621863.687     2188900.720 7   1686293.94245  24621863.019    24621874.9594
  24566453.336    -1130774.198 7   -875728.10044  24566452.760    24566469.5284
  20832338.411     -340688.468 9   -425494.34147  20832338.602    20832344.5424
 00  2 29 16 47 30.0000000  0 11 18 02 27 19 26 31 07 08 10 11 13
  23391696.012     6764216.405 8   5242860.53545  23391695.646    23391708.2574
  21562766.650    -2875846.553 9  -2249339.62747  21562766.028    21562774.1124
  20388527.841    -1848134.944 9  -1445496.82148  20388527.486    20388534.7434
  21091756.011     1436075.225 9   1106413.27347  21091755.761    21091764.2604
  24519534.491    -2280068.172 7  -1767489.08345  24519534.879    24519546.2414
  23355072.736     4877652.837 8   3776884.55945  23355072.200    23355083.8154
  23110462.559    -7694308.979 8  -5991880.50846  23110461.771    23110474.6194
  20123872.295    -2654498.745 9  -2075349.28448  20123871.733    20123878.8434
  24631742.976     2240815.632 7   1726747.00945  24631742.380    24631753.9374
  24556362.590    -1183797.706 7   -917045.06344  24556362.274    24556380.0834
  20836674.557     -317902.290 9   -407738.94047  20836674.720    20836680.6904
 00  2 29 16 48  0.0000000  0 11 18 02 27 19 26 31 07 08 10 11 13
  23412993.545     6876133.841 8   5330068.61045  23412993.132    23413005.7624
  21557777.037    -2902067.700 9  -2269771.71247  21557776.352    21557784.4344
  20386899.539    -1856692.011 9  -1452164.69848  20386899.203    20386906.4724
  21099280.352     1475615.614 9   1137223.86847  21099280.112    21099288.6864
  24502125.768    -2371551.857 7  -1838775.10045  24502126.170    24502137.5694
  23372594.767     4969731.253 8   3848633.75745  23372594.279    23372606.1424
  23091769.718    -7792538.979 8  -6068423.21546  23091769.121    23091781.9204
  20119866.554    -2675548.914 9  -2091752.03848  20119865.997    20119873.1774
  24641673.002     2292997.712 7   1767408.27145  24641672.355    24641684.1854
  24546316.252    -1236591.951 7   -958183.29944  24546315.999    24546332.9824
  20841124.177     -294519.694 9   -389518.79647  20841124.330    20841130.3414
 00  2 29 16 48 30.0000000  0 11 18 02 27 19 26 31 07 08 10 11 13
  23434316.288     6988184.708 8   5417380.67545  23434315.891    23434328.6624
  21552824.308    -2928094.370 9  -2290052.25747  21552823.631    21552831.7404
  20385335.854    -1864909.406 9  -1458567.89748  20385335.496    20385342.7664
  21106859.336     1515443.236 9   1168258.29247  21106859.106    21106867.7134
  24484764.288    -2462788.581 7  -1909868.68145  24484764.331    24484775.7694
  23390182.382     5062153.096 8   3920650.55745  23390181.804    23390193.7494
  23073118.207    -7890552.378 8  -6144797.12846  23073117.723    23073130.4394
  20115915.737    -2696310.570 9  -2107929.97348  20115915.192    20115922.4174
  24651651.433     2345431.266 7   1808265.46545  24651650.277    24651662.2974
  24536315.791    -1289144.299 7   -999133.02744  24536315.254    24536331.9334
  20845684.843     -270553.441 9   -370843.85547  20845685.002    20845691.0634
 00  2 29 16 49  0.0000000  0 11 18 02 27 19 26 31 07 08 10 11 13
  23455664.079     7100367.419 8   5504795.46445  23455663.661    23455676.5564
  21547912.076    -2953908.255 9  -2310166.97147  21547911.431    21547919.5664
  20383835.135    -1872795.786 9  -1464713.16348  20383834.805    20383842.1014
  21114491.355     1555549.414 9   1199509.77147  21114491.142    21114499.7724
  24467450.975    -2553772.536 7  -1980765.29345  24467450.636    24467462.1374
  23407833.780     5154910.404 8   3992928.75445  23407833.135    23407844.9514
  23054506.921    -7988354.878 8  -6221006.69746  23054506.408    23054519.0944
  20112018.443    -2716790.749 9  -2123888.58148  20112017.930    20112025.1704
  24661674.376     2398102.380 7   1849307.79245  24661673.300    24661685.4584
  24526360.715    -1341459.860 7  -1039898.37144  24526360.184    24526376.8404
  20850355.756     -246007.757 9   -351717.41147  20850355.959    20850362.0414
 00  2 29 16 49 30.0000000  0 11 18 02 27 19 26 31 07 08 10 11 13
  23477034.381     7212667.872 8   5592301.99445  23477033.937    23477046.9444
  21543041.725    -2979502.249 9  -2330110.33147  21543041.073    21543049.2004
  20382395.336    -1880362.234 9  -1470609.13148  20382395.001    20382402.2894
  21122180.976     1595957.991 9   1230996.88047  21122180.758    21122189.3904
  24450187.214    -2644494.617 7  -2051457.84445  24450186.858    24450198.2334
  23425546.537     5247991.575 8   4065459.33145  23425545.991    23425558.0304
  23035932.469    -8085964.423 8  -6297065.91246  23035931.817    23035944.4914
  20108173.664    -2736995.186 9  -2139632.32248  20108173.161    20108180.4114
  24671744.567     2451021.678 7   1890543.49245  24671743.357    24671755.9574
  24516449.192    -1393544.905 7  -1080483.88644  24516448.547    24516464.5074
  20855135.107     -220892.483 9   -332147.13247  20855135.270    20855141.3834
 00  2 29 16 50  0.0000000  0 11 18 02 27 19 26 31 07 08 10 11 13
  23498425.282     7325076.379 8   5679892.70945  23498424.788    23498437.8664
  21538210.618    -3004890.093 9  -2349893.07547  21538209.928    21538218.0554
  20381018.226    -1887599.214 9  -1476248.37548  20381017.865    20381025.1934
  21129930.692     1636682.719 9   1262730.34547  21129930.493    21129939.1974
  24432973.559    -2734951.495 7  -2121943.74845  24432973.704    24432984.7394
  23443319.354     5341387.327 8   4138235.02745  23443318.768    23443330.7654
  23017391.744    -8183396.332 8  -6372986.71746  23017391.062    23017403.6544
  20104384.162    -2756909.385 9  -2155149.91148  20104383.685    20104390.9594
  24681864.035     2504200.195 7   1931981.18145  24681863.102    24681875.7564
  24506582.733    -1445393.201 7  -1120884.91844  24506582.047    24506598.5654
  20860021.118     -195216.476 9   -312139.91647  20860021.298    20860027.4494
 00  2 29 16 50 30.0000000  0 11 18 02 27 19 26 31 07 08 10 11 13
  23519838.906     7437604.382 8   5767576.54845  23519838.424    23519851.6084
  21533415.544    -3030088.242 9  -2369527.99547  21533414.877    21533423.0034
  20379703.381    -1894508.702 9  -1481632.42448  20379703.065    20379710.4164
  21137743.196     1677737.590 9   1294721.05847  21137743.035    21137751.7844
  24415806.783    -2825161.252 7  -2192237.09145  24415807.448    24415818.5274
  23461149.781     5435086.178 8   4211246.89745  23461149.244    23461161.3134
  22998884.832    -8280650.312 8  -6448768.86946  22998884.154    22998896.6934
  20100654.592    -2776508.681 9  -2170422.10148  20100654.107    20100661.4054
  24692036.173     2557654.802 7   1973634.00845  24692035.310    24692047.9764
  24496759.534    -1497012.610 7  -1161107.70744  24496758.977    24496775.5954
  20865014.270     -168976.982 9   -291693.61947  20865014.541    20865020.7514
 00  2 29 16 51  0.0000000  0 11 18 02 27 19 26 31 07 08 10 11 13
  23541274.156     7550246.432 8   5855349.24045  23541273.745    23541287.1644
  21528657.396    -3055092.355 9  -2389011.72547  21528656.731    21528664.8804
  20378450.180    -1901094.496 9  -1486764.24848  20378449.863    20378457.2384
  21145621.548     1719137.674 9   1326980.77847  21145621.361    21145630.0884
  24398687.556    -2915123.774 7  -2262337.77445  24398688.159    24398699.2874
  23479038.714     5529093.025 8   4284498.77645  23479038.180    23479050.3384
  22980413.286    -8377717.872 8  -6524405.76446  22980412.712    22980425.1474
  20096984.067    -2795797.722 9  -2185452.54748  20096983.558    20096990.8774
  24702263.954     2611401.978 7   2015514.79945  24702263.149    24702275.8454
  24486978.776    -1548410.644 7  -1201157.95144  24486978.446    24486994.7854
  20870118.468     -142154.182 9   -270792.79447  20870118.787    20870125.0514
 00  2 29 16 51 30.0000000  0 11 18 02 27 19 26 31 07 08 10 11 13
  23562731.670     7663005.587 8   5943213.19545  23562731.250    23562744.8444
  21523933.823    -3079915.150 9  -2408354.15747  21523933.181    21523941.3344
  20377260.749    -1907345.286 9  -1491635.02948  20377260.416    20377267.8244
  21153565.910     1760885.317 9   1359511.31247  21153565.711    21153574.5044
  24381612.506    -3004856.088 7  -2332259.06645  24381612.651    24381623.8144
  23496987.638     5623414.065 8   4357995.49245  23496987.224    23496999.3434
  22961979.810    -8474586.435 8  -6599887.60246  22961979.183    22961991.5174
  20093373.463    -2814771.444 9  -2200237.28548  20093372.987    20093380.3254
  24712549.266     2665451.930 7   2057631.52845  24712548.529    24712561.4894
  24477239.970    -1599586.384 7  -1241035.06544  24477239.461    24477256.2594
  20875334.454     -114744.586 9   -249434.73147  20875334.706    20875340.9734
 00  2 29 16 52  0.0000000  0 11 18 02 27 19 26 31 07 08 10 11 13
  23584216.370     7775906.482 8   6031187.57445  23584215.896    23584229.4484
  21519244.155    -3104559.572 9  -2427557.59647  21519243.508    21519251.6924
  20376137.998    -1913245.538 9  -1496232.66148  20376137.673    20376145.0814
  21161574.595     1802970.914 8   1392305.20447  21161574.427    21161583.2214
  24364580.091    -3094363.680 7  -2402005.26345  24364579.883    24364591.2184
  23514998.932     5718063.128 8   4431747.81545  23514998.505    23515010.6094
  22943587.043    -8571241.116 8  -6675202.79646  22943586.386    22943598.6334
  20089825.229    -2833417.883 9  -2214766.99848  20089824.734    20089832.0794
  24722886.984     2719775.281 7   2099961.29445  24722886.052    24722899.0304
  24467543.843    -1650537.698 7  -1280737.30944  24467543.832    24467560.8214
  20880660.264      -86757.684 9   -227626.81347  20880660.529    20880666.7784
 00  2 29 16 52 30.0000000  0 11 18 02 27 19 26 31 07 08 10 11 13
  23605728.382     7888951.037 8   6119273.91245  23605727.904    23605741.4744
  21514590.390    -3129015.371 9  -2446614.04747  21514589.739    21514597.9134
  20375079.957    -1918805.839 9  -1500565.39848  20375079.626    20375087.0334
  21169647.023     1845392.039 9   1425360.53247  21169646.898    21169655.8084
  24347590.683    -3183643.691 7  -2471574.13745  24347590.453    24347601.8434
  23533075.237     5813054.463 8   4505766.83345  23533074.831    23533086.8534
  22925238.739    -8667662.017 8  -6750335.81246  22925238.018    22925250.2084
  20086338.517    -2851741.007 9  -2229044.77948  20086337.988    20086345.3174
  24733274.401     2774360.743 7   2142495.31345  24733273.680    24733286.4184
  24457890.073    -1701268.458 7  -1320267.62644  24457890.065    24457907.2284
  20886093.191      -58207.726 9   -205380.16147  20886093.518    20886099.7444
 00  2 29 16 53  0.0000000  0 11 18 02 27 19 26 31 07 08 10 11 13
  23627263.316     8002117.521 8   6207455.26445  23627263.046    23627276.6854
  21509975.480    -3153266.833 9  -2465511.27647  21509974.834    21509982.9494
  20374084.958    -1924034.598 9  -1504639.80248  20374084.654    20374092.0324
  21177782.146     1888142.060 9   1458672.15447  21177781.986    21177790.9004
  24330647.586    -3272678.704 7  -2540952.12145  24330647.593    24330659.0804
  23551217.964     5908394.004 8   4580057.19045  23551217.431    23551229.5154
  22906934.247    -8763852.205 8  -6825289.07746  22906933.510    22906945.7144
  20082909.146    -2869762.502 9  -2243087.52648  20082908.612    20082915.9334
  24743706.030     2829178.577 7   2185210.41045  24743705.389    24743717.9774
  24448279.469    -1751773.168 7  -1359621.90444  24448279.159    24448296.4774
  20891629.772      -29113.466 9   -182709.37847  20891630.035    20891636.2654
 00  2 29 16 53 30.0000000  0 11 18 02 27 19 26 31 07 08 10 11 13
  23648822.942     8115411.947 8   6295736.28845  23648822.560    23648836.2324
  21505397.411    -3177324.708 9  -2484257.68947  21505396.774    21505404.8854
  20373152.979    -1928932.806 9  -1508456.63148  20373152.660    20373160.0004
  21185977.977     1931210.665 9   1492232.01547  21185977.783    21185986.6624
  24313752.409    -3361463.786 7  -2610135.34945  24313752.539    24313763.8584
  23569423.438     6004063.741 8   4654604.84045  23569422.957    23569435.2564
  22888671.559    -8859822.044 8  -6900070.65846  22888670.963    22888683.1074
  20079538.522    -2887475.515 9  -2256889.89448  20079537.985    20079545.2734
  24754177.002     2884201.166 7   2228085.02245  24754175.970    24754188.5084
  24438712.792    -1802046.785 7  -1398796.07944  24438712.253    24438729.4554
  20897263.948         493.894 9   -159638.78247  20897264.205    20897270.4174
 00  2 29 16 54  0.0000000  0 11 18 02 27 19 26 31 07 08 10 11 13
  23670403.399     8228816.562 8   6384103.17545  23670403.050    23670416.7794
  21500857.980    -3201179.882 9  -2502846.14947  21500857.346    21500865.4234
  20372282.185    -1933509.404 9  -1512022.85948  20372281.833    20372289.1664
  21194233.704     1974594.271 9   1526037.33647  21194233.547    21194242.3624
  24296909.510    -3449974.789 7  -2679105.01045  24296909.350    24296920.7424
  23587688.545     6100046.213 8   4729396.18045  23587688.004    23587700.2854
  22870452.044    -8955565.954 8  -6974676.19246  22870451.446    22870463.4534
  20076226.236    -2904881.887 9  -2270453.32148  20076225.708    20076232.9854
  24764683.957     2939416.209 7   2271109.61245  24764683.047    24764695.5874
  24429189.629    -1852088.840 7  -1437789.74944  24429189.124    24429206.3574
  20902994.895       30609.989 9   -136171.76747  20902995.167    20903001.3494
 00  2 29 16 54 30.0000000  0 11 18 02 27 19 26 31 07 08 10 11 13
  23691997.315     8342290.802 8   6472524.32945  23691996.862    23692010.5234
  21496356.614    -3224834.958 9  -2521278.68047  21496355.982    21496364.0494
  20371468.127    -1937787.491 9  -1515356.47548  20371467.776    20371475.1224
  21202546.710     2018278.982 9   1560077.28447  21202546.522    21202555.3844
  24280117.577    -3538216.261 7  -2747864.60445  24280117.694    24280128.9184
  23606007.376     6196311.514 8   4804407.89645  23606006.880    23606019.2644
  22852276.038    -9051081.059 8  -7049103.43546  22852275.469    22852287.4094
  20072969.884    -2921994.621 9  -2283787.94148  20072969.332    20072976.5874
  24775229.048     2994830.827 7   2314289.70645  24775228.046    24775240.4814
  24419712.340    -1901894.210 7  -1476599.06344  24419712.065    24419728.9864
  20908827.549       61260.168 9   -112288.58247  20908827.809    20908833.9774
 00  2 29 16 55  0.0000000  0 11 18 02 27 19 26 31 07 08 10 11 13
  23713603.531     8455830.319 8   6560996.34445  23713602.874    23713616.6634
  21491893.527    -3248288.976 9  -2539554.55547  21491892.832    21491900.9334
  20370715.381    -1941742.887 9  -1518438.65048  20370715.077    20370722.4554
  21210919.076     2062275.039 9   1594359.84347  21210918.916    21210927.6914
  24263376.189    -3626192.251 7  -2816417.32845  24263376.454    24263387.6024
  23624374.786     6292832.062 8   4879618.54245  23624374.305    23624386.7004
  22834142.474    -9146373.136 8  -7123356.90446  22834141.953    22834153.8224
  20069768.891    -2938816.022 9  -2296895.55148  20069768.338    20069775.5784
  24785813.974     3050454.600 7   2357632.77745  24785813.138    24785825.3214
  24410282.546    -1951449.656 7  -1515213.65144  24410281.884    24410298.8224
  20914767.444       92474.273 9    -87965.96947  20914767.727    20914773.8854
 00  2 29 16 55 30.0000000  0 10 18 02 27 19 26 31 07 08 11 13
  23735223.083     8569440.590 8   6649523.46345  23735222.427    23735236.4074
  21487467.939    -3271545.152 9  -2557676.28147  21487467.296    21487475.4034
  20370028.741    -1945351.524 9  -1521250.62748  20370028.443    20370035.8194
  21219353.055     2106595.695 9   1628895.31947  21219352.857    21219361.7084
  24246686.744    -3713895.166 7  -2884757.26545  24246687.247    24246698.2964
  23642790.305     6389603.803 8   4955024.87145  23642789.767    23642802.0004
  22816053.814    -9241429.269 8  -7197426.52346  22816053.335    22816065.1224
  20066628.863    -2955317.296 9  -2309753.70948  20066628.292    20066635.5144
  24400900.880    -2000750.788 7  -1553630.07044  24400900.219    24400916.9974
  20920819.792      124278.964 9    -63183.15847  20920820.038    20920826.2104
 00  2 29 16 56  0.0000000  0 10 18 02 27 19 26 31 07 08 11 13
  23756853.453     8683107.774 8   6738094.95945  23756852.812    23756866.8714
  21483082.916    -3294588.635 9  -2575632.26047  21483082.301    21483090.4084
  20369410.620    -1948600.218 9  -1523782.12148  20369410.300    20369417.6874
  21227850.090     2151246.984 9   1663688.44847  21227849.885    21227858.6804
  24230050.694    -3801318.089 7  -2952879.02245  24230051.344    24230062.2454
  23661257.818     6486651.073 8   5030645.93045  23661257.302    23661269.6874
  22798011.814    -9336240.854 8  -7271305.58946  22798011.236    22798022.9374
  20063550.491    -2971494.248 9  -2322359.15848  20063549.953    20063557.1874
  24391568.574    -2049793.590 7  -1591845.21144  24391567.689    24391584.3584
  20926988.678      156696.141 9    -37923.08447  20926988.867    20926995.0734
 00  2 29 16 56 30.0000000  0 10 18 02 27 19 26 31 07 08 11 13
  23778495.342     8796835.007 8   6826713.25445  23778494.710    23778508.7664
  21478736.265    -3317430.698 9  -2593431.27447  21478735.641    21478743.7314
  20368860.953    -1951489.195 9  -1526033.31948  20368860.621    20368867.9944
  21236411.618     2196237.762 9   1698746.09647  21236411.388    21236420.2034
  24213465.878    -3888474.666 7  -3020793.23745  24213465.977    24213476.9814
  23679778.539     6583977.265 7   5106484.29445  23679778.041    23679790.5194
  22780012.976    -9430825.158 8  -7345007.55846  22780012.426    22780024.0504
  20060532.300    -2987355.394 9  -2334718.51548  20060531.723    20060538.9324
  24382286.402    -2098570.461 7  -1629853.05944  24382285.796    24382302.3574
  20933272.285      189716.063 9    -12193.34947  20933272.437    20933278.6594
 00  2 29 16 57  0.0000000  0 10 18 02 27 19 26 31 07 08 11 13
  23800153.951     8910651.847 8   6915401.36745  23800153.496    23800167.7174
  21474429.849    -3340061.179 9  -2611065.43147  21474429.212    21474437.2974
  20368382.592    -1954003.448 9  -1527992.52248  20368382.232    20368389.5894
  21245042.019     2241590.260 9   1734085.62547  21245041.764    21245050.5674
  24196936.400    -3975338.461 7  -3088479.29245  24196936.379    24196947.4424
  23698356.165     6681603.445 7   5182556.45445  23698355.660    23698368.2654
  22762056.419    -9525188.783 8  -7418537.54746  22762055.547    22762067.1874
  20057577.166    -3002884.882 9  -2346819.44248  20057576.609    20057583.8194
  24373055.024    -2147080.107 6  -1667652.65344  24373054.435    24373071.1164
  20939665.166      223310.992 9     13984.45147  20939665.381    20939671.6184
 00  2 29 16 57 30.0000000  0 10 18 02 27 19 26 31 07 08 11 13
  23821830.686     9024561.280 8   7004161.62245  23821830.059    23821844.3294
  21470162.644    -3362485.840 9  -2628539.20347  21470162.006    21470170.0724
  20367972.455    -1956159.076 9  -1529672.27648  20367972.076    20367979.4334
  21253737.920     2287287.167 9   1769693.50447  21253737.713    21253746.5074
  24180464.338    -4061898.913 7  -3155928.98145  24180464.403    24180475.6044
  23716996.593     6779558.593 7   5258884.91845  23716996.095    23717008.9224
  22744143.036    -9619323.711 8  -7491889.33746  22744142.199    22744153.8294
  20054687.477    -3018070.429 9  -2358652.36348  20054686.899    20054694.1364
  24363872.930    -2195331.475 6                  24363872.320    24363888.6614
  20946163.032      257456.902 9     40591.57947  20946163.223    20946169.4594
 00  2 29 16 58  0.0000000  0 10 18 02 27 19 26 31 07 08 11 13
  23843523.892     9138557.789 7   7092989.75845  23843523.193    23843537.5154
  21465931.591    -3384720.397 9  -2645864.84347  21465930.945    21465938.9944
  20367627.883    -1957969.709 9  -1531083.20448  20367627.535    20367634.9014
  21262497.692     2333319.078 9   1805562.43447  21262497.429    21262506.1284
  24164047.991    -4148167.115 7  -3223150.90845  24164048.057    24164059.3094
  23735696.914     6877828.911 8   5335458.97745  23735696.409    23735709.2304
  22726274.138    -9713225.264 8  -7565059.28746  22726273.269    22726284.9104
  20051858.802    -3032935.311 9  -2370235.41548  20051858.247    20051865.4794
  24354740.665    -2243321.831 7                  24354739.157    24354756.6524
  20952762.163      292135.236 9     67613.58747  20952762.364    20952768.6094
 00  2 29 16 58 30.0000000  0 10 18 02 27 19 26 31 07 08 11 13
  23865233.830     9252644.628 7   7181888.24845  23865233.303    23865247.7994
  21461733.115    -3406783.587 9  -2663056.93947  21461732.462    21461740.5334
  20367347.284    -1959444.451 9  -1532232.39448  20367346.949    20367354.3234
  21271319.123     2379675.258 9   1841684.03547  21271318.822    21271327.5834
  24147686.869    -4234145.898 7  -3290147.32245  24147686.904    24147698.2274
  23754451.768     6976384.632 7   5412255.38945  23754451.216    23754463.9954
  22708449.023    -9806895.770 8  -7638049.19446  22708448.318    22708459.9164
  20049090.707    -3047481.729 9  -2381570.31048  20049090.144    20049097.3934
  24345657.634    -2291052.672 7                  24345656.262    24345674.2254
  20959461.491      327340.276 9     95046.01547  20959461.727    20959467.9614
 00  2 29 16 59  0.0000000  0 10 18 02 27 19 26 31 07 08 11 13
  23886958.187     9366807.794 8   7270846.22745  23886957.923    23886972.7744
  21457564.925    -3428687.812 9  -2680125.18647  21457564.247    21457572.3134
  20367131.247    -1960580.167 9  -1533117.41348  20367130.918    20367138.2804
  21280198.086     2426334.500 9   1878041.77347  21280197.855    21280206.7074
  24131381.303    -4319834.177 7  -3356917.37945  24131380.952    24131392.3604
  23773259.836     7075222.476 7   5489271.65145  23773259.385    23773272.3024
  22690669.966    -9900325.364 8  -7710851.37846  22690669.157    22690680.7694
  20046384.477    -3061702.999 9  -2392651.84848  20046383.947    20046391.1964
  24336622.044    -2338537.700 7  -1816839.86054  24336620.987    24336638.3054
  20966260.026      363066.331 9    122884.42047  20966260.260    20966266.4714
 00  2 29 16 59 30.0000000  0 10 18 02 27 19 26 31 07 08 11 13
  23908694.222     9481032.376 7   7359852.06845  23908694.255    23908709.2164
  21453424.091    -3450448.018 9  -2697081.19847  21453423.444    21453431.4954
  20366981.518    -1961367.383 9  -1533730.86748  20366981.172    20366988.5314
  21289133.126     2473287.892 8   1914628.72747  21289132.890    21289141.8134
  24115128.373    -4405244.593 7  -3423470.91345  24115127.885    24115139.2594
  23792120.429     7174334.442 7   5566501.51045  23792119.878    23792132.8634
  22672939.929    -9993497.065 8  -7783452.58346  22672939.141    22672950.7364
  20043739.791    -3075601.475 9  -2403481.85648  20043739.248    20043746.4854
  24327634.981    -2385764.831 7  -1853640.09344  24327633.461    24327651.4544
  20973161.994      399335.557 9    151146.07647  20973162.192    20973168.3584
 00  2 29 17  0  0.0000000  0 10 18 02 27 19 26 31 07 08 11 13
  23930443.819     9595326.159 7   7448911.82645  23930443.918    23930458.7994
  21449311.328    -3472060.704 9  -2713922.26047  21449310.711    21449318.7674
  20366898.937    -1961801.417 9  -1534069.11348  20366898.609    20366905.9914
  21298127.387     2520552.843 9   1951458.45547  21298127.183    21298136.1344
  24098928.552    -4490374.557 7  -3489805.92045  24098928.139    24098939.5974
  23811029.651     7273701.703 7   5643930.30645  23811029.118    23811042.2394
  22655260.160   -10086405.065 8  -7855848.31246  22655259.300    22655270.8764
  20041156.810    -3089175.567 9  -2414059.10048  20041156.216    20041163.4554
  24318700.922    -2432712.797 7  -1890222.80244  24318699.795    24318717.7334
  20980169.321      436158.641 9    179839.31047  20980169.491    20980175.6604
 00  2 29 17  0 30.0000000  0 10 18 02 27 19 26 31 07 08 11 13
  23952206.248     9709686.230 8   7538023.24045  23952206.282    23952221.2624
  21445229.364    -3493511.975 9  -2730637.54447  21445228.717    21445236.7784
  20366882.744    -1961886.727 9  -1534135.63648  20366882.411    20366889.7994
  21307182.309     2568136.363 8   1988536.41347  21307182.114    21307191.0844
  24082783.833    -4575214.378 7  -3555914.84545  24082783.755    24082795.1384
  23829988.770     7373332.380 8   5721564.34645  23829988.251    23830001.5544
  22637628.183   -10179061.156 8  -7928047.75546  22637627.397    22637638.9144
  20038637.866    -3102412.817 9  -2424373.87048  20038637.310    20038644.5104
  24309820.282    -2479379.348 7  -1926586.13744  24309819.372    24309836.4994
  20987282.096      473536.601 9    208964.91247  20987282.307    20987288.5154
 00  2 29 17  1  0.0000000  0 10 18 02 27 19 26 31 07 08 11 13
  23973980.147     9824105.875 8   7627181.07045  23973979.858    23973994.9174
  21441179.995    -3514791.536 9  -2747219.03147  21441179.360    21441187.4114
  20366932.465    -1961625.660 9  -1533932.25648  20366932.136    20366939.5264
  21316299.935     2616049.298 8   2025871.05047  21316299.703    21316308.6924
  24066693.885    -4659766.395 7  -3621799.50145  24066694.034    24066705.4374
  23848999.225     7473230.160 7   5799406.47845  23848998.591    23849011.6604
  22620043.858   -10271466.829 8  -8000052.04846  22620043.090    22620054.5634
  20036181.892    -3115319.477 9  -2434431.02448  20036181.290    20036188.5084
  24300994.574    -2525758.384 7  -1962725.52544  24300993.960    24301011.2014
  20994500.494      511469.497 9    238522.93447  20994500.719    20994506.9824
 00  2 29 17  1 30.0000000  0 10 18 02 27 19 26 31 07 08 11 13
  23995765.921     9938586.761 7   7716386.62945  23995765.236    23995780.2214
  21437164.571    -3535893.087 9  -2763661.80447  21437163.880    21437171.9434
  20367047.848    -1961019.364 9  -1533459.85848  20367047.536    20367054.9674
  21325482.088     2664301.609 8   2063470.14447  21325481.866    21325490.9144
  24050659.475    -4744028.496 7  -3687458.24445  24050659.575    24050670.9004
  23868057.498     7573381.522 7   5877446.26345  23868056.908    23868070.2184
  22602506.678   -10363624.794 8  -8071863.32346  22602505.961    22602517.3974
  20033787.206    -3127903.359 9  -2444236.66348  20033786.668    20033793.9154
  24292224.731    -2571844.368 7  -1998636.59444  24292223.973    24292240.9064
  21001826.167      549966.086 9    268520.19747  21001826.438    21001832.7244
 00  2 29 17  2  0.0000000  0 10 18 02 27 19 26 31 07 08 11 13
  24017563.890    10053134.625 7   7805644.37845  24017563.356    24017578.2714
  21433184.747    -3556807.186 9  -2779958.51447  21433184.105    21433192.1374
  20367229.213    -1960066.748 9  -1532717.59248  20367228.881    20367236.3614
  21334731.180     2712905.246 8   2101343.00247  21334730.923    21334739.9824
  24034682.593    -4827988.602 8  -3752881.67845  24034682.396    24034693.7734
  23887163.784     7673783.786 8   5955681.53745  23887163.199    23887176.4284
  22585015.436   -10455541.889 8  -8143486.91146  22585014.640    22585026.0724
  20031452.734    -3140171.432 9  -2453796.21548  20031452.164    20031459.4224
  24283508.976    -2617645.743 7  -2034325.89044  24283508.417    24283524.8604
  21009257.019      589014.815 9    298947.69947  21009257.214    21009263.5444
 00  2 29 17  2 30.0000000  0 10 18 02 27 19 26 31 07 08 11 13
  24039371.432    10167733.959 7   7894942.22345  24039371.189    24039386.0824
  21429242.250    -3577525.178 9  -2796102.42447  21429241.615    21429249.6414
  20367479.414    -1958751.984 9  -1531693.14348  20367479.078    20367486.5824
  21344045.967     2761854.945 8   2139485.49947  21344045.744    21344054.9384
  24018764.790    -4911637.537 7  -3818062.65945  24018764.615    24018775.8354
  23906317.604     7774436.297 8   6034111.83845  23906317.041    23906330.1924
  22567568.857   -10547223.281 8  -8214926.85046  22567568.128    22567579.6034
  20029177.029    -3152130.533 9  -2463115.01348  20029176.460    20029183.7464
  24274844.987    -2663174.975 7  -2069803.08144  24274844.545    24274860.7214
  21016791.956      628610.796 9    329801.62847  21016792.137    21016798.5034
 00  2 29 17  3  0.0000000  0 10 18 02 27 19 26 31 07 08 11 13
  24061189.971    10282390.393 7   7984284.56045  24061189.774    24061204.8034
  21425335.957    -3598053.211 9  -2812098.31447  21425335.299    21425343.3384
  20367801.545    -1957059.547 9  -1530374.40548  20367801.195    20367808.6814
  21353426.519     2811149.465 8   2177896.69447  21353426.310    21353435.5234
  24002905.739    -4994975.360 7  -3883001.21345  24002905.834    24002917.1474
  23925519.107     7875340.558 8   6112738.29345  23925518.617    23925531.9124
  22550171.054   -10638648.438 8  -8286167.12446  22550170.342    22550181.8614
  20026960.199    -3163779.990 9  -2472192.54148  20026959.664    20026966.9564
  24266233.430    -2708426.709 7  -2105063.98744  24266232.968    24266249.5874
  21024428.399      668740.082 9    361071.11747  21024428.561    21024434.9474
 00  2 29 17  3 30.0000000  0 10 18 02 27 19 26 31 07 08 11 13
  24083018.860    10397100.978 7   8073669.08245  24083018.612    24083033.7854
  21421463.835    -3618401.329 9  -2827954.00647  21421463.190    21421471.2374
  20368197.321    -1954979.923 9  -1528753.96248  20368196.981    20368204.5044
  21362872.094     2860785.654 8   2216574.12947  21362871.882    21362881.0654
  23987106.345    -5078000.007 7  -3947695.72745  23987106.752    23987117.9844
  23944768.206     7976494.358 7   6191559.18045  23944767.702    23944781.1504
  22532825.205   -10729800.071 8  -8357194.27346  22532824.620    22532836.1634
  20024804.574    -3175108.164 9  -2481019.71148  20024804.027    20024811.2834
  24257674.736    -2753402.502 7  -2140109.89944  24257674.391    24257690.7104
  21032162.290      709381.871 9    392739.96347  21032162.487    21032168.9054
 00  2 29 17  4  0.0000000  0 10 18 02 27 19 26 31 07 08 11 13
  24104857.007    10511859.500 7   8163090.97645  24104856.645    24104871.8804
  21417626.252    -3638567.771 9  -2843668.13547  21417625.626    21417633.7034
  20368666.167    -1952516.201 9  -1526834.21548  20368665.846    20368673.4194
  21372380.507     2910752.641 8   2255509.31947  21372380.328    21372389.6954
  23971366.299    -5160714.559 8  -4012148.60445  23971366.658    23971377.9134
  23964065.444     8077901.846 8   6270577.77045  23964065.122    23964078.2574
  22515530.708   -10820682.662 8  -8428011.76546  22515530.113    22515541.6714
  20022712.416    -3186102.618 9  -2489586.84548  20022711.845    20022719.1234
  24249171.544    -2798086.796 7  -2174928.73545  24249171.228    24249187.2754
  21039991.705      750525.514 9    424799.86247  21039991.887    21039998.3504
 00  2 29 17  4 30.0000000  0 10 18 02 27 19 26 31 07 08 11 13
  24126701.603    10626652.410 7   8252539.65345  24126701.292    24126716.6024
  21413823.956    -3658548.925 9  -2859237.88747  21413823.368    21413831.4374
  20369207.559    -1949671.120 9  -1524617.30848  20369207.261    20369214.8844
  21381950.064     2961040.283 8   2294694.38747  21381949.894    21381959.1984
  23955684.316    -5243125.921 7  -4076365.23245  23955684.335    23955695.6074
  23983409.103     8179551.363 8   6349784.95045  23983408.721    23983421.6304
  22498288.532   -10911290.148 8  -8498614.88946  22498287.910    22498299.5214
  20020685.740    -3196753.005 9  -2497885.87848  20020685.198    20020692.4794
  24240725.921    -2842468.546 7  -2209511.86145  24240725.764    24240741.4864
  21047917.602      792175.886 9    457254.61547  21047917.750    21047924.2454
 00  2 29 17  5  0.0000000  0 10 18 02 27 19 26 31 07 08 11 13
  24148553.258    10741482.075 8   8342016.94645  24148552.994    24148568.3114
  21410055.903    -3678350.201 9  -2874667.49047  21410055.307    21410063.4034
  20369820.873    -1946448.133 9  -1522105.92948  20369820.577    20369828.2464
  21391579.904     3011644.937 9   2334126.46447  21391579.737    21391589.0614
  23940058.470    -5325240.099 7  -4140350.30045  23940058.552    23940069.8504
  24002799.007     8281444.431 8   6429181.93145  24002798.577    24002811.6554
  22481101.087   -11001609.750 8  -8568993.68646  22481100.538    22481112.1744
  20018727.857    -3207041.985 9  -2505903.29948  20018727.283    20018734.6164
  24232340.644    -2886533.743 7  -2243848.31244  24232340.411    24232356.1074
  21055942.431      834346.519 9    490114.76047  21055942.604    21055949.1364
 00  2 29 17  5 30.0000000  0 10 18 02 27 19 26 31 07 08 11 13
  24170411.261    10856343.900 7   8431519.33045  24170410.772    24170426.2434
  21406323.929    -3697961.883 9  -2889949.34247  21406323.341    21406331.4864
  20370506.259    -1942846.782 9  -1519299.72248  20370505.962    20370513.6114
  21401269.527     3062563.379 8   2373803.06647  21401269.320    21401278.6014
  23924491.999    -5407040.870 7  -4204091.12245  23924492.309    23924503.5924
  24022233.302     8383571.637 7   6508761.38445  24022232.885    24022246.2434
  22463966.731   -11091650.854 8  -8639155.46646  22463966.160    22463977.8284
  20016840.026    -3216962.646 9  -2513633.71748  20016839.470    20016846.8184
  24224016.795    -2930275.985 7  -2277933.10244  24224016.481    24224031.7254
  21064071.429      877064.331 9    523401.28447  21064071.577    21064078.1794
 00  2 29 17  6  0.0000000  0 10 18 02 27 19 26 31 07 08 11 13
  24192275.763    10971240.463 7   8521048.76445  24192275.326    24192290.7274
  21402630.858    -3717369.211 9  -2905071.95947  21402630.257    21402638.4364
  20371261.937    -1938875.768 9  -1516205.46948  20371261.649    20371269.3194
  21411018.137     3113792.277 8   2413721.56547  21411017.961    21411027.2844
  23908987.581    -5488515.329 7  -4267577.69445  23908988.103    23908999.4754
  24041710.649     8485926.284 7   6588518.00945  24041710.261    24041723.8264
  22446884.053   -11181420.282 8  -8709105.55446  22446883.506    22446895.1914
  20015021.989    -3226516.299 9  -2521078.15848  20015021.449    20015028.8704
  24215754.445    -2973694.492 7  -2311765.62644  24215753.714    24215769.3594
  21072308.094      920348.263 9    557128.93347  21072308.285    21072314.9434
 00  2 29 17  6 30.0000000  0 10 18 02 27 19 26 31 07 08 11 13
  24214147.330    11086175.580 7   8610608.23645  24214147.053    24214162.5014
  21398976.633    -3736572.381 9  -2920035.49348  21398976.067    21398984.2734
  20372088.653    -1934531.504 9  -1512820.37048  20372088.367    20372096.0734
  21420827.925     3165342.698 8   2453890.61847  21420827.729    21420837.0834
  23893546.818    -5569656.079 8  -4330804.21845  23893547.382    23893558.8954
  24061228.936     8588495.671 7   6668441.99245  24061228.598    24061242.2424
  22429855.999   -11270902.270 8  -8778831.66246  22429855.584    22429867.2124
  20013273.924    -3235702.163 9  -2528236.00648  20013273.419    20013280.8814
  24207550.907    -3016802.664 7  -2345356.28145  24207550.292    24207566.1974
  21080653.028      964201.164 9    591299.93447  21080653.277    21080659.9914
 00  2 29 17  7  0.0000000  0 10 18 02 27 19 26 31 07 08 11 13
  24236027.822    11201156.038 8   8700203.04145  24236027.486    24236043.0174
  21395358.508    -3755585.925 9  -2934851.26648  21395357.932    21395366.1494
  20372985.930    -1929816.240 9  -1509146.17748  20372985.665    20372993.4204
  21430699.193     3217216.192 8   2494311.42447  21430699.015    21430708.3844
  23878171.906    -5650454.001 8  -4393763.61145  23878172.115    23878183.5464
  24080790.123     8691288.197 7   6748539.86445  24080789.585    24080803.3984
  22412882.404   -11360098.946 8  -8848335.45346  22412881.925    22412893.5124
  20011596.616    -3244516.695 9  -2535104.50748  20011596.100    20011603.5784
  24199406.966    -3059599.953 7  -2378704.73845  24199406.469    24199422.2374
  21089104.359     1008612.924 9    625906.40447  21089104.606    21089111.3584
 00  2 29 17  7 30.0000000  0 10 18 02 27 19 26 31 07 08 11 13
  24257918.070    11316187.692 7   8789837.75345  24257917.553    24257933.0224
  21391776.124    -3774411.496 9  -2949520.55848  21391775.552    21391783.7934
  20373952.190    -1924738.646 9  -1505189.65448  20373951.917    20373959.7164
  21440633.225     3269419.792 8   2534989.44747  21440633.088    21440642.5924
  23862863.093    -5730904.318 8  -4456452.12845  23862862.973    23862874.3164
  24100391.546     8794293.567 7   6828803.57745  24100391.086    24100404.9984
  22395962.797   -11449011.273 8  -8917617.66946  22395962.428    22395973.9954
  20009987.920    -3252970.512 9  -2541691.92848  20009987.424    20009994.8874
  24191322.230    -3102085.208 7  -2411810.07545  24191321.767    24191337.3534
  21097659.706     1053571.262 9    660938.78447  21097659.954    21097666.7574
 00  2 29 17  8  0.0000000  0 10 18 02 27 19 26 31 07 08 11 13
  24279818.502    11431274.039 7   8879515.08445  24279817.911    24279833.5124
  21388227.384    -3793060.182 9  -2964052.01848  21388226.829    21388235.0924
  20374987.260    -1919299.408 9  -1500951.32648  20374987.000    20374994.8024
  21450631.302     3321959.536 8   2575929.40447  21450631.167    21450640.7114
  23847618.115    -5811017.579 8  -4518878.00945  23847617.958    23847629.1744
  24120033.981     8897514.279 7   6909235.07945  24120033.558    24120047.3414
  22379096.891   -11537642.844 8  -8986681.11746  22379096.364    22379107.9154
  20008445.822    -3261074.823 9  -2548007.00648  20008445.301    20008452.7844
  24183297.713    -3144254.281 7  -2444669.01645  24183297.201    24183312.9104
  21106315.861     1099059.042 9    696383.71247  21106316.111    21106322.9554
 00  2 29 17  8 30.0000000  0 10 18 02 27 19 26 31 07 08 11 13
  24301726.964    11546403.610 7   8969226.11245  24301726.534    24301742.4804
  21384708.365    -3811552.865 9  -2978461.92248  21384707.795    21384716.1074
  20376094.224    -1913482.461 9  -1496418.69148  20376093.984    20376101.7744
  21460695.428     3374846.335 8   2617139.79147  21460695.290    21460704.8574
  23832435.465    -5890801.212 7  -4581047.02145  23832435.588    23832446.8574
  24139718.129     9000955.226 7   6989838.18945  24139717.880    24139731.6894
  22362282.782   -11626001.840 8  -9055532.16946  22362282.155    22362293.6704
  20006968.796    -3268836.470 9  -2554055.07548  20006968.284    20006975.8024
  24175335.466    -3186095.561 7  -2477272.62645  24175335.094    24175350.7174
  21115071.692     1145070.955 9    732237.05847  21115071.960    21115078.8444
 00  2 29 17  9  0.0000000  0 10 18 02 27 19 26 31 07 08 11 13
  24323641.016    11661561.649 8   9058959.29445  24323640.663    24323656.5114
  21381217.838    -3829895.686 9  -2992755.06348  21381217.291    21381225.6234
  20377273.738    -1907284.161 9  -1491588.90148  20377273.497    20377281.2964
  21470823.832     3428071.044 8   2658613.49447  21470823.718    21470833.2384
  23817316.255    -5970253.281 7  -4642957.69645  23817316.335    23817327.6374
  24159446.868     9104629.803 7   7070623.31145  24159446.394    24159460.5384
  22345520.073   -11714090.333 8  -9124172.43246  22345519.379    22345530.9014
  20005555.016    -3276265.817 9  -2559844.20248  20005554.573    20005562.1134
  24167438.355    -3227595.075 8  -2509609.90945  24167438.021    24167453.5324
  21123926.606     1191603.607 9    768496.17447  21123926.890    21123933.8134
 00  2 29 17  9 30.0000000  0 10 18 02 27 19 26 31 07 08 11 13
  24345557.660    11776730.568 7   9148700.95645  24345556.841    24345572.5984
  21377757.506    -3848079.823 9  -3006924.54448  21377756.977    21377765.3124
  20378524.969    -1900709.185 9  -1486465.59248  20378524.741    20378532.5554
  21481015.526     3481628.001 8   2700346.08747  21481015.352    21481024.9714
  23802259.698    -6049375.904 7  -4704611.64345  23802259.779    23802271.1864
  24179219.352     9208533.157 7   7151586.74245  24179218.774    24179232.9384
  22328807.543   -11801914.463 8  -9192606.71246  22328806.968    22328818.4454
  20004203.819    -3283366.581 9  -2565377.29148  20004203.348    20004210.9254
  24159604.305    -3268763.396 7  -2541689.10045  24159603.915    24159619.5084
  21132880.616     1238656.715 9    805160.84147  21132880.891    21132887.8184
 00  2 29 17 10  0.0000000  0 10 18 02 27 19 26 31 07 08 11 13
  24367473.222    11891895.279 7   9238439.35345  24367472.110    24367487.9014
  21374326.735    -3866109.010 9  -3020973.27248  21374326.192    21374334.5274
  20379849.188    -1893751.025 9  -1481043.69748  20379848.904    20379856.7044
  21491270.529     3535518.118 8   2742338.29247  21491270.363    21491279.9394
  23787266.278    -6128167.417 8  -4766007.59245  23787266.208    23787277.6104
  24199036.605     9312672.244 7   7232733.84745  24199036.096    24199050.3324
  22312145.686   -11889472.865 8  -9260833.93046  22312145.084    22312156.5414
  20002917.678    -3290125.708 9  -2570644.17148  20002917.159    20002924.7184
  24151832.358    -3309603.987 7  -2573512.87345  24151832.105    24151847.7014
  21141933.726     1286230.805 9    842231.47047  21141934.043    21141940.9784
 00  2 29 17 10 30.0000000  0 10 18 02 27 19 26 31 07 08 11 13
  24389386.500    12007050.007 7   9328169.99645  24389385.719    24389401.4444
  21370927.653    -3883971.604 9  -3034892.19848  21370927.095    21370935.4384
  20381245.724    -1886412.164 9  -1475325.16548  20381245.457    20381253.2654
  21501588.753     3589740.230 8   2784589.19147  21501588.610    21501598.0804
  23772335.776    -6206626.038 7  -4827144.16145  23772336.044    23772347.3924
  24218897.091     9417041.042 7   7314059.96345  24218896.716    24218911.3824
  22295538.028   -11976745.884 8  -9328838.77646  22295537.441    22295548.9014
  20001700.049    -3296524.194 9  -2575630.03348  20001699.581    20001707.1324
  24144122.187    -3350120.703 7  -2605084.33645  24144121.903    24144137.5914
  21151087.093     1334331.924 9    879712.76647  21151087.457    21151094.3904
 00  2 29 17 11  0.0000000  0 10 18 02 27 19 26 31 07 08 11 13
  24411299.852    12122205.688 7   9417901.32645  24411299.308    24411315.3874
  21367563.413    -3901651.006 9  -3048668.36748  21367562.824    21367571.1514
  20382712.057    -1878706.934 9  -1469321.15648  20382711.792    20382719.5734
  21511968.829     3644287.154 8   2827093.18547  21511968.644    21511978.1334
  23757470.593    -6284743.173 8  -4888014.66345  23757470.855    23757482.1904
  24238801.852     9521639.850 7   7395565.25245  24238801.496    24238816.0804
  22278987.156   -12063721.245 8  -9396611.67746  22278986.559    22278997.9754
  20000553.880    -3302547.465 9  -2580323.51348  20000553.375    20000560.9454
  24136472.003    -3390322.630 8  -2636410.49345  24136471.748    24136487.3424
  21160339.482     1382952.756 9    917599.03147  21160339.801    21160346.7354
 00  2 29 17 11 30.0000000  0 10 18 02 27 19 26 31 07 08 11 13
  24433215.132    12237371.385 7   9507640.50045  24433214.837    24433231.1444
  21364234.632    -3919144.029 9  -3062299.30148  21364234.008    21364242.3254
  20384247.329    -1870639.420 9  -1463034.83348  20384247.069    20384254.8254
  21522411.512     3699163.879 8   2869854.17547  21522411.364    21522420.9084
  23742671.360    -6362516.189 8  -4948616.99045  23742671.201    23742682.4834
  24258747.714     9626452.257 7   7477236.98945  24258747.158    24258761.3184
  22262492.457   -12150401.461 8  -9464154.60746  22262491.748    22262503.1424
  19999480.026    -3308190.620 9  -2584720.80248  19999479.538    19999487.1224
  24128881.904    -3430209.882 7  -2667491.38845  24128881.643    24128897.0274
  21169689.764     1432088.413 9    955886.46847  21169690.118    21169697.0384
 00  2 29 17 12  0.0000000  0 10 18 02 27 19 26 31 07 08 11 13
  24455133.204    12352549.757 7   9597389.52945  24455132.754    24455149.3154
  21360939.278    -3936461.216 9  -3075793.22347  21360938.660    21360946.9514
  20385853.659    -1862198.431 9  -1456457.49148  20385853.397    20385861.1664
  21532918.110     3754375.450 8   2912876.08147  21532917.931    21532927.4374
  23727937.283    -6439945.019 8  -5008951.12445  23727937.031    23727948.3834
  24278732.619     9731472.819 7   7559070.95945  24278732.083    24278746.2564
  22246056.971   -12236770.027 8  -9531454.69446  22246056.286    22246067.6424
  19998476.786    -3313463.000 9  -2588829.18448  19998476.293    19998483.8784
  24121353.314    -3469772.890 7  -2698319.60145  24121352.986    24121368.3274
  21179137.062     1481733.728 9    994571.02947  21179137.408    21179144.3254
 00  2 29 17 12 30.0000000  0 10 18 02 27 19 26 31 07 08 11 13
  24477053.084    12467736.427 7   9687145.03545  24477052.418    24477069.0144
  21357677.716    -3953601.058 9  -3089148.94748  21357677.108    21357685.3654
  20387533.528    -1853371.079 9  -1449579.09548  20387533.244    20387541.0014
  21543488.888     3809924.559 8   2956160.99547  21543488.693    21543498.2434
  23713269.488    -6517024.195 8  -5069012.79345  23713269.335    23713280.6184
  24298756.000     9836696.275 7   7641062.99245  24298755.521    24298770.0084
  22229681.541   -12322823.537 8  -9598509.30146  22229680.832    22229692.1114
  19997540.388    -3318384.393 9  -2592664.07048  19997539.871    19997547.4354
  24113887.955    -3509003.331 7  -2728888.68345  24113887.503    24113902.9624
  21188679.648     1531879.839 9   1033645.82947  21188679.992    21188686.9334
 00  2 29 17 13  0.0000000  0 10 18 02 27 19 26 31 07 08 11 13
  24498972.473    12582924.071 7   9776901.28145  24498972.243    24498988.9324
  21354447.555    -3970575.839 9  -3102376.05948  21354446.934    21354455.1784
  20389289.873    -1844141.593 9  -1442387.36048  20389289.618    20389297.3324
  21554121.811     3865800.879 8   2999700.86547  21554121.672    21554131.3654
  23698669.923    -6593744.646 8  -5128794.94145  23698669.872    23698681.0394
  24318817.210     9942117.558 7   7723209.19445  24318816.813    24318831.3284
  22213365.250   -12408565.944 8  -9665321.48846  22213364.578    22213375.7624
  19996668.856    -3322964.518 9  -2596233.03048  19996668.374    19996675.9034
  24106486.144    -3547900.067 8  -2759197.76645  24106485.647    24106500.8234
  21198315.985     1582518.848 9   1073104.70347  21198316.351    21198323.3044
 00  2 29 17 13 30.0000000  0 10 18 02 27 19 26 31 07 08 11 13
  24520888.694    12698095.663 7   9866645.04545  24520888.942    24520905.9164
  21351248.366    -3987387.922 9  -3115476.39048  21351247.739    21351255.9594
  20391125.535    -1834495.775 9  -1434871.20148  20391125.267    20391132.9314
  21564818.685     3922013.231 8   3043502.58447  21564818.537    21564828.2814
  23684136.757    -6670116.205 8  -5188305.22245  23684136.843    23684147.9214
  24338914.544    10047727.169 7   7805502.11145  24338914.000    24338928.3734
  22197108.948   -12493993.211 8  -9731888.11346  22197108.302    22197119.4034
  19995860.047    -3327214.962 9  -2599545.08548  19995859.555    19995867.1094
  24099149.046    -3586456.396 8  -2789241.58945  24099148.508    24099163.7744
  21208047.972     1633660.421 9   1112955.18147  21208048.354    21208055.2934
 00  2 29 17 14  0.0000000  0 10 18 02 27 19 26 31 07 08 11 13
  24542801.375    12813243.839 7   9956370.54245  24542801.152    24542818.1014
  21348080.246    -4004036.341 9  -3128449.19748  21348079.602    21348087.8744
  20393041.233    -1824428.911 9  -1427026.94548  20393040.981    20393048.6044
  21575580.910     3978568.995 8   3087571.89347  21575580.796    21575590.5644
  23669670.225    -6746138.015 8  -5247542.96445  23669670.438    23669681.4934
  24359047.416    10153524.302 7   7887941.16645  24359046.803    24359061.1354
  22180913.767   -12579099.330 8  -9798204.49847  22180913.143    22180924.1594
  19995114.641    -3331132.159 9  -2602597.48848  19995114.160    19995121.7424
  24091877.039    -3624670.516 7  -2819018.69545  24091876.641    24091891.8704
  21217877.244     1685312.705 9   1153203.61147  21217877.499    21217884.4694
 00  2 29 17 14 30.0000000  0 10 18 02 27 19 26 31 07 08 11 13
  24564710.506    12928373.750 7  10046081.77045  24564709.904    24564727.1074
  21344945.083    -4020511.610 9  -3141287.07847  21344944.472    21344952.7684
  20395035.649    -1813948.535 9  -1418860.47448  20395035.381    20395042.9864
  21586406.626     4035458.346 8   3131901.14647  21586406.532    21586416.3194
  23655272.078    -6821801.214 8  -5306501.25645  23655272.196    23655283.3174
  24379213.736    10259498.894 7   7970518.52045  24379213.182    24379227.8564
  22164779.304   -12663886.082 8  -9864272.01147  22164778.723    22164789.6764
  19994436.796    -3334694.650 9  -2605373.49348  19994436.300    19994443.8714
  24084671.470    -3662536.070 8  -2848524.19745  24084671.049    24084686.3434
  21227805.286     1737484.410 9   1193856.78847  21227805.506    21227812.5234
 00  2 29 17 15  0.0000000  0 10 18 02 27 19 26 31 07 08 11 13
  24586618.198    13043496.066 7  10135787.11445  24586617.409    24586634.6264
  21341844.178    -4036807.251 9  -3153984.99247  21341843.549    21341851.8474
  20397103.466    -1803082.329 9  -1410393.35848  20397103.199    20397110.8474
  21597296.018     4092681.655 8   3176490.60747  21597295.883    21597305.6044
  23640943.269    -6897099.641 8  -5365175.34745  23640943.435    23640954.4924
  24399413.719    10365649.451 8   8053233.00945  24399413.157    24399428.0454
  22148707.247   -12748345.501 8  -9930084.47647  22148706.570    22148717.4874
  19993830.897    -3337878.806 9  -2607854.69848  19993830.419    19993837.9834
  24077532.452    -3700051.567 8  -2877756.95345  24077532.102    24077547.4814
  21237833.022     1790180.121 9   1234918.27847  21237833.234    21237840.3004
 00  2 29 17 15 30.0000000  0 10 18 02 27 19 26 31 07 08 11 13
  24608523.633    13158609.763 7  10225485.70945  24608523.103    24608540.5024
  21338778.293    -4052918.791 9  -3166539.45247  21338777.662    21338785.9604
  20399239.236    -1791859.147 9  -1401648.07148  20399238.951    20399246.6374
  21608250.059     4150245.260 8   3221345.23347  21608249.950    21608259.7164
  23626684.053    -6972031.331 8  -5423563.66145  23626684.377    23626695.4694
  24419646.772    10471972.689 8   8136082.03345  24419646.210    24419660.7814
  22132697.296   -12832477.144 8  -9995641.53047  22132696.783    22132707.6794
  19993297.929    -3340679.946 9  -2610037.44748  19993297.418    19993304.9764
  24070461.253    -3737210.365 8  -2906711.75445  24070460.877    24070476.2544
  21247958.818     1843391.195 9   1276381.34847  21247959.024    21247966.1434
 00  2 29 17 16  0.0000000  0 10 18 02 27 19 26 31 07 08 11 13
  24630429.801    13273728.286 7  10315188.10445  24630429.668    24630447.1534
  21335745.107    -4068858.307 9  -3178959.87447  21335744.451    21335752.7664
  20401440.173    -1780293.246 9  -1392635.73548  20401439.907    20401447.6354
  21619264.677     4208127.505 8   3266448.14747  21619264.585    21619274.5294
  23612496.495    -7046587.214 8  -5481659.12745  23612496.768    23612508.0334
  24439912.024    10578466.259 7   8219063.78545  24439911.491    24439925.9514
  22116748.662   -12916287.348 8 -10060948.11047  22116748.154    22116759.0464
  19992839.248    -3343090.490 9  -2611915.83448  19992838.726    19992846.2784
  24063456.950    -3774017.701 7  -2935392.63045  24063456.586    24063471.9184
  21258178.984     1897098.177 9   1318230.84047  21258179.188    21258186.3654
 00  2 29 17 16 30.0000000  0 10 18 02 27 19 26 31 07 08 11 13
  24652336.204    13388849.694 7  10404892.69945  24652336.602    24652354.6904
  21332743.479    -4084631.822 9  -3191250.94547  21332742.889    21332751.1964
  20403706.261    -1768385.210 9  -1383356.80448  20403705.998    20403713.7224
  21630337.541     4266315.150 8   3311789.02547  21630337.409    21630347.3814
  23598380.390    -7120768.188 8  -5539462.45445  23598380.601    23598391.8194
  24460207.877    10685122.323 7   8302172.17245  24460207.511    24460222.0634
  22100859.802   -12999783.480 8 -10126009.96647  22100859.314    22100870.1984
  19992453.888    -3345115.566 9  -2613493.84848  19992453.392    19992460.9314
  24056519.461    -3810474.049 7  -2963799.98445  24056519.039    24056534.4974
  21268489.572     1951280.120 9   1360450.43447  21268489.801    21268496.9814
 00  2 29 17 17  0.0000000  0 10 18 02 27 19 26 31 07 08 11 13
  24674241.242    13503959.400 7  10494588.22145  24674241.607    24674259.6924
  21329772.834    -4100242.764 9  -3203415.33347  21329772.216    21329780.5624
  20406040.295    -1756120.016 9  -1373799.56947  20406040.022    20406047.7694
  21641469.363     4324812.548 8   3357371.27747  21641469.222    21641479.1104
  23584334.366    -7194581.333 8  -5596979.16045  23584334.485    23584345.5584
  24480535.554    10791944.298 7   8385409.84445  24480535.188    24480550.0194
  22085030.132   -13082968.509 8 -10190829.39947  22085029.602    22085040.5254
  19992137.996    -3346775.909 9  -2614787.65048  19992137.491    19992145.0444
  24049648.283    -3846582.024 7  -2991935.91145  24049647.876    24049663.3284
  21278887.447     2005921.035 9   1403027.66847  21278887.692    21278894.8854
 00  2 29 17 17 30.0000000  0 10 18 02 27 19 26 31 07 08 11 13
  24696142.809    13619049.059 7  10584268.07445  24696142.885    24696160.5754
  21326830.564    -4115704.700 9  -3215463.61648  21326829.933    21326838.3274
  20408450.463    -1743454.667 9  -1363930.52947  20408450.194    20408457.9444
  21652659.410     4383615.719 8   3403191.77747  21652659.296    21652669.1584
  23570356.943    -7268032.807 8  -5654214.05845  23570357.102    23570368.0854
  24500895.103    10898932.258 7   8468776.85145  24500894.643    24500909.5284
  22069258.989   -13165846.199 8 -10255409.35247  22069258.391    22069269.3994
  19991890.361    -3348077.569 9  -2615801.96148  19991889.853    19991897.4094
  24042842.455    -3882345.464 8  -3019803.39645  24042842.167    24042857.5364
  21289373.906     2061026.966 9   1445967.24547  21289374.093    21289381.2794
 00  2 29 17 18  0.0000000  0 10 18 02 27 19 26 31 07 08 11 13
  24718041.672    13734125.322 7  10673937.49745  24718041.485    24718059.3304
  21323916.031    -4131020.330 9  -3227397.89148  21323915.441    21323923.8434
  20410943.943    -1730351.490 9  -1353720.31947  20410943.668    20410951.4454
  21663908.597     4442729.980 8   3449254.68947  21663908.498    21663918.4564
  23556449.932    -7341113.600 8  -5711160.11645  23556450.199    23556461.1824
  24521288.511    11006099.492 7   8552283.52745  24521287.946    24521302.9494
  22053547.162   -13248411.481 8 -10319745.87447  22053546.627    22053557.6844
  19991712.085    -3349014.604 9  -2616532.14948  19991711.576    19991719.1544
  24036104.653    -3917751.716 8  -3047392.56145  24036104.302    24036119.6964
  21299951.961     2116614.800 9   1489282.33747  21299952.170    21299959.3914
 00  2 29 17 18 30.0000000  0  9 18 02 27 19 26 07 08 11 13
  24739936.808    13849182.957 7  10763592.39345  24739936.368    24739954.4774
  21321031.283    -4146179.644 9  -3239210.36348  21321030.718    21321039.1254
  20413525.320    -1716786.699 9  -1343150.40947  20413525.021    20413532.8114
  21675222.636     4502185.139 8   3495583.23247  21675222.526    21675232.5924
  23542618.968    -7413795.044 8  -5767794.98545  23542619.274    23542630.3234
  22037898.707   -13330644.058 8 -10383823.14047  22037898.251    22037909.3184
  19991605.108    -3349576.877 9  -2616970.32048  19991604.620    19991612.2104
  24029438.400    -3952783.531 8  -3074689.98545  24029438.086    24029453.3004
  21310626.456     2172708.777 9   1532991.82347  21310626.580    21310633.8054
 00  2 29 17 19  0.0000000  0  9 18 02 27 19 26 07 08 11 13
  24761825.910    13964208.489 7  10853222.25345  24761825.365    24761843.6034
  21318172.360    -4161203.517 9  -3250917.30848  21318171.787    21318180.1994
  20416192.143    -1702772.789 9  -1332230.54247  20416191.834    20416199.6104
  21686600.299     4561974.751 8   3542172.38647  21686600.199    21686610.2744
  23528862.994    -7486084.862 8  -5824124.70645  23528862.977    23528874.0934
  22022312.015   -13412552.158 8 -10447647.55647  22022311.551    22022322.6694
  19991569.313    -3349765.134 9  -2617117.05248  19991568.815    19991576.4074
  24022841.852    -3987448.984 7  -3101701.89745  24022841.443    24022856.6024
  21321397.223     2229309.001 9   1577095.79247  21321397.344    21321404.5894
 00  2 29 17 19 30.0000000  0  8 02 27 19 26 07 08 11 13
  21315340.835    -4176083.503 9  -3262512.13248  21315340.257    21315348.6634
  20418943.669    -1688313.637 9  -1320963.73447  20418943.370    20418951.1614
  21698043.965     4622110.486 8   3589031.25247  21698043.797    21698053.8464
  23515186.679    -7557954.767 8  -5880127.19745  23515186.625    23515197.7754
  22006788.864   -13494126.212 8 -10511211.68247  22006788.528    22006799.6014
  19991609.108    -3349556.249 9  -2616954.32248  19991608.617    19991616.1944
  24016317.914    -4021732.561 7  -3128416.24245  24016317.410    24016332.4724
  21332267.141     2286430.490 9   1621605.93447  21332267.288    21332274.5774
 00  2 29 17 20  0.0000000  0  8 02 27 19 26 07 08 11 13
  21312537.523    -4190815.095 9  -3273991.32248  21312536.978    21312545.3464
  20421771.195    -1673455.236 9  -1309385.81047  20421770.882    20421778.7154
  21709550.998     4682579.814 8   3636150.04147  21709550.800    21709560.9714
  23501590.907    -7629401.814 8  -5935800.20945  23501590.697    23501601.8224
  21991327.144   -13575379.210 8 -10574525.62247  21991326.581    21991337.6284
  19991720.113    -3348973.001 9  -2616499.88248  19991719.610    19991727.2434
  24009866.082    -4055636.535 7  -3154834.82545  24009865.626    24009880.6364
  21343231.360     2344047.260 9   1666502.02347  21343231.488    21343238.8134
 00  2 29 17 20 30.0000000  0  8 02 27 19 26 07 08 11 13
  21309762.016    -4205400.832 9  -3285356.86248  21309761.449    21309769.7564
  20424669.246    -1658226.112 9  -1297519.01347  20424668.936    20424676.7814
  21721118.779     4743368.525 8   3683517.69947  21721118.622    21721128.8214
  23488070.258    -7700453.307 8  -5991165.00145  23488070.008    23488081.2054
  21975924.251   -13656322.096 8 -10637597.92047  21975923.625    21975934.6244
  19991899.357    -3348031.282 9  -2615766.11548  19991898.836    19991906.4404
  24003482.632    -4089181.513 8  -3180973.66245  24003482.205    24003497.1594
  21354283.814     2402128.496 9   1711760.03347  21354284.057    21354291.4474
 00  2 29 17 21  0.0000000  0  8 02 27 19 26 07 08 11 13
  21307017.889    -4219821.598 9  -3296593.85448  21307017.329    21307025.6334
  20427637.166    -1642629.907 9  -1285366.19447  20427636.851    20427644.6994
  21732746.447     4804471.514 8   3731130.26047  21732746.283    21732756.4344
  23474620.195    -7771133.233 8  -6046240.27645  23474620.029    23474631.2474
  21960582.418   -13736943.839 8 -10700419.97847  21960581.796    21960592.7554
  19992146.305    -3346733.581 9  -2614754.96348  19992145.765    19992153.3624
  23997169.615    -4122355.606 7  -3206823.48445  23997169.265    23997184.3134
  21365423.216     2460666.021 9   1757373.58047  21365423.445    21365430.8554
 00  2 29 17 21 30.0000000  0  8 02 27 19 26 07 08 11 13
  21304307.912    -4234062.840 9  -3307690.95448  21304307.345    21304315.6404
  20430673.762    -1626672.620 9  -1272932.01247  20430673.439    20430681.3564
  21744433.621     4865887.561 8   3778986.75447  21744433.491    21744443.7114
  23461240.224    -7841445.071 8  -6101028.74145  23461240.161    23461251.3544
  21945302.790   -13817238.146 8 -10762986.89647  21945302.263    21945313.1754
  19992458.785    -3345091.231 9  -2613475.25548  19992458.259    19992465.9214
  23990927.601    -4155157.209 8  -3232383.09845  23990927.357    23990942.3714
  21376647.754     2519650.780 9   1803335.63047  21376647.994    21376655.4104
 00  2 29 17 22  0.0000000  0  8 02 27 19 26 07 08 11 13
  21301632.683    -4248121.404 9  -3318645.71048  21301632.117    21301640.4134
  20433780.271    -1610347.954 9  -1260211.56147  20433779.968    20433787.9244
  21756182.347     4927626.171 8   3827094.60647  21756182.208    21756192.3694
  23447926.481    -7911408.509 8  -6155545.69345  23447926.548    23447937.6984
  21930086.443   -13897200.315 8 -10825295.00047  21930085.938    21930096.8114
  19992837.709    -3343099.911 9  -2611923.62348  19992837.247    19992844.9264
  23984755.711    -4187590.808 8  -3257656.01645  23984755.469    23984770.3084
  21387957.858     2579085.492 9   1849648.28347  21387958.105    21387965.5244
 00  2 29 17 22 30.0000000  0  8 02 27 19 26 07 08 11 13
  21298991.039    -4262003.563 9  -3329463.00148  21298990.466    21298998.7764
  20436960.802    -1593634.520 9  -1247188.16847  20436960.497    20436968.4684
  21767995.384     4989702.594 8   3875465.68647  21767995.190    21768005.3044
  23434679.778    -7981020.073 8  -6209788.49745  23434679.998    23434691.0324
  21914935.465   -13976819.530 8 -10887335.86747  21914934.876    21914945.7154
  19993287.180    -3340738.468 9  -2610083.58448  19993286.705    19993294.3664
  23978655.633    -4219646.491 7  -3282634.40245  23978655.373    23978670.2734
  21399357.433     2638990.223 9   1896327.19047  21399357.673    21399365.1184
 00  2 29 17 23  0.0000000  0  8 02 27 19 26 07 08 11 13
  21296379.667    -4275726.661 9  -3340156.34648  21296379.064    21296387.3944
  20440216.051    -1576528.175 9  -1233858.60647  20440215.773    20440223.7794
  21779873.231     5052120.663 8   3924102.97447  21779873.067    21779883.2654
  23421505.937    -8050248.861 8  -6263733.02045  23421506.229    23421517.1504
  21899850.423   -14056091.477 8 -10949106.13647  21899849.859    21899860.6594
  19993808.083    -3338001.502 9  -2607950.92448  19993807.615    19993815.2584
  23972628.774    -4251316.831 7  -3307312.47845  23972628.445    23972643.5614
  21410849.941     2699383.160 9   1943386.50947  21410850.177    21410857.6184
 00  2 29 17 23 30.0000000  0  8 02 27 19 26 07 08 11 13
  21293794.012    -4289314.505 9  -3350744.30248  21293793.413    21293801.7534
  20443548.377    -1559017.015 9  -1220213.61747  20443548.096    20443556.1104
  21791814.462     5114871.746 8   3972999.77547  21791814.301    21791824.6064
  23408408.718    -8119076.181 8  -6317364.71545  23408408.816    23408419.7484
  21884829.265   -14135027.983 8 -11010615.01747  21884828.748    21884839.4774
  19994402.428    -3334878.397 9  -2605517.36848  19994401.973    19994409.6224
  23966671.427    -4282622.971 8  -3331706.80945  23966671.219    23966686.2304
  21422435.515     2760265.268 9   1990827.00447  21422435.786    21422443.2074
 00  2 29 17 24  0.0000000  0  8 02 27 19 26 07 08 11 13
  21291232.429    -4302775.867 9  -3361233.70348  21291231.827    21291240.1494
  20446961.507    -1541080.997 9  -1206237.57347  20446961.243    20446969.2824
  21803818.596     5177953.527 8   4022154.24246  21803818.400    21803828.7784
  23395390.412    -8187486.997 8  -6370671.84945  23395390.589    23395401.6904
  21869873.646   -14213620.807 8 -11071856.09347  21869873.022    21869883.7094
  19995072.854    -3331355.674 9  -2602772.42248  19995072.359    19995080.0064
  23960784.227    -4313559.764 7  -3355813.33945  23960784.045    23960799.0784
  21434114.921     2821640.274 9   2038651.57347  21434115.171    21434122.5994
 00  2 29 17 24 30.0000000  0  8 02 27 19 26 07 08 11 13
  21288694.454    -4316113.378 9  -3371626.58748  21288693.844    21288702.1144
  20450457.755    -1522708.360 9  -1191921.30047  20450457.483    20450465.5564
  21815883.261     5241353.487 8   4071556.65546  21815883.138    21815893.4784
  23382453.169    -8255472.966 8  -6423647.93545  23382453.344    23382464.4324
  21854984.396   -14291864.004 8 -11132824.73447  21854983.760    21854994.4484
  19995819.190    -3327434.061 9  -2599716.65748  19995818.653    19995826.3024
  23954971.761    -4344103.819 7  -3379613.82545  23954971.568    23954986.6184
  21445886.553     2883499.742 9   2086853.63947  21445886.731    21445894.1594
 00  2 29 17 25  0.0000000  0  8 02 27 19 26 07 08 11 13
  21286181.828    -4329317.710 9  -3381915.68948  21286181.203    21286189.4684
  20454037.407    -1503897.524 9  -1177263.56847  20454037.145    20454045.2354
  21828007.194     5305064.359 8   4121201.32646  21828007.045    21828017.4224
  23369595.173    -8323042.785 8  -6476299.72345  23369595.266    23369606.3074
  21840163.123   -14369749.628 8 -11193514.74447  21840162.550    21840173.2324
  19996640.979    -3323115.551 9  -2596351.61848  19996640.464    19996648.1014
  23949234.382    -4374254.751 8  -3403108.02145  23949234.060    23949248.9634
  21457747.031     2945826.496 9   2135419.83447  21457747.180    21457754.6484
 00  2 29 17 25 30.0000000  0  8 02 27 19 26 07 08 11 13
  21283699.968    -4342359.806 9  -3392078.38048  21283699.372    21283707.6424
  20457702.442    -1484637.953 9  -1162256.17947  20457702.187    20457710.2844
  21840191.533     5369092.736 8   4171093.40146  21840191.400    21840201.8064
  23356814.088    -8390207.738 8  -6528636.03045  23356814.214    23356825.2264
  21825410.480   -14447274.784 8 -11253923.87247  21825409.923    21825420.5884
  19997541.206    -3318385.368 9  -2592665.78948  19997540.670    19997548.3094
  23943574.533    -4403997.384 8  -3426284.01645  23943574.148    23943589.0394
  21469694.582     3008610.357 9   2184342.21147  21469694.659    21469702.1574
 00  2 29 17 26  0.0000000  0  8 02 27 19 26 07 08 11 13
  21281253.587    -4355216.115 9  -3402096.29748  21281252.965    21281261.2344
  20461450.256    -1464943.506 9  -1146909.91847  20461449.993    20461458.1274
  21852438.598     5433450.324 8   4221242.00846  21852438.441    21852448.8624
  23344112.097    -8456956.606 8  -6580648.06945  23344112.267    23344123.4144
  21810726.554   -14524438.657 8 -11314051.47847  21810726.069    21810736.6834
  19998521.220    -3313235.342 9  -2588652.81448  19998520.682    19998528.3464
  23937998.346    -4433300.025 7  -3449117.16345  23937998.039    23938012.8224
  21481730.496     3071858.930 9   2233626.70047  21481730.537    21481738.0714
 00  2 29 17 26 30.0000000  0  8 02 27 19 26 07 08 11 13
  21278841.703    -4367890.821 9  -3411972.71248  21278841.085    21278849.3594
  20465275.981    -1444839.304 9  -1131244.36647  20465275.714    20465283.8794
  21864749.471     5498143.700 8   4271652.28446  21864749.259    21864759.7514
  23331490.414    -8523284.766 8  -6632332.29146  23331490.485    23331501.6274
  21796110.494   -14601246.777 9 -11373901.87447  21796109.957    21796120.5024
  19999580.344    -3307669.696 9  -2584315.97948  19999579.859    19999587.5124
  23932503.189    -4462176.866 8  -3471618.50545  23932502.993    23932517.6674
  21493855.430     3135575.549 9   2283275.89947  21493855.493    21493863.0644
 00  2 29 17 27  0.0000000  0  8 02 27 19 26 07 08 11 13
  21276462.250    -4380394.878 9  -3421716.16048  21276461.642    21276469.9044
  20469175.559    -1424346.907 9  -1115276.33047  20469175.315    20469183.5374
  21877123.322     5563168.384 8   4322320.71246  21877123.153    21877133.7124
  23318951.628    -8589177.418 8  -6683677.18146  23318951.636    23318962.6814
  21781562.653   -14677696.476 8 -11433472.98247  21781561.999    21781572.5484
  20000716.911    -3301697.096 9  -2579662.04748  20000716.432    20000724.1154
  23927083.123    -4490660.069 7  -3493813.14445  23927082.795    23927097.3954
  21506069.026     3199757.999 9   2333288.07947  21506069.098    21506076.6894
 00  2 29 17 27 30.0000000  0  8 02 27 19 26 07 08 11 13
  21274112.472    -4392743.501 9  -3431338.47948  21274111.829    21274120.1014
  20473146.947    -1403477.497 9  -1099014.51247  20473146.695    20473154.8914
  21889557.360     5628509.498 8   4373235.71746  21889557.245    21889567.8014
  23306497.655    -8654623.289 8  -6734673.91246  23306497.687    23306508.7804
  21767081.344   -14753795.613 8 -11492770.91847  21767080.774    21767091.2854
  20001930.221    -3295321.283 9  -2574693.91748  20001929.732    20001937.4384
  23921735.207    -4518763.308 8  -3515711.71545  23921734.777    23921749.4604
  21518371.782     3264408.861 9   2383665.26947  21518371.861    21518379.4764
 00  2 29 17 28  0.0000000  0  8 02 27 19 26 07 08 11 13
  21271788.218    -4404957.632 9  -3440856.01048  21271787.588    21271795.8634
  20477186.700    -1382248.662 9  -1082472.63447  20477186.468    20477194.6714
  21902051.281     5694164.824 8   4424395.56646  21902051.135    21902061.7014
  23294127.783    -8719626.485 8  -6785325.71246  23294127.961    23294138.9634
  21752668.730   -14829533.796 8 -11551787.59647  21752668.181    21752678.6804
  20003215.731    -3288565.800 9  -2569429.94848  20003215.232    20003222.9884
  23916457.971    -4546495.675 7  -3537321.27645  23916457.522    23916472.1014
  21530762.392     3329521.870 9   2434402.56347  21530762.543    21530770.2104
 00  2 29 17 28 30.0000000  0  8 02 27 19 26 07 08 11 13
  21269485.239    -4417059.726 9  -3450286.24248  21269484.632    21269492.9394
  20481296.408    -1360652.482 9  -1065644.51047  20481296.123    20481304.3554
  21914604.550     5760132.264 8   4475798.62746  21914604.444    21914615.0624
  23281836.389    -8784218.459 8  -6835657.06546  23281836.440    23281847.5114
  21738326.908   -14904899.717 9 -11610514.19847  21738326.460    21738336.9124
  20004568.568    -3281456.444 9  -2563890.23848  20004568.145    20004575.8894
  23911247.870    -4573873.546 7  -3558654.56645  23911247.438    23911262.2254
  21543235.728     3395069.021 9   2485478.15047  21543235.838    21543243.5284
 00  2 29 17 29  0.0000000  0  8 02 27 19 26 07 08 11 13
  21267205.270    -4429041.437 9  -3459622.67048  21267204.651    21267212.9544
  20485480.729    -1338664.221 9  -1048510.87147  20485480.407    20485488.6004
  21927215.397     5826401.256 8   4527436.66446  21927215.235    21927225.7984
  23269620.155    -8848414.971 8  -6885680.27146  23269620.127    23269631.2884
  21724056.597   -14979891.015 8 -11668948.88547  21724056.049    21724066.4684
  20005988.439    -3273995.459 9  -2558076.52648  20005987.973    20005995.6954
  23906110.256    -4600871.304 8  -3579691.72045  23906109.944    23906124.6404
  21555786.713     3461024.413 9   2536871.84247  21555786.799    21555794.5234
 00  2 29 17 29 30.0000000  0  8 02 27 19 26 07 08 11 13
  21264949.775    -4440894.458 9  -3468858.82348  21264949.122    21264957.4324
  20489743.105    -1316265.474 9  -1031057.36847  20489742.796    20489750.9764
  21939885.392     5892981.854 8   4579317.51446  21939885.233    21939895.7654
  23257477.768    -8912223.642 8  -6935401.26946  23257477.713    23257488.8984
  21709853.984   -15054526.171 9 -11727106.04747  21709853.361    21709863.7444
  20007476.773    -3266174.779 9  -2551982.52748  20007476.282    20007483.9904
  23901051.086    -4627457.603 8  -3600408.28645  23901050.657    23901065.1644
  21568414.333     3527383.467 9   2588580.09147  21568414.557    21568422.3514
 00  2 29 17 30  0.0000000  0  8 02 27 19 26 07 08 11 13
  21262721.250    -4452605.379 9  -3477984.25348  21262720.595    21262728.9154
  20494088.225    -1293431.825 9  -1013264.98547  20494087.958    20494096.1374
  21952617.199     5959886.894 8   4631451.17246  21952616.989    21952627.6394
  23245409.176    -8975643.451 8  -6984819.25446  23245409.308    23245420.5194
  21695718.243   -15128809.523 9 -11784989.08847  21695717.637    21695728.0004
  20009034.186    -3257990.797 9  -2545605.44248  20009033.674    20009041.3934
  23896071.329    -4653625.679 7  -3620798.89745  23896070.774    23896085.4694
  21581119.108     3594147.271 9   2640603.72147  21581119.342    21581127.1954
 00  2 29 17 30 30.0000000  0  8 02 27 19 26 07 08 11 13
  21260522.682    -4464159.003 9  -3486987.11048  21260522.047    21260530.3444
  20498523.430    -1270125.158 9   -995104.01447  20498523.148    20498531.2804
  21965409.303     6027109.087 8   4683831.96946  21965409.084    21965419.8434
  23233418.625    -9038654.565 8  -7033918.81946  23233418.679    23233429.8544
  21681648.431   -15202746.960 9 -11842602.57647  21681647.728    21681658.0604
  20010665.490    -3249418.334 9  -2538925.64448  20010665.005    20010672.7154
  23891171.791    -4679372.664 8  -3640861.39145  23891171.286    23891185.8774
  21593903.634     3661329.865 9   2692953.68547  21593903.861    21593911.7344
 00  2 29 17 31  0.0000000  0  8 02 27 19 26 07 08 11 13
  21258357.994    -4475534.783 9  -3495851.37748  21258357.345    21258365.6374
  20503049.034    -1246343.577 9   -976572.98647  20503048.745    20503056.8614
  21978262.368     6094651.954 8   4736462.62846  21978262.155    21978272.9704
  23221513.646    -9101215.961 8  -7082667.97946  23221513.631    23221524.7514
  21667645.327   -15276333.291 8 -11899942.48747  21667644.662    21667654.9714
  20012376.771    -3240425.741 9  -2531918.47848  20012376.300    20012384.0174
  23886355.751    -4704681.278 8  -3660582.32845  23886355.270    23886369.8324
  21606771.910     3728952.772 9   2745646.75347  21606772.173    21606780.0704
 00  2 29 17 31 30.0000000  0  8 02 27 19 26 07 08 11 13
  21256227.364    -4486731.399 9  -3504576.04348  21256226.730    21256235.0214
  20507662.219    -1222101.325 9   -957682.99547  20507661.951    20507670.0604
  21991178.740     6162527.715 8   4789352.69646  21991178.573    21991189.4134
  23209696.041    -9163318.127 8  -7131059.29846  23209695.942    23209707.1124
  21653709.813   -15349564.470 9 -11957005.64847  21653709.149    21653719.4334
  20014169.750    -3231003.901 9  -2524576.82548  20014169.259    20014176.9844
  23881620.186    -4729566.723 8  -3679973.48645  23881619.748    23881634.1964
  21619728.344     3797038.558 9   2798700.49847  21619728.603    21619736.4604
 00  2 29 17 32  0.0000000  0  8 02 27 19 26 07 08 11 13
  21254131.461    -4497745.738 9  -3513158.67448  21254130.821    21254139.0994
  20512361.641    -1197406.036 9   -938439.98547  20512361.347    20512369.5014
  22004158.679     6230736.716 8   4842502.42346  22004158.488    22004169.3764
  23197965.304    -9224964.106 8  -7179095.12446  23197965.093    23197976.2454
  21639848.554   -15422405.604 9 -12013764.89247  21639847.925    21639858.1754
  20016045.979    -3221144.263 9  -2516894.03848  20016045.490    20016053.2414
  23876964.833    -4754030.078 8  -3699035.75545  23876964.442    23876978.8604
  21632773.962     3865592.789 9   2852119.26547  21632774.172    21632781.9784
 00  2 29 17 32 30.0000000  0  8 02 27 19 26 07 08 11 13
  21252069.016    -4508584.331 9  -3521604.36248  21252068.379    21252076.6214
  20517141.934    -1172286.119 9   -918866.08847  20517141.598    20517149.8224
  22017201.722     6299277.981 8   4895911.06146  22017201.528    22017212.5194
  23186320.419    -9286158.216 8  -7226778.84646  23186320.184    23186331.3264
  21626065.756   -15494834.477 9 -12070202.88247  21626065.067    21626075.2904
  20018007.138    -3210838.521 9  -2508863.63648  20018006.632    20018014.3704
  23872395.214    -4778043.968 8  -3717747.82345  23872394.885    23872409.1464
  21645905.879     3934601.229 9   2905891.96447  21645906.151    21645913.9784
 00  2 29 17 33  0.0000000  0  8 02 27 19 26 07 08 11 13
  21250036.888    -4519263.526 9  -3529925.84548  21250036.216    21250044.4554
  20521995.917    -1146778.063 9   -898989.74747  20521995.638    20522003.8384
  22030308.369     6368154.532 8   4949580.94846  22030308.235    22030319.4304
  23174758.713    -9346914.480 8  -7274121.39446  23174758.609    23174769.8144
  21612361.692   -15566849.103 9 -12126318.09447  21612361.104    21612371.2824
  20020051.719    -3200094.692 9  -2500491.86348  20020051.187    20020058.9264
  23867912.224    -4801601.748 7  -3736104.44545  23867911.859    23867926.1714
  21659122.248     4004052.858 9   2960009.99547  21659122.461    21659130.3174
 00  2 29 17 33 30.0000000  0  8 02 27 19 26 07 08 11 13
  21248033.462    -4529791.762 9  -3538129.69048  21248032.803    21248041.0784
  20526925.365    -1120873.965 9   -878804.80647  20526925.095    20526933.4314
  22043475.957     6437350.525 8   5003499.76446  22043475.869    22043487.0964
  23163276.020    -9407256.593 8  -7321141.23146  23163275.938    23163287.1644
  21598736.295   -15638451.091 9 -12182111.76547  21598735.647    21598745.8124
  20022176.687    -3188928.537 9  -2491791.00448  20022176.106    20022183.8664
  23863512.606    -4824720.920 8  -3754119.29545  23863512.274    23863526.4684
  21672422.443     4073945.092 9   3014471.35447  21672422.574    21672430.4914
 00  2 29 17 34  0.0000000  0  8 02 27 19 26 07 08 11 13
  21246057.627    -4540174.804 9  -3546220.39748  21246056.991    21246065.2644
  20531932.983    -1094559.153 9   -858299.81947  20531932.699    20531940.9574
  22056703.301     6506859.527 8   5057662.46946  22056703.172    22056714.3264
  23151872.944    -9467179.179 8  -7367834.13746  23151873.061    23151884.3264
  21585192.389   -15709624.320 9 -12237571.33947  21585191.783    21585201.9124
  20024381.151    -3177344.200 9  -2482764.29248  20024380.580    20024388.3194
  23859199.126    -4847388.712 8  -3771782.44545  23859198.770    23859212.8734
  21685805.495     4144273.322 9   3069272.45947  21685805.629    21685813.6244
 00  2 29 17 34 30.0000000  0  8 02 27 19 26 07 08 11 13
  21244108.585    -4550417.357 9  -3554201.63448  21244107.930    21244116.2254
  20537019.498    -1067829.779 9   -837471.81547  20537019.197    20537027.5034
  22069990.845     6576685.239 8   5112071.95946  22069990.723    22070001.8654
  23140552.598    -9526668.353 8  -7414189.31746  23140552.639    23140563.9344
  21571725.795   -15780391.339 9 -12292714.39947  21571725.186    21571735.2744
  20026663.288    -3165351.728 9  -2473419.55548  20026662.700    20026670.4494
  23854969.592    -4869615.351 7  -3789101.78845  23854969.049    23854983.3304
  21699270.059     4215029.668 9   3124407.15247  21699270.188    21699278.2154
 00  2 29 17 35  0.0000000  0  8 02 27 19 26 07 08 11 13
  21242186.224    -4560519.454 9  -3562073.42248  21242185.581    21242193.9134
  20542188.815    -1040664.816 9   -816304.37547  20542188.539    20542196.8834
  22083339.455     6646831.264 8   5166731.04446  22083339.282    22083350.3534
  23129315.938    -9585716.634 8  -7460200.94046  23129316.058    23129327.3484
  21558333.753   -15850766.896 9 -12347552.41947  21558333.157    21558343.2054
  20029019.020    -3152972.433 9  -2463773.38748  20029018.449    20029026.1904
  23850818.236    -4891430.770 8  -3806100.75445  23850817.723    23850831.9824
  21712817.543     4286221.812 9   3179881.43847  21712817.719    21712825.7364
 00  2 29 17 35 30.0000000  0  8 02 27 19 26 07 08 11 13
  21240291.743    -4570475.150 9  -3569831.13848  21240291.082    21240299.4364
  20547443.442    -1013051.857 9   -794787.85847  20547443.171    20547451.5574
  22096750.546     6717306.260 8   5221646.47946  22096750.368    22096761.4654
  23118166.095    -9644309.271 8  -7505857.50846  23118166.296    23118177.5044
  21545014.730   -15920758.727 9 -12402091.43647  21545014.087    21545024.0834
  20031446.994    -3140213.740 9  -2453831.58048  20031446.408    20031454.1524
  23846743.189    -4912844.683 8  -3822786.84845  23846742.703    23846756.8154
  21726445.912     4357838.651 9   3235686.64347  21726446.094    21726454.0784
 00  2 29 17 36  0.0000000  0  8 02 27 19 26 07 08 11 13
  21238423.495    -4580292.962 9  -3577481.41148  21238422.836    21238431.1434
  20552778.293     -985017.659 9   -772943.10647  20552777.998    20552786.3994
  22110225.015     6788115.073 8   5276822.01446  22110224.870    22110236.0614
  23107105.864    -9702431.574 8  -7551147.56646  23107105.964    23107117.1704
  21531764.479   -15990388.935 9 -12456348.66647  21531763.820    21531773.8354
  20033945.902    -3127081.749 9  -2443598.89148  20033945.328    20033953.1254
  23842746.305    -4933847.837 8  -3839152.88245  23842745.831    23842760.1164
  21740151.106     4429859.296 9   3291806.50447  21740151.256    21740159.2524
 00  2 29 17 36 30.0000000  0  8 02 27 19 26 07 08 11 13
  21236580.816    -4589976.197 9  -3585026.81748  21236580.161    21236588.4564
  20558188.698     -956586.414 9   -750788.94447  20558188.363    20558196.7734
  22123760.510     6859243.649 8   5332246.72146  22123760.309    22123771.5624
  23096134.067    -9760088.904 8  -7596075.30946  23096134.079    23096145.3244
  21518577.441   -16059686.483 9 -12510346.68647  21518576.809    21518586.8144
  20036515.374    -3113578.994 9  -2433077.28648  20036514.819    20036522.6364
  23838824.416    -4954457.206 8  -3855212.11245  23838823.905    23838838.0474
  21753930.077     4502267.387 9   3348228.26447  21753930.177    21753938.2014
 00  2 29 17 37  0.0000000  0  8 02 27 19 26 07 08 11 13
  21234763.249    -4599527.905 9  -3592469.73548  21234762.610    21234770.8714
  20563674.287     -927759.804 9   -728326.71647  20563674.034    20563682.3774
  22137354.052     6930677.147 8   5387909.02346  22137353.789    22137365.1084
  23085249.895    -9817285.252 8  -7640643.83246  23085249.984    23085261.2094
  21505454.984   -16128645.044 9 -12564080.55847  21505454.394    21505464.3504
  20039157.235    -3099695.904 9  -2422259.32448  20039156.710    20039164.5034
  23834977.539    -4974672.856 8  -3870964.49945  23834977.039    23834991.2554
  21767781.395     4575056.172 9   3404946.67547  21767781.508    21767789.5744
 00  2 29 17 37 30.0000000  0  8 02 27 19 26 07 08 11 13
  21232970.404    -4608949.925 9  -3599811.59548  21232969.731    21232977.9824
  20569234.093     -898543.064 9   -705560.49347  20569233.756    20569242.1934
  22151002.954     7002402.368 8   5443798.65546  22151002.719    22151014.1264
  23074454.515    -9874014.605 8  -7684848.47446  23074454.767    23074465.8964
  21492399.057   -16197254.633 9 -12617542.50447  21492398.392    21492408.3214
  20041876.912    -3085404.226 9  -2411122.98448  20041876.388    20041884.1764
  23831210.202    -4994469.940 8  -3886390.76945  23831209.737    23831224.0144
  21781704.948     4648224.441 9   3461960.78047  21781705.049    21781713.1584
 00  2 29 17 38  0.0000000  0  8 02 27 19 26 07 08 11 13
  21231201.236    -4618247.098 9  -3607056.16848  21231200.546    21231208.8394
  20574869.106     -868931.275 9   -682486.41947  20574868.765    20574877.1234
  22164704.381     7074403.370 8   5499903.16446  22164704.174    22164715.5974
  23063746.638    -9930284.666 8  -7728695.23646  23063747.010    23063758.0564
  21479413.130   -16265496.073 9 -12670717.58047  21479412.442    21479422.3784
  20044676.745    -3070691.280 9  -2399658.38248  20044676.219    20044683.9924
  23827526.482    -5013827.776 8  -3901474.78345  23827526.037    23827540.1944
  21795701.230     4721774.597 9   3519272.46747  21795701.290    21795709.4354
 00  2 29 17 38 30.0000000  0  8 02 27 19 26 07 08 11 13
  21229455.796    -4627419.496 9  -3614203.51048  21229455.144    21229463.4434
  20580585.574     -838890.846 9   -659078.36347  20580585.287    20580593.6874
  22178459.854     7146688.134 8   5556228.79346  22178459.642    22178471.0114
  23053126.543    -9986093.982 8  -7772182.95246  23053126.822    23053137.8664
  21466500.607   -16333350.795 9 -12723591.32247  21466500.071    21466509.9744
  20047559.783    -3055541.180 9  -2387853.14148  20047559.253    20047567.0264
  23823927.857    -5032738.156 7  -3916210.08945  23823927.379    23823941.6164
  21809770.819     4795710.057 9   3576884.39147  21809770.790    21809778.9844
 00  2 29 17 39  0.0000000  0  8 02 27 19 26 07 08 11 13
  21227733.667    -4636469.503 9  -3621255.48248  21227733.006    21227741.3204
  20586387.551     -808401.246 9   -635320.28747  20586387.290    20586395.7054
  22192271.174     7219266.347 8   5612783.08146  22192270.960    22192282.1954
  23042596.548   -10041429.104 8  -7815301.18946  23042596.813    23042607.8514
  21453666.005   -16400797.312 9 -12776146.97747  21453665.416    21453675.2934
  20050525.392    -3039957.265 9  -2375709.87448  20050524.830    20050532.6504
  23820416.903    -5051187.902 8  -3930586.49645  23820416.539    23820430.8424
  21823914.076     4870033.452 9   3634798.59347  21823914.128    21823922.3704
 00  2 29 17 39 30.0000000  0  8 02 27 19 26 07 08 11 13
  21226035.163    -4645395.271 9  -3628210.64448  21226034.502    21226042.8154
  20592274.837     -777463.799 9   -611213.24747  20592274.525    20592283.0054
  22206138.592     7292139.492 8   5669567.18046  22206138.430    22206149.4994
  23032157.180   -10096288.034 8  -7858048.37646  23032157.509    23032168.5734
  21440910.517   -16467828.173 9 -12828378.74847  21440909.837    21440919.7014
  20053569.587    -3023960.006 9  -2363244.52248  20053569.033    20053576.8234
  23816993.837    -5069176.419 8  -3944603.51345  23816993.378    23817007.6184
  21838130.401     4944740.553 9   3693011.78947  21838130.517    21838138.7774
 00  2 29 17 40  0.0000000  0  8 02 27 19 26 07 08 11 13
  21224359.405    -4654201.525 9  -3635072.67348  21224358.742    21224367.0834
  20598248.264     -746073.289 9   -586753.16447  20598247.950    20598256.4774
  22220064.775     7365321.236 8   5726591.73746  22220064.549    22220075.6434
  23021806.619   -10150680.740 8  -7900432.26246  23021806.925    23021817.9414
  21428232.563   -16534451.012 9 -12880292.58147  21428231.874    21428241.7134
  20056688.803    -3007568.581 9  -2350472.02048  20056688.254    20056696.0314
  23813654.537    -5086723.871 8  -3958276.83845  23813654.081    23813668.5324
  21852416.851     5019815.907 9   3751511.93447  21852416.976    21852425.2714
 00  2 29 17 40 30.0000000  0  8 02 27 19 26 07 08 11 13
  21222708.092    -4662879.413 9  -3641834.67548  21222707.425    21222715.7514
  20604309.541     -714221.507 9   -561933.65847  20604309.243    20604317.8024
  22234052.208     7438824.873 8   5783867.11246  22234051.966    22234063.1284
  23011545.432   -10204604.219 8  -7942450.52346  23011545.599    23011556.6144
  21415632.462   -16600665.020 9 -12931887.84147  21415631.697    21415641.5484
  20059880.102    -2990798.342 9  -2337404.33748  20059879.574    20059887.3164
  23810396.040    -5103847.464 8  -3971619.89445  23810395.666    23810409.9184
  21866772.332     5095253.893 9   3810294.64947  21866772.458    21866780.7814
 00  2 29 17 41  0.0000000  0  8 02 27 19 26 07 08 11 13
  21221084.020    -4671414.066 9  -3648485.06148  21221083.370    21221091.7334
  20610455.918     -681922.364 9   -536765.55947  20610455.608    20610464.2134
  22248099.540     7512643.094 8   5841387.61346  22248099.231    22248110.5634
  23001370.985   -10258071.779 8  -7984113.51446  23001371.122    23001382.0724
  21403111.834   -16666460.780 9 -12983157.19447  21403111.085    21403120.9474
  20063142.247    -2973655.531 9  -2324046.34648  20063141.756    20063149.4974
  23807216.880    -5120554.263 8  -3984638.16445  23807216.527    23807230.6234
  21881196.702     5171053.226 9   3869358.93347  21881196.742    21881205.0514
 00  2 29 17 41 30.0000000  0  8 02 27 19 26 07 08 11 13
  21219490.875    -4679786.121 9  -3655008.74048  21219490.213    21219498.6314
  20616689.580     -649164.888 9   -511240.29947  20616689.233    20616697.8044
  22262209.009     7586788.285 8   5899162.90646  22262208.723    22262220.2064
  22991283.024   -10311085.193 8  -8025422.62846  22991283.016    22991293.8694
  21390671.005   -16731837.216 9 -13034099.80647  21390670.317    21390680.1754
  20066479.328    -2956119.124 9  -2310381.65848  20066478.856    20066486.6274
  23804119.720    -5136830.433 8  -3997320.90645  23804119.361    23804133.3004
  21895690.395     5247217.696 9   3928707.73747  21895690.509    21895698.7914
 00  2 29 17 42  0.0000000  0  8 02 27 19 26 07 08 11 13
  21217929.505    -4687991.166 9  -3661402.28648  21217928.844    21217937.2834
  20623011.634     -615942.275 9   -485352.60247  20623011.316    20623019.9144
  22276381.774     7661265.733 8   5957197.08846  22276381.501    22276393.0734
  22981282.256   -10363639.239 8  -8066373.80046  22981282.379    22981293.1104
  21378310.845   -16796790.166 9 -13084712.42847  21378310.154    21378320.0194
  20069895.966    -2938164.938 9  -2296391.42448  20069895.450    20069903.2444
  23801107.586    -5152659.042 8  -4009654.86845  23801107.236    23801121.2404
  21910255.760     5323758.829 9   3988350.03347  21910255.915    21910264.2384
 00  2 29 17 42 30.0000000  0  8 02 27 19 26 07 08 11 13
  21216403.913    -4696008.137 9  -3667649.28248  21216403.260    21216411.7274
  20629421.995     -582255.461 9   -459103.19947  20629421.719    20629430.3434
  22290615.354     7736062.933 8   6015480.43046  22290615.118    22290626.7694
  22971372.652   -10415713.562 8  -8106951.14146  22971372.950    22971383.6704
  21366033.444   -16861307.729 9 -13134985.78747  21366032.803    21366042.6724
  20073394.891    -2919778.214 9  -2282064.14648  20073394.368    20073402.2034
  23798183.431    -5168024.815 8  -4021628.16445  23798183.151    23798197.2304
  21924895.855     5400692.469 9   4048298.19547  21924896.010    21924904.4044
 00  2 29 17 43  0.0000000  0  8 02 27 19 26 07 08 11 13
  21214913.322    -4703840.923 9  -3673752.76648  21214912.692    21214921.1704
  20635916.282     -548127.742 9   -432510.23647  20635916.003    20635924.6634
  22304907.288     7811167.076 8   6074002.93546  22304907.054    22304918.7614
  22961557.004   -10467294.602 8  -8147144.10446  22961557.285    22961568.1254
  21353837.247   -16925398.736 9 -13184926.76647  21353836.667    21353846.5214
  20076978.810    -2900944.470 9  -2267388.54948  20076978.317    20076986.1674
  23795350.401    -5182912.341 8  -4033228.81945  23795350.122    23795363.9904
  21939614.003     5478036.908 9   4108566.45047  21939614.251    21939622.6954
 00  2 29 17 43 30.0000000  0  8 02 27 19 26 07 08 11 13
  21213452.776    -4711515.928 9  -3679733.30548  21213452.193    21213460.7034
  20642491.627     -513574.404 9   -405585.62347  20642491.370    20642500.0134
  22319255.547     7886566.803 8   6132755.76546  22319255.321    22319267.0144
  22951836.913   -10518373.420 8  -8186945.71046  22951837.214    22951848.1444
  21341718.354   -16989083.800 9 -13234551.42847  21341717.746    21341727.5874
  20080647.145    -2881667.518 9  -2252367.58948  20080646.628    20080654.4864
  23792609.877    -5197313.942 8  -4044450.82945  23792609.689    23792623.6354
  21954412.069     5555800.400 9   4169161.23547  21954412.246    21954420.7334
 00  2 29 17 44  0.0000000  0  8 02 27 19 26 07 08 11 13
  21212018.460    -4719053.616 9  -3685606.83648  21212017.846    21212026.3604
  20649142.571     -478624.039 9   -378351.62947  20649142.266    20649150.9034
  22333655.564     7962238.548 8   6191720.57346  22333655.362    22333667.0614
  22942210.563   -10568960.318 8  -8226364.00146  22942210.828    22942221.6884
  21329674.095   -17052376.565 9 -13283870.39647  21329673.504    21329683.3064
  20084397.334    -2861960.480 9  -2237011.48848  20084396.821    20084404.6584
  23789959.296    -5211243.079 8  -4055304.68845  23789959.033    23789972.9794
  21969288.286     5633974.862 9   4230076.25347  21969288.468    21969297.0284
 00  2 29 17 44 30.0000000  0  8 02 27 19 26 07 08 11 13
  21210608.164    -4726464.700 9  -3691381.71748  21210607.572    21210616.0664
  20655865.175     -443296.667 9   -350823.88547  20655864.912    20655873.5454
  22348107.083     8038180.878 8   6250896.20946  22348106.877    22348118.6604
  22932676.670   -10619061.060 8  -8265403.47846  22932676.928    22932687.7604
  21317701.772   -17115291.528 9 -13332894.98747  21317701.163    21317710.9114
  20088226.459    -2841838.502 9  -2221332.06648  20088225.940    20088233.7974
  23787398.277    -5224701.711 8  -4065791.92545  23787397.987    23787411.9654
  21984240.562     5712549.090 8   4291302.77147  21984240.766    21984249.3154
 00  2 29 17 45  0.0000000  0  8 02 27 19 26 07 08 11 13
  21209214.141    -4733790.461 9  -3697090.10848  21209213.527    21209222.0204
  20662656.433     -407608.704 9   -323015.15547  20662656.160    20662664.8074
  22362609.934     8114392.973 8   6310282.05946  22362609.727    22362621.5744
  22923230.478   -10668701.334 8  -8304084.14946  22923230.718    22923241.4664
  21305798.402   -17177844.058 9 -13381637.15947  21305797.783    21305807.5204
  20092133.902    -2821305.070 9  -2205332.03648  20092133.375    20092141.2284
  23784926.702    -5237689.843 8  -4075912.51645  23784926.408    23784940.4314
  21999264.103     5791497.516 8   4352820.87747  21999264.266    21999272.8244
 00  2 29 17 45 30.0000000  0  8 02 27 19 26 07 08 11 13
  21207836.212    -4741031.735 9  -3702732.66948  21207835.601    21207844.0794
  20669519.656     -371542.709 9   -294911.85247  20669519.379    20669528.0464
  22377164.846     8190878.422 8   6369880.90246  22377164.641    22377176.5004
  22913870.389   -10717889.474 8  -8342412.51146  22913870.538    22913881.2304
  21293964.313   -17240032.264 9 -13430095.44347  21293963.716    21293973.4434
  20096119.026    -2800363.483 9  -2189013.95548  20096118.526    20096126.3384
  23782542.447    -5250219.177 8  -4085675.61045  23782542.168    23782556.1854
  22014352.771     5870788.766 8   4414606.12547  22014352.980    22014361.5544
 00  2 29 17 46  0.0000000  0  8 02 27 19 26 07 08 11 13
  21206476.299    -4748178.462 9  -3708301.55848  21206475.662    21206484.1074
  20676459.393     -335074.700 9   -266495.29147  20676459.095    20676467.7784
  22391773.623     8267646.962 8   6429700.34646  22391773.328    22391785.3294
  22904596.446   -10766623.248 8  -8380386.82346  22904596.708    22904607.4804
  21282201.691   -17301844.869 9 -13478261.05247  21282201.109    21282210.8334
  20100181.298    -2779016.339 9  -2172379.86048  20100180.814    20100188.6134
  23780244.167    -5262297.553 8  -4095087.31645  23780243.800    23780257.7444
  22029504.802     5950412.755 8   4476650.63747  22029505.081    22029513.6614
 00  2 29 17 46 30.0000000  0  8 02 27 19 26 07 08 11 13
  21205135.582    -4755224.231 9  -3713791.77848  21205134.921    21205143.3604
  20683480.421     -298179.055 9   -237745.50347  20683480.154    20683488.8364
  22406438.627     8344711.627 8   6489750.51946  22406438.336    22406450.4584
  22895410.798   -10814894.220 8  -8418000.50746  22895410.967    22895421.7634
  21270511.740   -17363276.122 9 -13526129.50147  21270511.112    21270520.8314
  20104321.766    -2757258.368 9  -2155425.63848  20104321.258    20104329.0634
  23778031.424    -5273924.689 8  -4104147.38745  23778031.131    23778045.1764
  22044719.828     6030367.448 8   4538952.83647  22044720.098    22044728.6744
 00  2 29 17 47  0.0000000  0  8 02 27 19 26 07 08 11 13
  21203817.880    -4762148.917 9  -3719187.65248  21203817.223    21203825.6674
  20690587.768     -260830.247 9   -208642.60947  20690587.464    20690596.1774
  22421160.087     8422073.727 8   6550032.49846  22421159.894    22421172.2674
  22886314.260   -10862697.122 8  -8455249.47146  22886314.355    22886325.1044
  21258898.815   -17424302.014 9 -13573682.09147  21258898.221    21258907.8924
  20108542.224    -2735079.912 9  -2138143.76848  20108541.726    20108549.5194
  23775902.201    -5285113.987 7  -4112866.28945  23775901.856    23775915.9294
  22059998.904     6110658.623 8   4601517.22847  22059999.100    22060007.6954
 00  2 29 17 47 30.0000000  0  8 02 27 19 26 07 08 11 13
  21202529.566    -4768919.058 9  -3724463.10748  21202528.885    21202537.3444
  20697785.434     -223006.107 9   -179169.32947  20697785.191    20697793.9184
  22435941.586     8499750.741 8   6610559.84446  22435941.401    22435953.9434
  22877310.156   -10910013.621 8  -8492119.44246  22877310.298    22877320.9714
  21247368.694   -17484893.231 9 -13620895.97047  21247368.103    21247377.7204
  20112842.300    -2712483.036 9  -2120535.86248  20112841.789    20112849.6274
  23773856.752    -5295862.558 8  -4121241.76845  23773856.411    23773870.5494
  22075344.806     6191301.419 8   4664355.61147  22075345.017    22075353.6934
 00  2 29 17 48  0.0000000  0  8 02 27 19 26 07 08 11 13
  21201271.124    -4775532.072 9  -3729616.12948  21201270.476    21201278.9024
  20705073.407     -184708.309 9   -149326.95947  20705073.126    20705081.8234
  22450784.529     8577750.291 8   6671338.50746  22450784.365    22450796.8634
  22868398.446   -10956844.908 8  -8528611.30846  22868398.547    22868409.2314
  21235924.691   -17545031.602 9 -13667756.98647  21235924.106    21235933.6894
  20117222.945    -2689462.840 9  -2102598.09348  20117222.407    20117230.2884
  23771897.507    -5306158.791 7  -4129264.75445  23771897.049    23771911.2844
  22090759.924     6272308.076 8   4727477.52147  22090760.175    22090768.8924
 00  2 29 17 48 30.0000000  0  8 02 27 19 26 07 08 11 13
  21200042.444    -4781988.980 9  -3734647.50448  21200041.757    21200050.2014
  20712449.769     -145945.768 9   -119122.45647  20712449.469    20712458.1794
  22465688.893     8656072.221 8   6732368.36746  22465688.717    22465701.1024
  22859581.405   -11003178.737 8  -8564715.53646  22859581.491    22859592.1734
  21224570.550   -17604697.810 9 -13714250.07647  21224569.956    21224579.5644
  20121686.252    -2666008.099 9  -2084321.70848  20121685.757    20121693.6134
  23770026.094    -5315992.321 8  -4136927.26345  23770025.783    23770039.8804
  22106243.409     6353673.528 8   4790879.02047  22106243.656    22106252.4024
 00  2 29 17 49  0.0000000  0  8 02 27 19 26 07 08 11 13
  21198841.175    -4788301.520 9  -3739566.39348  21198840.528    21198848.9614
  20719912.718     -106728.379 9    -88563.52447  20719912.373    20719921.0744
  22480653.641     8734711.670 8   6793645.65346  22480653.487    22480665.7944
  22850860.193   -11049009.429 8  -8600427.73246  22850860.199    22850870.8644
  21213308.534   -17663879.953 9 -13760365.98147  21213307.943    21213317.5484
  20126232.079    -2642119.887 9  -2065707.56648  20126231.570    20126239.3964
  23768244.552    -5325353.940 8  -4144221.99345  23768244.217    23768258.5294
  22121794.460     6435393.778 8   4854556.97147  22121794.640    22121803.4164
 00  2 29 17 49 30.0000000  0  8 02 27 19 26 07 08 11 13
  21197663.617    -4794489.553 9  -3744388.25548  21197663.003    21197671.4114
  20727462.185      -67055.687 9    -57649.80847  20727461.877    20727470.5814
  22495677.285     8813660.384 8   6855163.92346  22495677.127    22495689.3984
  22842235.166   -11094333.968 8  -8635745.50546  22842235.150    22842245.8334
  21202134.433   -17722599.919 9 -13806121.75147  21202133.808    21202143.4084
  20130859.655    -2617801.825 9  -2046758.48548  20130859.146    20130867.0054
  23766555.299    -5334231.474 7  -4151139.53845  23766554.907    23766569.1584
  22137411.486     6517460.435 8   4918504.86047  22137411.558    22137420.3694
 00  2 29 17 50  0.0000000  0  8 02 27 19 26 07 08 11 13
  21196507.829    -4800563.662 9  -3749121.35148  21196507.193    21196515.5974
  20735095.105      -26944.983 9    -26394.78747  20735094.742    20735103.4694
  22510756.446     8892901.521 8   6916910.06246  22510756.278    22510768.7334
  22833707.332   -11139146.946 8  -8670664.66446  22833707.413    22833718.1624
  21191043.199   -17780884.853 9 -13851538.52947  21191042.517    21191052.0944
  20135568.517    -2593056.583 9  -2027476.53548  20135567.996    20135575.9144
  23764956.590    -5342632.536 8  -4157685.80045  23764956.213    23764970.6054
  22153093.447     6599868.463 8   4982718.75647  22153093.422    22153102.2954
 00  2 29 17 50 30.0000000  0  8 02 27 19 26 07 08 11 13
  21195373.931    -4806522.222 9  -3753764.41848  21195373.308    21195381.7584
  20742808.840       13590.705 9      5191.37947  20742808.502    20742817.2334
  22525890.280     8972429.091 8   6978879.38346  22525890.130    22525902.5374
  22825276.818   -11183449.559 8  -8705186.12746  22825276.850    22825287.5314
  21180030.775   -17838755.548 9 -13896632.52347  21180030.060    21180039.6484
  20140358.105    -2567887.420 9  -2007864.26248  20140357.551    20140365.5314
  23763446.300    -5350569.167 7  -4163870.17345  23763445.918    23763460.1744
  22168837.030     6682600.872 8   5047185.41247  22168836.953    22168845.8774
 00  2 29 17 51  0.0000000  0  8 02 27 19 26 07 08 11 13
  21194266.425    -4812342.437 9  -3758299.67848  21194265.805    21194274.2314
  20750603.529       54552.010 9     37109.19847  20750603.216    20750612.0264
  22541078.738     9052243.773 8   7041072.41946  22541078.527    22541090.9754
  22816940.626   -11227256.762 8  -8739321.56746  22816940.631    22816951.2824
  21169093.627   -17896230.017 9 -13941417.76647  21169092.972    21169102.5694
  20145228.766    -2542292.200 9  -1987919.98548  20145228.229    20145236.2464
  23762023.865    -5358044.156 7  -4169694.85845  23762023.423    23762037.6174
  22184641.722     6765654.797 8   5111902.60047  22184641.712    22184650.6524
 00  2 29 17 51 30.0000000  0  8 02 27 19 26 07 08 11 13
  21193188.873    -4818005.087 9  -3762712.15948  21193188.241    21193196.6854
  20758479.370       95939.950 9     69359.45447  20758479.084    20758487.9644
  22556323.168     9132353.045 8   7103495.00446  22556323.002    22556335.4854
  22808699.930   -11270561.159 8  -8773065.20146  22808700.006    22808710.6684
  21158233.136   -17953301.712 9 -13985889.15747  21158232.560    21158242.1034
  20150182.110    -2516262.303 9  -1967636.99248  20150181.590    20150189.5884
  23760689.976    -5365053.224 8  -4175156.46845  23760689.566    23760703.8044
  22200508.346     6849033.735 8   5176873.03447  22200508.337    22200517.2604
 00  2 29 17 52  0.0000000  0  8 02 27 19 26 07 08 11 13
  21192142.535    -4823503.405 9  -3766996.59048  21192141.925    21192150.4394
  20766434.230      137742.642 9    101932.89047  20766433.937    20766442.7844
  22571626.222     9212769.656 8   7166157.07546  22571625.978    22571638.4014
  22800555.440   -11313360.087 8  -8806414.96546  22800555.594    22800566.3024
  21147451.905   -18009957.701 9 -14030036.62347  21147451.254    21147460.7394
  20155220.414    -2489786.054 9  -1947006.20248  20155219.892    20155227.9034
  23759445.208    -5371595.458 7  -4180254.30245  23759444.649    23759458.9214
  22216435.772     6932731.874 8   5242092.20047  22216435.751    22216444.6274
 00  2 29 17 52 30.0000000  0  8 02 27 19 26 07 08 11 13
  21191127.779    -4828836.238 9  -3771152.06748  21191127.158    21191135.6914
  20774470.795      179974.832 9    134840.99747  20774470.503    20774479.4434
  22586988.532     9293498.323 8   7229062.30846  22586988.343    22587000.7614
  22792506.404   -11355657.522 8  -8839373.94546  22792506.586    22792517.2674
  21136751.567   -18066188.137 9 -14073852.48747  21136750.912    21136760.3624
  20160345.615    -2462853.208 9  -1926019.62348  20160345.093    20160353.0844
  23758291.539    -5377657.667 8  -4184978.12745  23758291.067    23758305.3664
  22232424.483     7016752.098 8   5307562.33146  22232424.392    22232433.2924
 00  2 29 17 53  0.0000000  0  8 02 27 19 26 07 08 11 13
  21190140.266    -4834025.798 9  -3775195.90048  21190139.641    21190148.2014
  20782592.543      222655.306 9    168098.42147  20782592.340    20782601.3844
  22602409.380     9374534.485 8   7292207.13746  22602409.167    22602421.6424
  22784554.231   -11397446.654 8  -8871936.85246  22784554.342    22784564.9864
  21126134.773   -18121979.753 9 -14117326.41547  21126134.112    21126143.5574
  20165557.393    -2435465.419 9  -1904678.53548  20165556.866    20165564.8514
  23757230.264    -5383235.753 8  -4189324.71245  23757229.633    23757243.8604
  22248477.711     7101111.718 8   5373296.94646  22248477.639    22248486.5664
 00  2 29 17 53 30.0000000  0  8 02 27 19 26 07 08 11 13
  21189174.736    -4839099.804 9  -3779149.68848  21189174.120    21189182.7034
  20790797.375      265771.136 9    201695.08747  20790797.100    20790806.0614
  22617887.484     9455871.929 8   7355586.74046  22617887.272    22617899.9234
  22776700.157   -11438719.964 8  -8904097.83946  22776700.308    22776710.9044
  21115602.147   -18177328.369 9 -14160455.15147  21115601.533    21115611.0024
  20170852.377    -2407640.192 9  -1882996.58748  20170851.860    20170859.8774
  23756260.809    -5388329.721 8  -4193294.07245  23756260.322    23756274.5214
  22264594.410     7185805.630 8   5439292.03146  22264594.442    22264603.4484
 00  2 29 17 54  0.0000000  0  8 02 27 19 26 07 08 11 13
  21188229.120    -4844069.192 9  -3783021.95248  21188228.495    21188237.1024
  20799084.248      309318.311 9    235627.87247  20799083.964    20799092.9384
  22633421.311     9537501.711 8   7419194.12946  22633421.118    22633433.8404
  22768941.714   -11479489.666 8  -8935866.37446  22768942.019    22768952.7344
  21105150.670   -18232250.831 9 -14203251.82047  21105150.089    21105159.5734
  20176226.118    -2379401.013 9  -1860992.06948  20176225.630    20176233.6794
  23755381.806    -5392949.287 8  -4196893.77145  23755381.232    23755395.3454
  22280772.532     7270821.584 8   5505538.06946  22280772.562    22280781.5984
 00  2 29 17 54 30.0000000  0  8 02 27 19 26 07 08 11 13
  21187302.349    -4848939.236 9  -3786816.81448  21187301.726    21187310.3834
  20807452.995      353296.398 9    269896.41447  20807452.740    20807461.7884
  22649006.573     9619401.527 8   7483011.92946  22649006.398    22649019.0914
  22761276.685   -11519770.116 8  -8967253.68546  22761276.856    22761287.5794
  21094779.287   -18286752.852 9 -14245720.87547  21094778.719    21094788.1774
  20181676.103    -2350761.246 9  -1838675.40648  20181675.626    20181683.7474
  23754592.777    -5397095.789 8  -4200124.84645  23754592.208    23754606.5154
  22297010.293     7356150.570 8   5572028.02246  22297010.241    22297019.3814
 00  2 29 17 55  0.0000000  0  8 02 27 19 26 07 08 11 13
  21186394.820    -4853708.263 9  -3790532.95748  21186394.234    21186402.8824
  20815903.927      397706.096 9    304501.28047  20815903.699    20815912.7024
  22664640.332     9701556.114 8   7547028.24846  22664640.056    22664652.8234
  22753705.859   -11559555.007 8  -8998254.85646  22753706.028    22753716.7474
  21084490.968   -18340818.581 9 -14287849.96147  21084490.361    21084499.7714
  20187200.481    -2321730.586 9  -1816054.15148  20187199.992    20187208.1664
  23753895.154    -5400761.306 8  -4202981.14645  23753894.671    23753908.9214
  22313304.291     7441775.030 8   5638748.20646  22313304.091    22313313.4034
 00  2 29 17 55 30.0000000  0  8 02 27 19 26 07 08 11 13
  21185510.314    -4858356.683 9  -3794155.11248  21185509.707    21185518.3344
  20824436.750      442545.679 9    339441.12147  20824436.473    20824445.4994
  22680321.521     9783961.207 8   7611239.78146  22680321.360    22680334.1464
  22746231.002   -11598835.474 8  -9028862.96346  22746231.202    22746241.9124
  21074283.015   -18394462.166 9 -14329650.10247  21074282.328    21074291.7024
  20192798.615    -2292312.496 9  -1793130.99847  20192798.097    20192806.3064
  23753291.271    -5403934.913 8  -4205454.12845  23753290.828    23753305.1254
  22329649.978     7527671.900 8   5705680.65546  22329649.835    22329659.2814
 00  2 29 17 56  0.0000000  0  8 02 27 19 26 07 08 11 13
  21184650.385    -4862875.970 9  -3797676.63848  21184649.762    21184658.3794
  20833054.436      487832.029 9    374729.09947  20833054.177    20833063.2784
  22696050.699     9866617.750 8   7675647.22446  22696050.581    22696063.3094
  22738851.738   -11637614.123 8  -9059080.04946  22738851.851    22738862.5264
  21064154.542   -18447687.155 9 -14371124.06447  21064153.890    21064163.2694
  20198472.781    -2262494.292 9  -1769896.07647  20198472.299    20198480.5834
  23752779.280    -5406625.741 8  -4207550.92245  23752778.773    23752793.1014
  22346046.006     7613833.742 8   5772819.57146  22346045.964    22346055.5344
 00  2 29 17 56 30.0000000  0  8 02 27 19 26 07 08 11 13
  21183816.541    -4867257.798 9  -3801091.05348  21183815.929    21183824.5524
  20841759.849      533579.213 9    410376.16647  20841759.620    20841768.7514
  22711827.687     9949524.772 8   7740249.86246  22711827.429    22711840.2104
  22731569.502   -11675882.354 8  -9088899.40446  22731569.632    22731580.2854
  21054109.546   -18500473.147 9 -14412255.96047  21054108.994    21054118.3954
  20204227.078    -2232255.076 9  -1746333.10347  20204226.595    20204234.9144
  23752361.368    -5408821.757 8  -4209262.14945  23752360.923    23752375.2134
  22362494.676     7700272.308 8   5840174.11146  22362494.797    22362504.3594
 00  2 29 17 57  0.0000000  0  8 02 27 19 26 07 08 11 13
  21183010.892    -4871491.562 9  -3804390.08948  21183010.267    21183018.8654
  20850553.508      579789.484 9    446384.07847  20850553.252    20850562.4064
  22727656.454    10032704.694 8   7805065.15646  22727656.191    22727669.1054
  22724388.313   -11713619.217 8  -9118304.70146  22724388.463    22724399.0914
  21044149.328   -18552814.026 9 -14453041.01547  21044148.769    21044158.1644
  20210061.760    -2201593.509 9  -1722441.02247  20210061.316    20210069.6844
  23752036.655    -5410527.564 8  -4210591.38945  23752036.366    23752050.6664
  22378998.331     7786999.394 8   5907753.46646  22378998.551    22379008.1754
 00  2 29 17 57 30.0000000  0  8 02 27 19 26 07 08 11 13
  21182231.883    -4875585.590 9  -3807580.23748  21182231.266    21182239.8214
  20859431.898      626445.107 9    482739.01447  20859431.606    20859440.7954
  22743541.463    10116179.582 8   7870110.27146  22743541.184    22743554.1174
  22717305.768   -11750837.532 8  -9147305.93246  22717306.056    22717316.6174
  21034270.814   -18604725.916 9 -14493491.78847  21034270.178    21034279.5474
  20215978.931    -2170498.970 9  -1698211.55647  20215978.469    20215986.8434
  23751801.630    -5411763.878 7  -4211554.80045  23751801.241    23751815.4834
  22395556.687     7874013.010 8   5975556.09246  22395556.848    22395566.4904
 00  2 29 17 58  0.0000000  0  8 02 27 19 26 07 08 11 13
  21181479.806    -4879538.114 9  -3810660.12648  21181479.157    21181487.6744
  20868393.787      673539.764 9    519436.06647  20868393.512    20868402.7014
  22759483.023    10199952.475 8   7935387.61646  22759482.668    22759495.8244
  22710320.547   -11787545.371 8  -9175909.39846  22710320.743    22710331.2654
  21024479.274   -18656180.177 9 -14533585.97347  21024478.686    21024488.0244
  20221981.797    -2138953.824 9  -1673630.97147  20221981.303    20221989.6744
  23751657.909    -5412518.584 8  -4212142.92345  23751657.719    23751671.8454
  22412172.806     7961329.454 8   6043594.70046  22412172.775    22412182.4514
 00  2 29 17 58 30.0000000  0  8 02 27 19 26 07 08 11 13
  21180753.065    -4883356.944 9  -3813635.84348  21180752.420    21180760.9704
  20877436.426      721058.620 9    556463.65347  20877436.112    20877445.3354
  22775479.949    10284016.435 8   8000891.76046  22775479.613    22775492.8874
  22703433.450   -11823737.293 8  -9204110.86546  22703433.600    22703444.1014
  21014776.509   -18707168.599 9 -14573317.17047  21014775.903    21014785.1864
  20228069.721    -2106961.839 9  -1648702.19747  20228069.199    20228077.5594
  23751608.578    -5412778.041 8  -4212345.07745  23751608.244    23751622.5024
  22428847.268     8048952.916 8   6111872.53746  22428847.152    22428856.8604
 00  2 29 17 59  0.0000000  0  8 02 27 19 26 07 08 11 13
  21180050.302    -4887049.866 9  -3816513.44648  21180049.677    21180058.2274
  20886557.471      768989.633 9    593812.40447  20886557.147    20886566.3464
  22791533.923    10368380.735 8   8066629.93446  22791533.739    22791547.0994
  22696645.886   -11859406.693 8  -9231905.15946  22696645.939    22696656.3944
  21005160.895   -18757699.361 9 -14612691.74247  21005160.250    21005169.5054
  20234243.041    -2074520.798 9  -1623423.51847  20234242.605    20234250.9844
  23751653.475    -5412542.444 8  -4212161.53545  23751653.302    23751667.3484
  22445578.017     8136872.658 8   6180381.23846  22445577.870    22445587.5944
 00  2 29 17 59 30.0000000  0  8 02 27 19 26 07 08 11 13
  21179369.425    -4890628.085 9  -3819301.66548  21179368.788    21179377.3264
  20895756.343      817329.073 9    631479.40147  20895755.969    20895765.0924
  22807640.660    10453020.967 8   8132583.11746  22807640.409    22807653.9134
  22689955.831   -11894563.285 8  -9259299.87846  22689955.881    22689966.3074
  20995630.873   -18807780.116 9 -14651715.66147  20995630.178    20995639.4254
  20240502.741    -2041626.765 9  -1597791.85347  20240502.242    20240510.5414
  23751794.047    -5411803.785 8  -4211585.94145  23751793.805    23751808.0564
  22462363.219     8225079.405 8   6249113.56646  22462363.199    22462372.9454
 00  2 29 18  0  0.0000000  0  8 02 27 19 26 07 08 11 13
  21178710.970    -4894088.397 9  -3821998.00948  21178710.334    21178718.8644
  20905033.632      866080.863 9    669467.71047  20905033.236    20905042.3214
  22823796.726    10537919.943 8   8198737.90246  22823796.344    22823809.9594
  22683364.744   -11929199.797 8  -9286289.33046  22683364.784    22683375.1874
  20986186.801   -18857409.190 9 -14690387.61847  20986186.076    20986195.2994
  20246845.779    -2008294.052 9  -1571818.37747  20246845.260    20246853.5404
  23752030.921    -5410559.580 8  -4210616.44745  23752030.761    23752044.6874
  22479205.431     8313585.594 8   6318079.22546  22479205.529    22479215.2724
 00  2 29 18  0 30.0000000  0  8 02 27 19 26 07 08 11 13
  21178073.110    -4897440.610 9  -3824610.12248  21178072.446    21178080.9504
  20914387.990      915238.124 9    707771.97347  20914387.621    20914396.7324
  22840003.510    10623086.161 8   8265100.96546  22840003.155    22840016.7794
  22676872.619   -11963315.479 8  -9312872.93846  22676872.758    22676883.1234
  20976824.291   -18906609.319 9 -14728725.33447  20976823.607    20976832.7794
  20253270.525    -1974532.266 9  -1545510.55047  20253270.003    20253278.2224
  23752360.413    -5408828.239 8  -4209267.33645  23752360.173    23752374.2884
  22496102.157     8402377.757 8   6387267.72846  22496102.242    22496111.9954
 00  2 29 18  1  0.0000000  0  8 02 27 19 26 07 08 11 13
  21177454.758    -4900690.038 9  -3827142.15248  21177454.094    21177462.6094
  20923821.555      964811.884 9    746400.78047  20923821.200    20923830.4454
  22856260.311    10708515.125 8   8331668.74646  22856259.990    22856273.5874
  22670478.332   -11996917.737 8  -9339056.48646  22670478.404    22670488.8314
  20967541.735   -18955389.453 9 -14766735.78147  20967540.994    20967550.1774
  20259777.992    -1940335.756 9  -1518863.96747  20259777.448    20259785.6504
  23752780.141    -5406622.947 8  -4207548.90645  23752779.784    23752793.8934
  22513051.140     8491444.934 8   6456670.54246  22513051.309    22513061.0544
 00  2 29 18  1 30.0000000  0  8 02 27 19 26 07 08 11 13
  21176857.833    -4903826.918 9  -3829586.48148  21176857.167    21176865.7174
  20933336.894     1014814.944 9    785364.10347  20933336.552    20933345.7794
  22872567.367    10794208.850 8   8398442.84046  22872567.151    22872580.6604
  22664181.276   -12030008.408 8  -9364841.39246  22664181.434    22664191.9234
  20958341.422   -19003737.339 9 -14804409.40447  20958340.643    20958349.8274
  20266368.581    -1905702.381 9  -1491876.97247  20266368.055    20266376.2044
  23753290.104    -5403942.976 8  -4205460.65245  23753289.889    23753303.8764
  22530052.434     8580786.041 8   6526286.80346  22530052.529    22530062.2404
 00  2 29 18  2  0.0000000  0  8 02 27 19 26 07 08 11 13
  21176283.775    -4906843.731 9  -3831937.25748  21176283.104    21176291.6374
  20942935.843     1065257.184 9    824669.64547  20942935.467    20942944.6784
  22888927.097    10880178.068 8   8465431.59946  22888926.815    22888940.4154
  22657982.068   -12062585.027 8  -9390225.74946  22657982.285    22657992.7284
  20949228.015   -19051628.448 9 -14841727.10048  20949227.222    20949236.3814
  20273042.378    -1870631.346 9  -1464548.95147  20273041.875    20273050.0754
  23753890.853    -5400785.915 8  -4203000.58545  23753890.574    23753904.6364
  22547104.496     8670393.968 8   6596110.95946  22547104.544    22547114.2244
 00  2 29 18  2 30.0000000  0  8 02 27 19 26 07 08 11 13
  21175735.238    -4909726.489 9  -3834183.57148  21175734.564    21175743.0454
  20952623.572     1116166.730 9    864339.32847  20952623.290    20952632.5604
  22905339.881    10966426.162 8   8532637.65246  22905339.613    22905353.0564
  22651883.104   -12094635.148 8  -9415199.84146  22651883.378    22651893.7094
  20940203.378   -19099053.084 9 -14878681.30348  20940202.589    20940211.7284
  20279801.216    -1835113.997 9  -1436873.14647  20279800.656    20279808.8324
  23754584.492    -5397140.895 8  -4200160.32145  23754584.054    23754598.3394
  22564205.171     8760258.270 8   6666134.89646  22564205.325    22564215.0104
 00  2 29 18  3  0.0000000  0  8 02 27 19 26 07 08 11 13
  21175215.499    -4912457.756 9  -3836311.84348  21175214.824    21175223.2884
  20962403.658     1167560.982 9    904386.69847  20962403.400    20962412.6404
  22921803.911    11052944.041 8   8600053.93446  22921803.695    22921817.0534
  22645886.603   -12126147.089 8  -9439754.58246  22645886.829    22645897.1044
  20931270.503   -19145995.376 9 -14915259.65348  20931269.754    20931278.8854
  20286644.337    -1799153.330 9  -1408851.90047  20286643.789    20286651.9844
  23755373.274    -5392995.889 8  -4196930.44445  23755372.858    23755387.0084
  22581357.194     8850392.047 8   6736368.81946  22581357.402    22581367.1004
 00  2 29 18  3 30.0000000  0  8 02 27 19 26 07 08 11 13
  21174727.761    -4915021.106 9  -3838309.27548  21174727.071    21174735.5344
  20972273.196     1219425.246 9    944800.32747  20972272.907    20972282.1644
  22938318.763    11139729.976 8   8667679.10746  22938318.553    22938332.1854
  22639993.287   -12157116.643 8  -9463886.67546  22639993.459    22640003.7094
  20922430.032   -19192452.042 9 -14951459.59148  20922429.294    20922438.4084
  20293568.969    -1762764.580 9  -1380497.07947  20293568.395    20293576.5594
  23756259.657    -5388337.625 8  -4193300.61245  23756259.274    23756273.5224
  22598560.966     8940798.139 8   6806814.92246  22598561.231    22598571.0074
 00  2 29 18  4  0.0000000  0  8 02 27 19 26 07 08 11 13
  21174272.349    -4917414.425 9  -3840174.21448  21174271.667    21174280.1094
  20982231.249     1271754.462 9    985576.23047  20982230.924    20982240.2754
  22954882.421    11226771.630 8   8735503.52345  22954882.116    22954895.8734
  22634204.370   -12187537.719 8  -9487591.39346  22634204.486    22634214.8134
  20913678.808   -19238439.647 9 -14987294.03248  20913678.162    20913687.2384
  20300574.917    -1725948.276 9  -1351809.10347  20300574.365    20300582.4804
  23757243.978    -5383165.402 8  -4189270.30645  23757243.503    23757257.6624
  22615817.101     9031478.679 8   6877474.88446  22615817.315    22615827.1964
 00  2 29 18  4 30.0000000  0  8 02 27 19 26 07 08 11 13
  21173846.800    -4919650.580 9  -3841916.69248  21173846.131    21173854.5654
  20992274.167     1324529.812 9   1026699.76747  20992273.851    20992283.2784
  22971496.118    11314076.189 8   8803532.79945  22971495.784    22971509.6294
  22628518.716   -12217415.501 8  -9510872.75646  22628518.893    22628529.2784
  20905009.904   -19283995.003 9 -15022791.65148  20905009.204    20905018.2854
  20307660.770    -1688712.234 9  -1322794.05847  20307660.239    20307668.3454
  23758324.371    -5377488.024 8  -4184846.34145  23758323.954    23758338.1414
  22633124.862     9122430.685 8   6948346.36646  22633125.003    22633135.0214
 00  2 29 18  5  0.0000000  0  8 02 27 19 26 07 08 11 13
  21173447.245    -4921750.310 9  -3843552.86548  21173446.568    21173455.0324
  21002394.690     1377712.804 9   1068140.96747  21002394.395    21002403.7414
  22988158.999    11401640.789 8   8871764.71745  22988158.799    22988172.8754
  22622932.758   -12246770.265 8  -9533746.58646  22622932.909    22622943.3174
  20896420.656   -19329131.378 9 -15057962.79748  20896419.960    20896429.0534
  20314827.326    -1651051.931 9  -1293448.42347  20314826.808    20314834.9594
  23759499.069    -5371315.417 8  -4180036.51345  23759498.462    23759512.8304
  22650482.776     9213646.116 8   7019423.12246  22650482.867    22650492.9574
 00  2 29 18  5 30.0000000  0  8 02 27 19 26 07 08 11 13
  21173071.146    -4923726.582 9  -3845092.84048  21173070.478    21173078.9424
  21012591.787     1431298.235 9   1109895.76547  21012591.436    21012600.7774
  23004871.409    11489464.747 8   8940198.69145  23004871.278    23004885.4414
  22617444.383   -12275611.521 8  -9556220.25846  22617444.579    22617454.9344
  20887907.730   -19373866.479 9 -15092821.26248  20887907.083    20887916.1794
  20322075.255    -1612963.752 9  -1263769.37747  20322074.730    20322082.9384
  23760767.598    -5364649.521 8  -4174842.32245  23760767.074    23760781.2904
  22667887.179     9305106.065 8   7090690.42246  22667887.268    22667897.4554
 00  2 29 18  6  0.0000000  0  8 02 27 19 26 07 08 11 13
  21172714.019    -4925603.535 9  -3846555.42748  21172713.345    21172721.8214
  21022867.203     1485296.254 9   1151972.05347  21022866.912    21022876.3394
  23021634.617    11577554.605 8   9008839.87045  23021634.474    23021648.6934
  22612053.878   -12303938.614 8  -9578293.30346  22612054.041    22612064.3394
  20879469.158   -19418211.332 9 -15127375.64748  20879468.535    20879477.6154
  20329404.922    -1574446.157 9  -1233755.72247  20329404.406    20329412.6514
  23762127.196    -5357503.687 8  -4169274.13345  23762126.691    23762140.9644
  22685336.621     9396802.473 8   7162141.96546  22685336.698    22685346.9404
 00  2 29 18  6 30.0000000  0  8 02 27 19 26 07 08 11 13
  21172371.680    -4927402.535 9  -3847957.26848  21172371.012    21172379.5364
  21033221.021     1539705.665 9   1194368.90647  21033220.684    21033230.2204
  23038446.244    11665900.614 8   9077680.65545  23038446.255    23038460.5954
  22606760.157   -12331757.449 8  -9599970.28946  22606760.306    22606770.5714
  20871105.769   -19462161.343 9 -15161622.35948  20871105.105    20871114.1644
  20336813.924    -1535511.822 9  -1203417.33347  20336813.387    20336821.6874
  23763576.622    -5349887.508 8  -4163339.42845  23763576.129    23763590.3854
  22702829.028     9488724.400 8   7233769.24646  22702829.028    22702839.3114
 00  2 29 18  7  0.0000000  0  8 02 27 19 26 07 08 11 13
  21172044.475    -4929122.122 9  -3849297.23048  21172043.819    21172052.3524
  21043655.729     1594540.627 9   1237097.36247  21043655.470    21043665.0754
  23055300.980    11754470.583 8   9146695.92146  23055300.907    23055315.2214
  22601564.716   -12359060.790 8  -9621245.60646  22601564.712    22601574.9094
  20862822.279   -19505691.133 9 -15195541.63148  20862821.589    20862830.6524
  20344301.770    -1496162.877 9  -1172755.86847  20344301.283    20344309.5424
  23765116.790    -5341793.843 8  -4157032.70145  23765116.332    23765130.5044
  22720361.658     9580858.329 8   7305561.73046  22720361.690    22720372.0064
 00  2 29 18  7 30.0000000  0  8 02 27 19 26 07 08 11 13
  21171732.991    -4930759.145 9  -3850572.85648  21171732.295    21171740.8414
  21054174.895     1649818.490 9   1280170.91747  21054174.628    21054184.1764
  23072200.055    11843274.602 8   9215893.61345  23072199.898    23072214.3914
  22596469.303   -12385837.084 8  -9642110.22746  22596469.340    22596479.5234
  20854623.316   -19548776.752 9 -15229114.80248  20854622.655    20854631.6914
  20351867.113    -1456407.010 9  -1141777.33247  20351866.626    20351874.9074
  23766747.758    -5333223.504 8  -4150354.51945  23766747.253    23766761.3904
  22737933.204     9673197.441 8   7377514.07746  22737933.396    22737943.7004
 00  2 29 18  8  0.0000000  0  8 02 27 19 26 07 08 11 13
  21171438.004    -4932309.319 9  -3851780.80348  21171437.299    21171445.8304
  21064778.800     1705541.452 9   1323591.32747  21064778.497    21064787.9354
  23089146.666    11932328.702 8   9285286.12145  23089146.616    23089161.0514
  22591475.229   -12412080.742 8  -9662559.80746  22591475.347    22591485.5624
  20846515.918   -19591381.099 9 -15262312.95148  20846515.278    20846524.2714
  20359512.014    -1416233.047 9  -1110473.00247  20359511.513    20359519.7774
  23768467.342    -5324186.531 8  -4143312.71245  23768466.903    23768481.0514
  22755545.392     9765749.740 8   7449632.54346  22755545.614    22755555.9794
 00  2 29 18  8 30.0000000  0  8 02 27 19 26 07 08 11 13
  21171164.500    -4933746.653 9  -3852900.82748  21171163.828    21171172.3494
  21075466.289     1761704.205 9   1367354.41747  21075465.978    21075475.4494
  23106142.411    12021641.121 8   9354879.96045  23106142.370    23106156.9984
  22586583.425   -12437787.482 8  -9682590.99046  22586583.474    22586593.7514
  20838505.374   -19633476.771 9 -15295114.72948  20838504.734    20838513.7184
  20367240.166    -1375621.577 9  -1078827.76647  20367239.673    20367247.9554
  23770279.227    -5314665.214 8  -4135893.53645  23770278.838    23770292.9774
  22773199.490     9858522.448 8   7521922.75046  22773199.831    22773210.1754
 00  2 29 18  9  0.0000000  0  8 02 27 19 26 07 08 11 13
  21170918.193    -4935041.365 9  -3853909.72248  21170917.509    21170926.0204
  21086237.378     1818306.437 9   1411459.95447  21086237.072    21086246.5854
  23123192.933    12111240.812 8   9424697.62445  23123192.866    23123207.5004
  22581794.472   -12462953.617 8  -9702200.93246  22581794.499    22581804.7444
  20830593.902   -19675051.608 9 -15327510.67148  20830593.261    20830602.2344
  20375056.248    -1334548.036 9  -1046822.47047  20375055.782    20375064.0964
  23772186.385    -5304643.306 8  -4128084.29145  23772185.938    23772199.9844
  22790897.902     9951527.969 8   7594394.38046  22790898.379    22790908.6884
 00  2 29 18  9 30.0000000  0  8 02 27 19 26 07 08 11 13
  21170701.426    -4936180.770 9  -3854797.58848  21170700.729    21170709.2144
  21097091.019     1875342.038 9   1455903.18847  21097090.708    21097100.2094
  23140302.671    12201151.099 8   9494757.30945  23140302.552    23140317.0444
  22577108.792   -12487577.405 8  -9721388.26046  22577108.783    22577118.9344
  20822780.038   -19716113.558 9 -15359506.95548  20822779.370    20822788.3744
  20382962.816    -1292998.898 9  -1014446.56847  20382962.339    20382970.7294
  23774188.757    -5294120.605 8  -4119884.81945  23774188.301    23774202.4234
  22808644.257    10044784.752 8   7667061.80646  22808644.683    22808655.0344
 00  2 29 18 10  0.0000000  0  8 02 27 19 26 07 08 11 13
  21170516.323    -4937153.504 9  -3855555.59148  21170515.647    21170524.1244
  21108026.331     1932806.695 9   1500680.73547  21108025.987    21108035.5024
  23157466.357    12291346.179 8   9565038.92345  23157466.298    23157480.8044
  22572528.805   -12511645.533 8  -9740142.61146  22572528.804    22572538.8904
  20815057.613   -19756694.774 9 -15391128.64848  20815056.996    20815065.9914
  20390959.792    -1250974.816 9   -981700.58347  20390959.303    20390967.7364
  23776290.842    -5283074.207 8  -4111277.26445  23776290.437    23776304.4794
  22826439.676    10138299.045 8   7739929.88346  22826439.984    22826450.3874
 00  2 29 18 10 30.0000000  0  8 02 27 19 26 07 08 11 13
  21170363.458    -4937956.903 9  -3856181.63948  21170362.763    21170371.2834
  21119040.817     1990687.868 9   1545782.84347  21119040.452    21119050.0194
  23174678.066    12381791.469 8   9635515.49145  23174677.884    23174692.2574
  22568053.844   -12535161.780 8  -9758466.92246  22568053.792    22568063.8854
  20807419.084   -19796835.282 9 -15422406.92548  20807418.454    20807427.4214
  20399042.471    -1208500.076 9   -948603.44847  20399041.997    20399050.5064
  23778494.318    -5271494.948 8  -4102254.51845  23778493.971    23778508.0934
  22844279.645    10232047.102 8   7812980.14146  22844279.774    22844290.2034
 00  2 29 18 11  0.0000000  0  8 02 27 19 26 07 08 11 13
  21170241.400    -4938598.331 9  -3856681.47648  21170240.727    21170249.2754
  21130135.879     2048992.924 8   1591215.25247  21130135.552    21130145.2074
  23191934.064    12472471.599 8   9706175.09045  23191933.928    23191948.4834
  22563682.884   -12558131.030 8  -9776365.00446  22563682.857    22563692.9614
  20799861.069   -19836552.916 9 -15453355.69148  20799860.416    20799869.3604
  20407205.699    -1165602.559 9   -915176.86847  20407205.236    20407213.6824
  23780796.416    -5259397.149 8  -4092827.68945  23780795.987    23780810.2754
  22862158.840    10326001.686 8   7886191.30446  22862158.946    22862169.3764
 00  2 29 18 11 30.0000000  0  8 02 27 19 26 07 08 11 13
  21170145.723    -4939101.159 9  -3857073.30848  21170145.044    21170153.6604
  21141311.427     2107720.357 9   1636976.78247  21141311.105    21141320.8094
  23209230.219    12563362.382 8   9776998.79245  23209230.064    23209244.7654
  22559416.534   -12580550.410 8  -9793834.60146  22559416.501    22559426.6534
  20792381.732   -19875856.957 9 -15483982.17348  20792381.084    20792390.0104
  20415445.466    -1122302.836 9   -881436.88847  20415444.912    20415453.4034
  23783196.721    -5246783.868 8  -4082999.25745  23783196.356    23783210.4614
  22880073.883    10420145.444 8   7959549.87346  22880074.104    22880084.5934
 00  2 29 18 12  0.0000000  0  8 02 27 19 26 07 08 11 13
  21170074.469    -4939475.730 9  -3857365.19848  21170073.803    21170082.4104
  21152567.860     2166872.035 8   1683068.87347  21152567.472    21152577.1184
  23226564.558    12654454.334 8   9847979.28845  23226564.224    23226579.3444
  22555253.231   -12602427.818 8  -9810881.89746  22555253.333    22555263.5114
  20784981.209   -19914746.639 9 -15514285.78248  20784980.577    20784989.5144
  20423760.054    -1078609.561 9   -847390.23647  20423759.545    20423767.9604
  23785691.349    -5233674.730 8  -4072784.42645  23785690.949    23785705.0684
  22898020.617    10514455.003 8   8033037.64346  22898020.800    22898031.2984
 00  2 29 18 12 30.0000000  0  8 02 27 19 26 07 08 11 13
  21170025.633    -4939732.646 9  -3857565.41148  21170024.947    21170033.5114
  21163906.772     2226457.752 8   1729499.18447  21163906.382    21163916.0194
  23243943.423    12745779.724 8   9919141.62545  23243943.112    23243958.2474
  22551189.667   -12623781.467 8  -9827521.05246  22551189.836    22551200.0234
  20777665.998   -19953188.359 9 -15544240.32348  20777665.352    20777674.3044
  20432151.718    -1034510.949 9   -813027.73547  20432151.186    20432159.6854
  23788276.979    -5220086.737 8  -4062196.45045  23788276.788    23788290.8354
  22915998.790    10608929.605 8   8106654.00946  22915998.904    22916009.5024
 00  2 29 18 13  0.0000000  0  8 02 27 19 26 07 08 11 13
  21169997.560    -4939880.226 9  -3857680.43148  21169996.886    21170005.4324
  21175328.758     2286480.937 8   1776270.38747  21175328.405    21175338.1854
  23261370.770    12837358.374 8   9990501.33345  23261370.348    23261385.3434
  22547227.024   -12644604.850 8  -9843747.03746  22547227.220    22547237.3994
  20770440.632   -19991157.683 9 -15573826.76248  20770439.994    20770448.9384
  20440625.838     -989979.331 9   -778327.83147  20440625.329    20440633.8744
  23790955.460    -5206011.612 8  -4051228.89745  23790955.134    23790969.2774
  22934014.403    10703601.689 8   8180424.26646  22934014.522    22934025.2484
 00  2 29 18 13 30.0000000  0  8 02 27 19 26 07 08 11 13
  21169988.327    -4939929.007 9  -3857718.46248  21169987.623    21169996.1754
  21186831.349     2346927.823 9   1823371.73847  21186831.052    21186840.9794
  23278845.857    12929189.951 8  10062058.13145  23278845.431    23278860.6514
  22543365.863   -12664895.167 8  -9859557.63346  22543366.042    22543376.2124
  20763307.405   -20028642.901 9 -15603035.96848  20763306.782    20763315.6924
  20449186.839     -944991.279 9   -743272.26347  20449186.283    20449194.8014
  23793727.903    -5191442.997 8  -4039876.80445  23793727.545    23793741.7004
  22952072.223    10798496.088 8   8254367.75946  22952072.501    22952083.2474
 00  2 29 18 14  0.0000000  0  8 02 27 19 26 07 08 11 13
  21169999.362    -4939871.033 9  -3857673.31448  21169998.675    21170007.2084
  21198414.819     2407798.971 8   1870803.68547  21198414.513    21198424.4604
  23296371.276    13021285.896 8  10133820.93145  23296370.938    23296386.0584
  22539606.910   -12684648.515 8  -9874949.81046  22539607.045    22539617.2234
  20756267.454   -20065637.898 9 -15631863.18748  20756266.826    20756275.7034
  20457836.704     -899536.401 9   -707852.94447  20457836.164    20457844.6754
  23796593.890    -5176382.632 8  -4028141.56145  23796593.471    23796607.5474
  22970173.245    10893617.230 8   8328487.93346  22970173.590    22970184.3994
 00  2 29 18 14 30.0000000  0  8 02 27 19 26 07 08 11 13
  21170029.788    -4939711.138 9  -3857548.74747  21170029.114    21170037.6254
  21210077.217     2469084.414 8   1918558.45947  21210076.869    21210086.7454
  23313945.229    13113636.554 8  10205782.20345  23313944.881    23313960.0604
  22535951.322   -12703858.959 8  -9889918.94846  22535951.426    22535961.6044
  20749318.584   -20102154.432 9 -15660317.57548  20749317.976    20749326.8084
  20466573.732     -853623.406 9   -672076.64447  20466573.156    20466581.6854
  23799557.386    -5160808.972 8  -4016006.30645  23799557.029    23799571.3144
  22988319.192    10988973.618 8   8402791.41946  22988319.467    22988330.3314
 00  2 29 18 15  0.0000000  0  8 02 27 19 26 07 08 11 13
  21170079.942    -4939447.666 9  -3857343.47647  21170079.269    21170087.7834
  21221814.693     2530764.706 8   1966620.91147  21221814.333    21221824.1884
  23331560.951    13206207.184 8  10277914.91545  23331560.646    23331575.9504
  22532401.725   -12722511.950 8  -9904453.70446  22532401.843    22532412.0164
  20742455.772   -20138218.899 9 -15688419.70048  20742455.127    20742463.9384
  20475394.357     -807270.399 9   -635957.48347  20475393.869    20475402.4134
  23802616.712    -5144733.003 8  -4003479.66945  23802616.313    23802630.4974
  23006506.983    11084549.649 8   8477266.05246  23006507.086    23006518.0694
 00  2 29 18 15 30.0000000  0  8 02 27 19 26 07 08 11 13
  21170150.462    -4939076.805 9  -3857054.53047  21170149.800    21170158.3664
  21233629.420     2592850.951 8   2014999.69447  21233629.064    21233638.9614
  23349216.874    13298988.195 8  10350211.53745  23349216.464    23349231.9074
  22528957.186   -12740613.082 8  -9918558.45846  22528957.307    22528967.4474
  20735675.631   -20173848.558 9 -15716183.01848  20735675.001    20735683.7774
  20484296.575     -760489.619 9   -599504.98347  20484296.067    20484304.5624
  23805767.936    -5128173.627 8  -3990576.37745  23805767.649    23805781.6074
  23024730.231    11180313.357 8   8551886.89846  23024730.421    23024741.5234
 00  2 29 18 16  0.0000000  0  8 02 27 19 26 07 08 11 13
  21170243.313    -4938588.924 9  -3856674.39447  21170242.656    21170251.2574
  21245523.618     2655355.100 8   2063704.10647  21245523.260    21245533.1924
  23366913.195    13391983.285 8  10422674.98445  23366912.942    23366928.3604
  22525616.628   -12758167.692 8  -9932237.34646  22525616.770    22525626.9014
  20728976.033   -20209054.830 9 -15743616.42148  20728975.409    20728984.1874
  20493277.414     -713295.157 9   -562730.13747  20493276.920    20493285.4804
  23809011.368    -5111129.384 8  -3977295.19245  23809010.974    23809025.2004
  23042985.384    11276244.993 8   8626638.60646  23042985.733    23042996.9314
 00  2 29 18 16 30.0000000  0  8 02 27 19 26 07 08 11 13
  21170359.903    -4937976.452 9  -3856197.16847  21170359.255    21170367.8674
  21257497.452     2718277.338 8   2112734.30947  21257497.121    21257507.0334
  23384649.048    13485184.380 7  10495298.93645  23384648.785    23384664.3554
  22522377.392   -12775189.936 8  -9945501.41246  22522377.562    22522387.6834
  20722357.055   -20243837.692 9 -15770719.89648  20722356.471    20722365.2004
  20502335.781     -665693.395 9   -525637.90447  20502335.279    20502343.8514
  23812347.049    -5093600.504 8  -3963636.43945  23812346.606    23812360.8834
  23061271.445    11372338.308 8   8701516.31146  23061271.804    23061283.0694
 00  2 29 18 17  0.0000000  0  8 02 27 19 26 07 08 11 13
  21170501.929    -4937230.038 9  -3855615.57547  21170501.297    21170509.9774
  21269552.894     2781628.596 8   2162098.81947  21269552.545    21269562.4774
  23402425.988    13578603.351 8  10568092.65145  23402425.857    23402441.8424
  22519237.217   -12791691.866 8  -9958360.04246  22519237.396    22519247.3954
  20715822.730   -20278175.812 9 -15797476.81948  20715822.075    20715830.8144
  20511475.834     -617662.314 9   -488211.14247  20511475.301    20511483.9604
  23815774.807    -5075587.980 8  -3949600.79645  23815774.343    23815788.6184
  23079588.735    11468594.953 8   8776521.26846  23079588.993    23079600.2704
 00  2 29 18 17 30.0000000  0  8 02 27 19 26 07 08 11 13
  21170670.575    -4936344.030 9  -3854925.20348  21170669.960    21170678.6294
  21281694.246     2845431.523 8   2211815.27947  21281693.900    21281703.9164
  23420251.587    13672275.045 8  10641083.27645  23420251.407    23420267.1724
  22516193.574   -12807685.678 8  -9970822.72846  22516193.834    22516203.8514
  20709377.090   -20312047.507 9 -15823870.30148  20709376.427    20709385.1694
  20520700.641     -569185.479 9   -450437.04147  20520700.135    20520708.8694
  23819299.139    -5057068.062 8  -3935169.80045  23819298.772    23819312.9444
  23097937.773    11565018.039 8   8851655.94846  23097937.890    23097949.1704
 00  2 29 18 18  0.0000000  0  8 02 27 19 26 07 08 11 13
  21170866.217    -4935316.173 9  -3854124.30448  21170865.605    21170874.2494
  21293920.861     2909683.052 8   2261881.29147  21293920.575    21293930.6144
  23438126.045    13766203.581 8  10714274.04145  23438125.732    23438141.4814
  22513249.040   -12823159.125 8  -9982879.94746  22513249.292    22513259.3414
  20703024.454   -20345430.527 9 -15849883.00248  20703023.815    20703032.5494
  20530011.128     -520259.052 9   -412312.60147  20530010.609    20530019.3224
  23822923.725    -5038020.785 8  -3920327.86345  23822923.412    23822937.6254
  23116321.994    11661626.631 8   8926935.17446  23116322.113    23116333.3604
 00  2 29 18 18 30.0000000  0  8 02 27 19 26 07 08 11 13
  21171088.759    -4934146.779 9  -3853213.11548  21171088.141    21171096.8464
  21306231.503     2974375.507 8   2312290.87647  21306231.253    21306241.2484
  23456047.200    13860379.122 8  10787657.28645  23456046.936    23456062.6424
  22510405.709   -12838100.254 8  -9994522.36446  22510406.040    22510416.0894
  20696765.153   -20378323.216 9 -15875513.62648  20696764.518    20696773.2084
  20539408.757     -470874.787 9   -373831.41447  20539408.203    20539416.9114
  23826649.010    -5018445.239 8  -3905074.26245  23826648.644    23826662.8794
  23134742.953    11758428.173 8   9002364.73746  23134742.961    23134754.2684
 00  2 29 18 19  0.0000000  0  8 02 27 19 26 07 08 11 13
  21171336.626    -4932844.419 9  -3852198.31748  21171336.019    21171344.7254
  21318625.542     3039505.416 8   2363041.34447  21318625.242    21318635.2194
  23474016.455    13954805.922 8  10861236.31245  23474016.166    23474031.8714
  22507666.159   -12852496.569 8 -10005740.25446  22507666.537    22507676.6164
  20690599.405   -20410724.587 9 -15900761.40448  20690598.727    20690607.3934
  20548893.742     -421031.059 9   -334992.21447  20548893.227    20548901.8524
  23830475.382    -4998338.144 8  -3889406.53445  23830474.985    23830489.2574
  23153198.777    11855413.844 8   9077937.78146  23153198.903    23153210.2594
 00  2 29 18 19 30.0000000  0  8 02 27 19 26 07 08 11 13
  21171608.773    -4931414.468 9  -3851084.09547  21171608.151    21171616.8394
  21331102.108     3105069.321 8   2414129.98647  21331101.785    21331111.8164
  23492031.232    14049473.707 8  10935003.14645  23492031.005    23492046.8864
  22505032.850   -12866334.625 8 -10016523.13946  22505033.240    22505043.3164
  20684524.771   -20442646.446 9 -15925635.54248  20684524.142    20684532.7824
  20558460.500     -370757.733 9   -295818.24947  20558459.984    20558468.5304
  23834401.008    -4977708.765 8  -3873331.79745  23834400.717    23834415.1014
  23171686.576    11952567.469 8   9153641.68846  23171686.805    23171698.1574
 00  2 29 18 20  0.0000000  0  8 02 27 19 26 07 08 11 13
  21171905.259    -4929856.490 9  -3849870.11447  21171904.625    21171913.3334
  21343655.373     3171036.561 8   2465532.90247  21343655.065    21343665.0844
  23510085.398    14144347.800 8  11008930.72745  23510085.186    23510101.0844
  22502506.997   -12879608.766 8 -10026866.61246  22502507.229    22502517.3474
  20678538.831   -20474102.602 9 -15950146.79648  20678538.226    20678546.8674
  20568107.091     -320065.040 9   -256317.50747  20568106.556    20568115.1674
  23838423.292    -4956571.634 8  -3856861.43645  23838422.923    23838437.2014
  23190205.142    12049882.561 8   9229471.40746  23190205.405    23190216.7914
 00  2 29 18 20 30.0000000  0  8 02 27 19 26 07 08 11 13
  21172226.494    -4928168.407 9  -3848554.75247  21172225.883    21172234.5644
  21356283.458     3237397.366 8   2517242.50247  21356283.173    21356293.2184
  23528181.302    14239439.948 8  11083028.17845  23528181.009    23528196.5574
  22500086.468   -12892328.498 8 -10036778.07846  22500086.694    22500096.8364
  20672640.576   -20505098.216 9 -15974299.18648  20672639.949    20672648.5624
  20577832.462     -268957.834 9   -216493.78147  20577831.943    20577840.6614
  23842540.327    -4934937.151 8  -3840003.50545  23842539.853    23842554.3284
  23208750.629    12147339.183 8   9305411.41146  23208750.905    23208762.3684
 00  2 29 18 21  0.0000000  0  8 02 27 19 26 07 08 11 13
  21172572.187    -4926351.849 9  -3847139.27447  21172571.554    21172580.2424
  21368988.435     3304162.257 8   2569266.96547  21368988.107    21368998.2254
  23546320.674    14334761.730 8  11157304.62045  23546320.252    23546336.1524
  22497770.062   -12904501.659 8 -10046263.64246  22497770.217    22497780.3374
  20666831.341   -20535625.688 9 -15998086.79348  20666830.731    20666839.3514
  20587636.114     -217439.587 9   -176349.75247  20587635.616    20587644.2544
  23846750.640    -4912812.259 8  -3822763.43645  23846750.258    23846764.7264
  23227321.623    12244929.644 8   9381455.70046  23227321.929    23227333.4474
 00  2 29 18 21 30.0000000  0  8 02 27 19 26 07 08 11 13
  21172942.852    -4924403.977 9  -3845621.47347  21172942.217    21172950.9094
  21381771.959     3371340.286 8   2621613.34847  21381771.628    21381781.8904
  23564502.616    14430307.437 7  11231755.51145  23564502.224    23564518.1624
  22495557.347   -12916130.138 8 -10055324.77946  22495557.449    22495567.5094
  20661110.194   -20565690.321 9 -16021513.75348  20661109.602    20661118.2184
  20597520.206     -165498.935 9   -135876.58547  20597519.664    20597528.3364
  23851054.323    -4890197.079 8  -3805141.36745  23851053.860    23851068.2614
  23245921.408    12342671.599 8   9457618.02346  23245921.743    23245933.3344
 00  2 29 18 22  0.0000000  0  8 02 27 19 26 07 08 11 13
  21173335.698    -4922340.057 9  -3844013.24647  21173335.015    21173343.6904
  21394632.864     3438924.524 8   2674276.26547  21394632.564    21394642.8804
  23582727.969    14526081.831 7  11306384.60045  23582727.468    23582743.6984
  22493447.061   -12927219.780 8 -10063966.04846  22493447.161    22493457.1494
  20655475.178   -20595302.663 9 -16044588.27848  20655474.552    20655483.1354
  20607486.740     -113124.580 9    -95065.47747  20607486.174    20607494.9084
  23855452.190    -4867086.566 8  -3787133.28845  23855451.764    23855466.2954
  23264551.260    12440571.053 8   9533903.10046  23264551.577    23264563.2244
 00  2 29 18 22 30.0000000  0  8 02 27 19 26 07 08 11 13
  21173747.246    -4920177.636 9  -3842328.26047  21173746.550    21173755.2244
  21407575.662     3506938.609 8   2727274.13247  21407575.314    21407585.6374
  23600997.315    14622087.521 7  11381193.92845  23600996.930    23601013.2334
  22491437.490   -12937779.569 8 -10072194.43246  22491437.602    22491447.6214
  20649924.156   -20624473.696 9 -16067318.92248  20649923.485    20649932.0604
  20617534.016      -60325.976 9    -53923.77947  20617533.439    20617542.2174
  23859944.200    -4843480.823 8  -3768739.31145  23859943.784    23859958.3354
  23283209.851    12538621.660 8   9610305.94846  23283210.079    23283221.8684
 00  2 29 18 23  0.0000000  0  8 02 27 19 26 07 08 11 13
  21174177.245    -4917918.101 9  -3840567.61247  21174176.582    21174185.2094
  21420600.916     3575385.618 8   2780609.32347  21420600.517    21420610.8114
  23619305.514    14718297.515 8  11456162.45945  23619305.234    23619321.6634
  22489527.214   -12947817.995 8 -10080016.56946  22489527.324    22489537.3494
  20644454.202   -20653218.363 9 -16089717.34048  20644453.552    20644462.1094
  20627662.217       -7101.812 9    -12450.48047  20627661.677    20627670.4564
  23864528.935    -4819388.752 8  -3749966.36945  23864528.501    23864543.0524
  23301897.847    12636827.034 8   9686829.38646  23301898.091    23301909.9754
 00  2 29 18 23 30.0000000  0  8 02 27 19 26 07 08 11 13
  21174625.446    -4915562.927 9  -3838732.43647  21174624.782    21174633.4104
  21433704.954     3644247.036 8   2834267.44747  21433704.575    21433714.8484
  23637650.927    14814701.859 8  11531282.39045  23637650.744    23637667.2814
  22487717.736   -12957326.529 8 -10087425.80946  22487717.937    22487727.9864
  20639065.602   -20681535.541 9 -16111782.63748  20639064.963    20639073.4974
  20637870.568       46543.160 9     29350.73147  20637869.990    20637878.7474
  23869205.665    -4794812.596 8  -3730816.24645  23869205.223    23869219.9134
  23320614.190    12735180.849 8   9763468.50046  23320614.453    23320626.3384
 00  2 29 18 24  0.0000000  0  8 02 27 19 26 07 08 11 13
  21175093.567    -4913102.997 9  -3836815.63947  21175092.928    21175101.5284
  21446883.836     3713501.857 8   2888232.10947  21446883.481    21446893.6834
  23656033.584    14911302.623 8  11606555.42245  23656033.398    23656050.1204
  22486010.679   -12966297.127 8 -10094415.87946  22486010.869    22486020.9464
  20633761.548   -20709408.279 9 -16133501.61848  20633760.895    20633769.4254
  20648156.271      100594.747 9     71468.78047  20648155.699    20648164.4814
  23873973.480    -4769758.138 8  -3711293.40845  23873973.081    23873987.7204
  23339353.176    12833654.025 8   9840200.64446  23339353.471    23339365.3824
 00  2 29 18 24 30.0000000  0  8 02 27 19 26 07 08 11 13
  21175587.832    -4910506.060 9  -3834792.07247  21175587.156    21175595.7284
  21460137.189     3783147.913 8   2942501.64047  21460136.826    21460146.9774
  23674454.090    15008100.791 8  11681982.23545  23674453.856    23674470.3424
  22484407.382   -12974722.492 8 -10100981.09146  22484407.548    22484417.5994
  20628547.925   -20736805.843 9 -16154850.32848  20628547.244    20628555.7884
  20658521.397      155063.970 9    113912.25847  20658520.824    20658529.7214
  23878830.845    -4744233.514 8  -3691404.18045  23878830.460    23878845.0274
  23358112.621    12932233.893 8   9917015.89846  23358112.775    23358124.7544
 00  2 29 18 25  0.0000000  0  8 02 27 19 26 07 08 11 13
  21176112.321    -4907749.991 9  -3832644.51447  21176111.643    21176120.2374
  21473463.691     3853178.576 8   2997070.85747  21473463.320    21473473.4424
  23692915.712    15105117.056 7  11757579.00545  23692915.426    23692932.1564
  22482912.198   -12982579.717 8 -10107103.61246  22482912.404    22482922.4064
  20623430.567   -20763697.389 9 -16175804.73948  20623429.897    20623438.4424
  20668969.814      209970.675 9    156696.62747  20668969.250    20668978.1914
  23883779.892    -4718226.047 8  -3671138.72445  23883779.493    23883794.1534
  23376894.736    13030932.821 8   9993923.90946  23376894.732    23376906.7974
 00  2 29 18 25 30.0000000  0  8 02 27 19 26 07 08 11 13
  21176665.928    -4904840.911 9  -3830377.73547  21176665.270    21176673.8664
  21486863.502     3923594.613 8   3051940.37347  21486863.164    21486873.2384
  23711422.474    15202369.973 7  11833360.19545  23711422.204    23711439.1934
  22481529.087   -12989848.328 8 -10112767.46546  22481529.261    22481539.2284
  20618411.829   -20790070.839 9 -16196355.43848  20618411.191    20618419.6964
  20679501.006      265311.937 9    199819.61647  20679500.459    20679509.4074
  23888824.466    -4691717.025 8  -3650482.40545  23888824.041    23888838.9194
  23395698.870    13129749.391 8  10070923.60645  23395699.034    23395711.1494
 00  2 29 18 26  0.0000000  0  8 02 27 19 26 07 08 11 13
  21177249.429    -4901774.713 9  -3827988.52347  21177248.736    21177257.3434
  21500339.237     3994409.831 8   3107120.93947  21500338.905    21500349.0094
  23729975.085    15299862.597 7  11909328.13745  23729974.860    23729991.6104
  22480254.878   -12996544.476 8 -10117985.24946  22480255.033    22480264.9394
  20613487.454   -20815948.761 9 -16216520.00748  20613486.780    20613495.2514
  20690116.433      321094.976 9    243286.85147  20690115.801    20690124.6234
  23893967.054    -4664693.180 8  -3629424.95845  23893966.671    23893981.3774
  23414525.725    13228685.977 8  10148016.82845  23414526.081    23414538.3774
 00  2 29 18 26 30.0000000  0  8 02 27 19 26 07 08 11 13
  21177860.372    -4898564.170 9  -3825486.83547  21177859.713    21177868.3344
  21513894.753     4065644.602 8   3162628.42847  21513894.480    21513904.6714
  23748571.416    15397586.394 7  11985476.24145  23748571.196    23748588.3034
  22479085.390   -13002690.420 8 -10122774.31646  22479085.513    22479095.3924
  20608649.810   -20841370.691 9 -16236329.26148  20608649.129    20608657.5824
  20700814.377      377312.403 9    287092.56647  20700813.715    20700822.4974
  23899207.472    -4637154.733 8  -3607966.51845  23899207.123    23899221.8784
  23433378.733    13327758.458 8  10225215.95045  23433379.059    23433391.4134
 00  2 29 18 27  0.0000000  0  8 02 27 19 26 07 08 11 13
  21178492.232    -4895243.959 9  -3822899.69247  21178491.565    21178500.1624
  21527528.692     4137290.922 8   3218456.60047  21527528.422    21527538.6654
  23767207.908    15495520.383 7  12061788.11945  23767207.862    23767224.9314
  22478016.968   -13008304.946 8 -10127149.29246  22478017.113    22478027.0324
  20603891.838   -20866373.872 9 -16255812.21648  20603891.153    20603899.5924
  20711588.351      433930.147 9    331210.21547  20711587.706    20711596.5954
  23904545.918    -4609101.033 8  -3586106.56145  23904545.517    23904560.3874
  23452258.381    13426971.092 8  10302524.26945  23452258.809    23452271.2174
 00  2 29 18 27 30.0000000  0  8 02 27 19 26 07 08 11 13
  21179140.619    -4891837.004 9  -3820244.95647  21179139.927    21179148.5104
  21541238.144     4209333.849 8   3274593.82647  21541237.841    21541248.1034
  23785878.369    15593632.666 7  12138238.95045  23785878.279    23785895.3964
  22477043.653   -13013419.742 8 -10131134.86146  22477043.836    22477053.7514
  20599208.025   -20890987.163 9 -16274991.36148  20599207.336    20599215.7854
  20722435.887      490934.464 9    375629.09047  20722435.296    20722444.2294
  23909979.226    -4580549.535 8  -3563858.71445  23909978.745    23909993.5704
  23471161.927    13526310.156 8  10379931.09645  23471162.542    23471175.0334
 00  2 29 18 28  0.0000000  0  8 02 27 19 26 07 08 11 13
  21179805.881    -4888341.204 9  -3817520.99547  21179805.186    21179813.7704
  21555023.625     4281776.230 8   3331042.31447  21555023.278    21555033.6124
  23804578.578    15691901.923 7  12214812.05245  23804578.383    23804595.5934
  22476161.910   -13018053.474 8 -10134745.58346  22476162.057    22476171.9704
  20594597.164   -20915216.962 9 -16293871.68648  20594596.468    20594604.9354
  20733357.076      548325.357 9    420349.19347  20733356.476    20733365.3764
  23915504.290    -4551516.003 8  -3541235.21845  23915503.821    23915518.5464
  23490088.864    13625770.243 8  10457432.24345  23490089.320    23490101.9084
 00  2 29 18 28 30.0000000  0  8 02 27 19 26 07 08 11 13
  21180486.021    -4884766.984 9  -3814735.92247  21180485.325    21180493.9044
  21568883.205     4354608.157 8   3387794.34447  21568882.823    21568893.2094
  23823306.423    15790314.996 7  12291497.21445  23823306.237    23823323.4674
  22475375.117   -13022188.517 8 -10137967.71646  22475375.251    22475385.1484
  20590066.136   -20939027.541 9 -16312425.35148  20590065.464    20590073.9354
  20744352.432      606105.934 9    465372.94347  20744351.854    20744360.7434
  23921118.128    -4522015.596 8  -3518247.97045  23921117.595    23921132.3354
  23509037.244    13725343.145 8  10535021.28845  23509037.542    23509050.2264
 00  2 29 18 29  0.0000000  0  8 02 27 19 26 07 08 11 13
  21181183.398    -4881102.590 9  -3811880.58147  21181182.702    21181191.2574
  21582815.582     4427823.043 8   3444844.78947  21582815.258    21582825.6684
  23842062.757    15888879.096 7  12368300.10045  23842062.533    23842079.9934
  22474685.875   -13025810.995 8 -10140790.44546  22474685.919    22474695.8104
  20585622.991   -20962376.413 9 -16330619.24848  20585622.310    20585630.7544
  20755428.041      664308.047 9    510725.15647  20755427.456    20755436.3214
  23926822.968    -4492036.809 8  -3494887.96745  23926822.505    23926837.0764
  23528006.067    13825022.950 8  10612693.62245  23528006.210    23528018.9034
 00  2 29 18 29 30.0000000  0  8 02 27 19 26 07 08 11 13
  21181905.082    -4877310.588 9  -3808925.81047  21181904.373    21181912.9004
  21596824.003     4501437.605 8   3502206.67247  21596823.690    21596834.1564
  23860852.273    15987617.569 8  12445238.80345  23860851.975    23860869.5594
  22474099.555   -13028892.312 8 -10143191.49546  22474099.594    22474109.5224
  20581272.014   -20985240.477 9 -16348435.37548  20581271.362    20581279.7904
  20766592.087      722975.096 9    556439.66947  20766591.478    20766600.3384
  23932620.375    -4461570.945 8  -3471148.38445  23932619.921    23932634.8274
  23546993.789    13924803.230 8  10690444.26145  23546994.035    23547006.6194
 00  2 29 18 30  0.0000000  0  8 02 27 19 26 07 08 11 13
  21182654.516    -4873372.052 9  -3805856.86047  21182653.834    21182662.3794
  21610911.057     4575465.461 8   3559890.59147  21610910.788    21610921.3044
  23879680.596    16086557.696 7  12522334.66045  23879680.101    23879697.6534
  22473621.702   -13031403.661 8 -10145148.41146  22473621.676    22473631.6094
  20577016.909   -21007601.109 9 -16365859.22448  20577016.278    20577024.7074
  20777845.988      782114.101 9    602521.93247  20777845.377    20777854.2254
  23938512.525    -4430607.384 8  -3447021.01845  23938512.083    23938526.9954
  23566000.044    14024679.977 8  10768270.06945  23566000.197    23566012.7434
 00  2 29 18 30 30.0000000  0  8 02 27 19 26 07 08 11 13
  21183433.090    -4869281.048 9  -3802669.10247  21183432.405    21183440.9364
  21625073.588     4649889.443 8   3617883.19147  21625073.313    21625083.8814
  23898550.390    16185719.813 7  12599603.54445  23898549.968    23898567.9954
  22473254.807   -13033331.501 8 -10146650.65446  22473254.799    22473264.7564
  20572858.397   -21029454.160 9 -16382887.55748  20572857.797    20572866.1984
  20789190.205      841727.988 9    648974.22547  20789189.623    20789198.4004
  23944501.607    -4399135.759 8  -3422497.74545  23944501.137    23944515.8334
  23585022.953    14124645.114 8  10846164.73045  23585023.187    23585035.7164
 00  2 29 18 31  0.0000000  0  8 02 27 19 26 07 08 11 13
  21184242.412    -4865028.276 9  -3799355.29747  21184241.725    21184250.2514
  21639311.917     4724711.741 8   3676186.16047  21639311.636    21639322.2604
  23917464.841    16285113.942 7  12677053.13645  23917464.443    23917482.4714
  22472998.138   -13034679.931 8 -10147701.39846  22472998.197    22473008.1634
  20568792.251   -21050821.894 9 -16399537.72248  20568791.652    20568800.0524
  20800621.306      901798.569 9    695782.37847  20800620.740    20800629.4944
  23950588.446    -4367149.596 8  -3397573.54545  23950587.943    23950602.6884
  23604063.112    14224701.275 8  10924130.29445  23604063.447    23604075.9624
 00  2 29 18 31 30.0000000  0  8 02 27 19 26 07 08 11 13
  21185078.656    -4860633.760 9  -3795931.03147  21185077.976    21185086.5614
  21653625.112     4799927.234 8   3734795.51547  21653624.797    21653635.3804
  23936421.489    16384730.579 8  12754676.14445  23936421.239    23936438.8374
  22472851.547   -13035450.462 8 -10148301.83146  22472851.588    22472861.5464
  20564813.612   -21071729.835 9 -16415829.60948  20564812.966    20564821.3874
  20812131.449      962285.083 9    742914.63847  20812130.902    20812139.8124
  23956770.072    -4334664.815 8  -3372260.85145  23956769.605    23956784.4284
  23623119.027    14324838.931 8  11002159.38745  23623119.175    23623131.7714
 00  2 29 18 32  0.0000000  0  8 02 27 19 26 07 08 11 13
  21185936.923    -4856123.519 9  -3792416.58447  21185936.252    21185944.8534
  21668012.871     4875534.418 8   3793710.07947  21668012.507    21668023.0434
  23955416.553    16484548.598 8  12832456.02845  23955416.379    23955433.8724
  22472809.272   -13035672.700 8 -10148475.03046  22472809.288    22472819.2354
  20560921.213   -21092184.409 9 -16431768.23048  20560920.561    20560928.9794
  20823714.755     1023155.743 9    790346.23747  20823714.242    20823723.2344
  23963045.440    -4301687.866 8  -3346564.61345  23963045.009    23963059.8214
  23642189.399    14425052.505 8  11080247.61645  23642189.463    23642202.1644
 00  2 29 18 32 30.0000000  0  8 02 27 19 26 07 08 11 13
  21186817.087    -4851498.411 9  -3788812.63047  21186816.392    21186825.0174
  21682475.177     4951533.109 8   3852929.70847  21682474.745    21682485.2154
  23974445.604    16584545.905 7  12910375.68645  23974445.417    23974463.3874
  22472866.903   -13035370.318 8 -10148239.43446  22472866.848    22472876.8034
  20557112.888   -21112197.391 9 -16447362.75748  20557112.247    20557120.6354
  20835368.816     1084397.731 9    838067.18047  20835368.264    20835377.2724
  23969413.329    -4268224.569 8  -3320489.37945  23969412.911    23969427.8204
  23661274.560    14525343.928 8  11158396.50645  23661274.460    23661287.1864
 00  2 29 18 33  0.0000000  0  8 02 27 19 26 07 08 11 13
  21187720.980    -4846747.985 9  -3785111.02547  21187720.336    21187728.9824
  21697015.945     5027944.860 8   3912471.20447  21697015.558    21697026.0264
  23993505.729    16684706.699 7  12988422.73445  23993505.532    23993523.6934
  22473021.837   -13034556.037 8 -10147604.94946  22473021.781    22473031.8104
  20553388.016   -21131771.990 9 -16462615.68248  20553387.336    20553395.6814
  20847091.752     1146001.710 9    886070.18947  20847091.169    20847100.2154
  23975874.322    -4234272.156 8  -3294033.03545  23975873.958    23975888.8674
  23680376.247    14625723.690 8  11236614.21445  23680376.286    23680389.1074
 00  2 29 18 33 30.0000000  0  8 02 27 19 26 07 08 11 13
  21188648.761    -4841872.542 9  -3781312.00247  21188648.124    21188656.8164
  21711633.670     5104761.370 8   3972328.08947  21711633.319    21711643.8694
  24012596.084    16785024.833 7  13066592.35245  24012595.735    24012613.9614
  22473271.340   -13033244.896 8 -10146583.29646  22473271.298    22473281.3094
  20549746.349   -21150909.181 9 -16477527.77348  20549745.687    20549754.0044
  20858886.708     1207984.345 9    934368.25747  20858886.123    20858895.2154
  23982428.547    -4199829.799 8  -3267194.91345  23982428.120    23982443.1074
  23699493.487    14726184.461 8  11314895.06445  23699493.571    23699506.4724
 00  2 29 18 34  0.0000000  0  8 02 27 19 26 07 08 11 13
  21189605.094    -4836847.298 9  -3777396.25147  21189604.432    21189613.1474
  21726327.919     5181979.507 8   4032497.93047  21726327.576    21726338.1364
  24031716.258    16885501.619 7  13144885.64045  24031715.859    24031734.3884
  22473614.699   -13031440.043 8 -10145176.94146  22473614.740    22473624.7314
  20546189.283   -21169601.938 9 -16492093.54848  20546188.580    20546196.9014
  20870759.531     1270375.502 9    982984.65547  20870758.914    20870767.9684
  23989076.387    -4164895.187 8  -3239973.24645  23989075.987    23989090.9304
  23718625.458    14826722.718 8  11393236.27345  23718625.438    23718638.5624
 00  2 29 18 34 30.0000000  0  8 02 27 19 26 07 08 11 13
  21190592.172    -4831660.202 9  -3773354.38447  21190591.519    21190600.2534
  21741095.102     5259581.345 8   4092966.76047  21741094.773    21741105.4434
  24050868.995    16986147.806 7  13223310.83245  24050868.640    24050887.1474
  22474056.646   -13029117.760 8 -10143367.39446  22474056.704    22474066.6654
  20542716.675   -21187850.775 9 -16506313.41148  20542715.944    20542724.2794
  20882713.046     1333190.995 9   1031931.70347  20882712.429    20882721.4554
  23995818.892    -4129464.007 8  -3212364.62645  23995818.470    23995833.3834
  23737773.701    14927346.652 8  11471644.26745  23737773.662    23737786.9564
 00  2 29 18 35  0.0000000  0  8 02 27 19 26 07 08 11 13
  21191606.891    -4826328.150 9  -3769199.55847  21191606.206    21191614.9564
  21755933.008     5337554.503 8   4153724.93346  21755932.661    21755943.4074
  24070054.000    17086966.964 7  13301870.87245  24070053.907    24070072.5284
  22474600.895   -13026257.745 8 -10141138.82146  22474601.007    22474610.9784
  20539327.854   -21205659.181 9 -16520190.07148  20539327.100    20539335.4484
  20894748.872     1396439.742 9   1081216.33747  20894748.277    20894757.3464
  24002653.420    -4093548.723 8  -3184378.74945  24002653.038    24002668.0314
  23756937.335    15028051.670 8  11550115.41445  23756937.253    23756950.7024
 00  2 29 18 35 30.0000000  0  8 02 27 19 26 07 08 11 13
  21192645.803    -4820868.647 9  -3764945.42547  21192645.137    21192653.8934
  21770839.316     5415886.946 8   4214763.05846  21770838.882    21770849.6934
  24089274.423    17187967.659 7  13380572.35145  24089274.372    24089292.6424
  22475248.984   -13022852.567 8 -10138485.45446  22475248.999    22475259.0394
  20536024.206   -21223019.519 9 -16533717.59148  20536023.537    20536031.8454
  20906868.577     1460129.321 9   1130844.48847  20906868.046    20906877.1794
  24009577.213    -4057164.299 8  -3156027.34645  24009576.776    24009591.7624
  23776112.710    15128818.015 8  11628634.36045  23776112.669    23776126.1864
 00  2 29 18 36  0.0000000  0  8 02 27 19 26 07 08 11 13
  21193707.807    -4815287.832 9  -3760596.77447  21193707.152    21193715.9184
  21785814.836     5494584.112 8   4276085.38946  21785814.465    21785825.4144
  24108529.742    17289153.694 7  13459418.28845  24108529.601    24108548.4114
  22476003.345   -13018888.770 8 -10135396.80146  22476003.316    22476013.3704
  20532806.921   -21239926.545 9 -16546891.87248  20532806.204    20532814.5214
  20919069.428     1524245.289 9   1180804.87447  20919068.900    20919078.1244
  24016589.066    -4020317.220 8  -3127315.39145  24016588.531    24016603.5274
  23795300.878    15229651.644 8  11707205.74645  23795300.985    23795314.4814
 00  2 29 18 36 30.0000000  0  9 02 27 19 26 04 07 08 11 13
  21194790.180    -4809600.268 9  -3756164.94147  21194789.493    21194798.2664
  21800861.270     5573653.511 8   4337697.76446  21800860.928    21800871.9704
  24127821.999    17390535.040 7  13538416.36245  24127821.876    24127840.7534
  22476866.627   -13014352.244 8 -10131861.87546  22476866.649    22476876.6834
  24327580.585    -2151212.311 7  -1650826.67345  24327580.577    24327600.0344
  20529678.744   -21256365.018 9 -16559701.04448  20529678.040    20529686.3834
  20931349.390     1588776.377 9   1231088.73547  20931348.849    20931358.0304
  24023690.770    -3982998.364 8  -3098235.83445  24023690.295    24023705.3754
  23814503.337    15330560.354 8  11785835.60945  23814503.472    23814517.0764
 00  2 29 18 37  0.0000000  0  9 02 27 19 26 04 07 08 11 13
  21195892.006    -4803810.014 9  -3751653.09247  21195891.340    21195900.1564
  21815980.298     5653104.230 8   4399607.27046  21815980.011    21815991.0694
  24147151.644    17492109.519 7  13617564.95745  24147151.653    24147170.2144
  22477834.675   -13009265.143 8 -10127897.92846  22477834.709    22477844.7774
  24307914.203    -2254557.636 7  -1731355.15945  24307914.152    24307933.7744
  20526642.419   -21272320.520 9 -16572133.87148  20526641.742    20526650.0934
  20943706.605     1653713.330 9   1281688.86247  20943706.004    20943715.2044
  24030881.764    -3945209.263 8  -3068789.87445  24030881.366    24030896.3104
  23833716.847    15431528.027 8  11864511.39645  23833717.080    23833730.8244
 00  2 29 18 37 30.0000000  0  9 02 27 19 26 04 07 08 11 13
  21197013.656    -4797915.800 9  -3747060.23247  21197013.023    21197021.8294
  21831169.545     5732923.257 8   4461803.77546  21831169.206    21831180.2874
  24166513.387    17593854.646 7  13696846.51045  24166513.311    24166531.8414
  22478901.564   -13003658.406 8 -10123529.06946  22478901.620    22478911.6784
  24288234.998    -2357969.405 7  -1811935.43945  24288235.294    24288254.9894
  20523697.439   -21287796.205 9 -16584192.81048  20523696.751    20523705.1124
  20956139.105     1719045.985 9   1332597.32347  20956138.477    20956147.6824
  24038164.567    -3906937.908 8  -3038968.11245  24038164.235    24038179.2914
  23852937.801    15532534.332 8  11943217.30945  23852938.105    23852951.9074
 00  2 29 18 38  0.0000000  0  9 02 27 19 26 04 07 08 11 13
  21198158.517    -4791899.923 9  -3742372.57947  21198157.831    21198166.6264
  21846430.616     5813120.015 8   4524294.59946  21846430.261    21846441.3834
  24185905.848    17695760.593 7  13776253.38745  24185905.496    24185923.9434
  22480069.131   -12997522.796 8 -10118748.10546  22480069.162    22480079.2724
  24268544.843    -2461443.167 7  -1892564.00545  24268544.777    24268564.5244
  20520844.149   -21302789.953 9 -16595876.21948  20520843.506    20520851.8794
  20968651.286     1784797.684 9   1383832.31647  20968650.655    20968659.9314
  24045542.134    -3868168.899 8  -3008758.58645  24045541.718    24045556.8304
  23872168.693    15633593.095 8  12021964.09945  23872169.070    23872183.1184
 00  2 29 18 38 30.0000000  0  9 02 27 19 26 04 07 08 11 13
  21199329.884    -4785744.449 9  -3737576.15347  21199329.210    21199338.0094
  21861765.976     5893706.932 8   4587089.44646  21861765.584    21861776.7274
  24205327.980    17797822.229 7  13855781.56645  24205327.540    24205345.8714
  22481336.538   -12990862.852 8 -10113558.56946  22481336.524    22481346.5964
  24248841.736    -2564982.826 7  -1973243.93145  24248841.746    24248861.2384
  20518083.665   -21317296.350 9 -16607179.87448  20518083.067    20518091.4014
  20981245.665     1850981.623 9   1435404.11347  20981245.126    20981254.4814
  24053017.352    -3828886.232 8  -2978148.78845  24053017.063    24053032.2644
  23891408.893    15734700.321 8  12100748.64845  23891409.401    23891423.4974
 00  2 29 18 39  0.0000000  0  9 02 27 19 26 04 07 08 11 13
  21200532.606    -4779424.365 9  -3732651.47347  21200531.927    21200540.7474
  21877179.130     5974702.529 8   4650202.73246  21877178.694    21877189.8544
  24224780.248    17900043.304 8  13935434.04145  24224779.872    24224798.4644
  22482702.140   -12983686.766 8 -10107966.85546  22482702.119    22482712.1454
  24229125.643    -2668590.090 7  -2053976.51945  24229125.655    24229145.1504
  20515413.789   -21331326.793 9 -16618112.66248  20515413.135    20515421.4824
  20993925.878     1917615.319 9   1487326.36547  20993925.298    20993934.6064
  24060593.291    -3789075.549 8  -2947127.56645  24060592.878    24060607.9124
  23910659.727    15835862.005 8  12179575.62545  23910660.123    23910674.1644
 00  2 29 18 39 30.0000000  0  9 02 27 19 26 04 07 08 11 13
  21201768.756    -4772928.753 9  -3727590.00747  21201768.051    21201776.8814
  21892671.952     6056118.211 8   4713643.37846  21892671.569    21892682.8564
  24244262.732    18002422.628 7  14015209.78645  24244262.366    24244281.0804
  22484167.207   -12975987.974 8 -10101967.82846  22484167.155    22484177.1654
  24209395.598    -2772270.956 7  -2134766.45345  24209395.605    24209415.1234
  20512830.808   -21344900.267 9 -16628689.36448  20512830.183    20512838.5044
  21006690.950     1984695.340 9   1539596.41047  21006690.351    21006699.6204
  24068267.069    -3748749.770 8  -2915704.96445  24068266.685    24068281.7514
  23929921.707    15937081.611 8  12258447.73945  23929921.849    23929935.7674
 00  2 29 18 40  0.0000000  0  9 02 27 19 26 04 07 08 11 13
  21203038.880    -4766254.348 9  -3722389.21847  21203038.212    21203047.0064
  21908244.018     6137949.179 8   4777407.61146  21908243.618    21908254.8924
  24263778.297    18104976.767 7  14095121.72945  24263778.095    24263796.7794
  22485732.846   -12967760.696 8 -10095556.99346  22485732.791    22485742.8174
  24189648.325    -2876041.774 7  -2215626.47045  24189648.435    24189667.8354
  20510332.583   -21358028.626 9 -16638919.22948  20510331.963    20510340.2634
  21019535.497     2052193.857 9   1592192.55047  21019534.948    21019544.2554
  24076032.917    -3707940.352 8  -2883905.53245  24076032.529    24076047.5524
  23949194.665    16038360.563 8  12337366.08045  23949194.807    23949208.8674
 00  2 29 18 40 30.0000000  0  9 02 27 19 26 04 07 08 11 13
  21204341.843    -4759407.421 9  -3717053.99647  21204341.150    21204349.9654
  21923892.878     6220183.500 8   4841486.13346  21923892.524    21923903.6104
  24283331.849    18207731.137 7  14175189.75845  24283331.699    24283350.6254
  22487397.478   -12959012.929 8 -10088740.58246  22487397.509    22487407.5494
  24169886.066    -2979890.137 7  -2296546.91345  24169886.267    24169905.6434
  20507917.160   -21370722.133 9 -16648810.24348  20507916.475    20507924.7554
  21032453.863     2120080.425 9   1645091.07047  21032453.335    21032462.7504
  24083889.798    -3666652.223 8  -2851733.07245  24083889.360    24083904.4624
  23968476.900    16139687.650 8  12416321.96745  23968476.977    23968490.9934
 00  2 29 18 41  0.0000000  0  9 02 27 19 26 04 07 08 11 13
  21205674.398    -4752404.748 9  -3711597.41947  21205673.737    21205682.5784
  21939613.051     6302793.310 8   4905857.25146  21939612.762    21939623.7804
  24302922.349    18310677.797 7  14255407.57245  24302922.117    24302941.2174
  22489162.174   -12949739.541 8 -10081514.59946  22489162.197    22489172.2574
  24150110.382    -3083809.892 7  -2377522.95645  24150110.577    24150130.2044
  20505582.337   -21382991.819 9 -16658371.01948  20505581.611    20505589.8814
  21045443.130     2188338.916 9   1698279.40147  21045442.573    21045452.0124
  24091832.215    -3624914.974 8  -2819210.66145  24091831.881    24091846.7684
  23987764.593    16241043.094 8  12495299.92045  23987764.675    23987778.6734
 00  2 29 18 41 30.0000000  0  9 02 27 19 26 04 07 08 11 13
  21207032.587    -4745267.640 9  -3706036.08247  21207031.907    21207040.7334
  21955399.387     6385750.529 8   4970499.07846  21955399.093    21955410.2684
  24322547.298    18413808.149 7  14335768.53145  24322547.080    24322566.2584
  22491029.610   -12939926.229 8 -10073867.89046  22491029.644    22491039.7174
  24130323.427    -3187789.254 7  -2458545.46345  24130323.854    24130343.1914
  20503328.372   -21394836.227 9 -16667600.41448  20503327.662    20503335.9284
  21058500.629     2256955.703 9   1751746.93447  21058500.004    21058509.4404
  24099856.576    -3582747.427 8  -2786352.97845  24099856.206    24099871.3064
  24007056.476    16342420.929 8  12574295.31845  24007056.630    24007070.5584
 00  2 29 18 42  0.0000000  0  9 02 27 19 26 04 07 08 11 13
  21208411.394    -4738022.098 9  -3700390.24647  21208410.723    21208419.5674
  21971246.631     6469027.350 8   5035389.95046  21971246.283    21971257.5574
  24342205.312    18517108.411 7  14416261.85145  24342204.912    24342224.0134
  22492998.389   -12929580.372 8 -10065806.21846  22492998.471    22493008.5384
  24110528.208    -3291813.089 7  -2539602.62745  24110528.589    24110547.6764
  20501154.918   -21406257.521 9 -16676500.11848  20501154.226    20501162.4814
  21071625.763     2325928.600 9   1805491.95147  21071625.137    21071634.6114
  24107965.611    -3540134.285 8  -2753148.08945  24107965.223    24107980.4004
  24026350.205    16443808.555 8  12653298.33045  24026350.333    24026364.3834
 00  2 29 18 42 30.0000000  0  9 02 27 19 26 04 07 08 11 13
  21209806.665    -4730690.202 9  -3694677.12347  21209805.977    21209814.8454
  21987154.630     6552624.387 8   5100530.34046  21987154.389    21987165.6914
  24361889.535    18620549.928 7  14496865.31745  24361889.324    24361908.6874
  22495067.246   -12918708.716 8 -10057334.83546  22495067.299    22495077.3914
  24090725.965    -3395874.203 7  -2620688.86745  24090726.108    24090745.0934
  20499062.397   -21417253.730 9 -16685068.59248  20499061.725    20499069.9444
  21084821.738     2395273.626 9   1859526.92747  21084821.112    21084830.6494
  24116160.232    -3497072.178 8  -2719593.38045  24116159.730    24116175.0684
  24045643.315    16545192.802 8  12732298.73845  24045643.417    24045657.4734
 00  2 29 18 43  0.0000000  0  9 02 27 19 26 04 07 08 11 13
  21211218.237    -4723272.609 9  -3688897.21547  21211217.549    21211226.4054
  22003126.699     6636557.606 8   5165932.68046  22003126.442    22003137.7684
  24381596.264    18724107.046 7  14577558.81545  24381595.863    24381615.2434
  22497235.623   -12907314.201 8 -10048456.03846  22497235.638    22497245.7024
  24070914.615    -3499982.516 7  -2701811.89845  24070914.723    24070933.5634
  20497053.912   -21427808.729 9 -16693293.27148  20497053.205    20497061.4384
  21098091.123     2465004.661 9   1913862.68347  21098090.516    21098100.1434
  24124442.131    -3453550.655 8  -2685680.67545  24124441.826    24124456.8874
  24064940.028    16646596.637 7  12811314.38345  24064940.149    24064954.2794
 00  2 29 18 43 30.0000000  0  9 02 27 19 26 04 07 08 11 13
  21212647.144    -4715763.925 9  -3683046.31747  21212646.430    21212655.2954
  22019165.955     6720843.966 8   5231610.19946  22019165.738    22019177.0864
  24401324.530    18827780.963 7  14658343.36345  24401324.145    24401344.2244
  22499501.655   -12895405.713 8 -10039176.73546  22499501.749    22499511.8574
  24051093.964    -3604138.590 7  -2782972.14145  24051094.075    24051112.8344
  20495130.053   -21437918.858 9 -16701171.29548  20495129.277    20495137.5544
  21111435.739     2535130.805 8   1968506.31947  21111435.127    21111444.8144
  24132814.908    -3409552.653 8  -2651396.67045  24132814.569    24132829.6794
  24084243.137    16748034.189 8  12890356.30945  24084243.315    24084257.5404
 00  2 29 18 44  0.0000000  0  9 02 27 19 26 04 07 08 11 13
  21214096.360    -4708148.145 9  -3677111.97547  21214095.697    21214104.5724
  22035275.390     6805499.015 8   5297575.02046  22035275.137    22035286.6824
  24421075.182    18931569.429 7  14739217.08845  24421074.901    24421094.9134
  22501864.210   -12882990.970 8 -10029502.95346  22501864.273    22501874.4184
  24031263.615    -3708345.992 7  -2864172.39145  24031263.793    24031282.5494
  20493294.554   -21447564.146 9 -16708687.11448  20493293.838    20493302.0914
  21124857.708     2605663.293 9   2023466.59247  21124857.136    21124866.7904
  24141279.016    -3365073.714 8  -2616737.94545  24141278.620    24141293.7914
  24103551.868    16849501.384 8  12969421.33045  24103552.017    24103566.3804
 00  2 29 18 44 30.0000000  0  9 02 27 19 26 04 07 08 11 13
  21215569.201    -4700408.486 9  -3671081.09847  21215568.527    21215577.3934
  22051458.430     6890541.144 8   5363841.44746  22051458.253    22051469.8434
  24440850.392    19035489.237 7  14820193.23945  24440850.151    24440870.7314
  22504326.230   -12870052.843 8 -10019421.32546  22504326.369    22504336.5444
  24011425.019    -3812597.410 8  -2945406.97645  24011425.166    24011443.7834
  20491549.387   -21456735.106 9 -16715833.31948  20491548.666    20491556.9154
  21138359.093     2676612.812 9   2078751.82247  21138358.539    21138368.1594
  24149833.999    -3320116.721 8  -2581706.70645  24149833.737    24149849.1504
  24122869.571    16951015.412 7  13048522.82745  24122869.704    24122884.2184
 00  2 29 18 45  0.0000000  0  9 02 27 19 26 04 07 08 11 13
  21217068.298    -4692530.643 9  -3664942.54847  21217067.630    21217076.4944
  22067716.427     6975975.926 8   5430413.83146  22067716.168    22067727.6834
  24460654.290    19139557.622 7  14901285.12245  24460654.131    24460674.0544
  22506888.849   -12856586.057 8 -10008927.76946  22506889.075    22506899.2374
  23991579.078    -3916888.613 7  -3026672.52445  23991579.056    23991597.5064
  20489893.061   -21465438.830 9 -16722615.44348  20489892.373    20489900.6314
  21151939.175     2747976.203 9   2134359.54647  21151938.638    21151948.2984
  24158481.624    -3274674.383 8  -2546297.28345  24158481.241    24158496.5144
  24142196.361    17052577.396 8  13127661.67945  24142196.575    24142211.0394
 00  2 29 18 45 30.0000000  0  9 02 27 19 26 04 07 08 11 13
  21218595.508    -4684505.462 9  -3658689.19847  21218594.822    21218603.6804
  22084045.593     7061785.014 8   5497277.88046  22084045.273    22084056.8234
  24480487.681    19243782.004 7  14982498.59145  24480487.630    24480507.7994
  22509553.873   -12842581.470 8  -9998015.15546  22509554.090    22509564.2784
  23971728.168    -4021203.930 7  -3107956.89745  23971728.238    23971746.7224
  20488323.493   -21473686.881 9 -16729042.50048  20488322.829    20488331.1024
  21165596.114     2819743.638 8   2190282.09547  21165595.623    21165605.3064
  24167217.229    -3228769.711 8  -2510527.60745  24167216.913    24167232.1944
  24161526.592    17154157.572 8  13206814.73045  24161526.902    24161541.3314
 00  2 29 18 46  0.0000000  0  9 02 27 19 26 04 07 08 11 13
  21220151.186    -4676330.571 9  -3652319.18647  21220150.495    21220159.3534
  22100442.306     7147949.833 8   5564419.12946  22100441.982    22100453.5894
  24500351.630    19348164.848 7  15063835.56445  24500351.479    24500371.7394
  22512319.121   -12828050.571 8  -9986692.41846  22512319.236    22512329.4344
  23951872.729    -4125544.925 7  -3189261.27045  23951872.565    23951890.8664
  20486837.056   -21481498.122 9 -16735129.18048  20486836.368    20486844.6514
  21179328.383     2891906.445 9   2246512.72947  21179327.856    21179337.5654
  24176039.069    -3182411.786 7  -2474404.77645  24176038.656    24176053.8214
  24180859.127    17255750.182 8  13285977.47545  24180859.699    24180874.2024
 00  2 29 18 46 30.0000000  0  8 02 27 26 04 07 08 11 13
  21221736.041    -4668002.263 9  -3645829.63447  21221735.368    21221744.2454
  22116905.962     7234466.527 8   5631834.55246  22116905.645    22116917.2454
  22515183.460   -12812999.043 8  -9974964.00946  22515183.463    22515193.6604
  23932013.841    -4229901.741 7  -3270577.95945  23932013.952    23932032.0694
  20485429.303   -21488895.913 9 -16740893.69148  20485428.643    20485436.9054
  21193135.128     2964460.684 9   2303048.38447  21193134.588    21193144.2824
  24184945.860    -3135606.345 7  -2437933.16045  24184945.580    24184960.8844
  24200194.638    17357357.488 8  13365151.64745  24200195.173    24200209.8184
 00  2 29 18 47  0.0000000  0  8 02 27 26 04 07 08 11 13
  21223351.655    -4659512.338 9  -3639214.14347  21223350.990    21223359.8804
  22133433.342     7321317.092 8   5699510.12646  22133432.923    22133444.4734
  22518144.825   -12797438.727 8  -9962839.13846  22518144.633    22518154.7204
  23912151.322    -4334280.084 7  -3351911.40445  23912151.203    23912169.2074
  20484100.047   -21495881.492 9 -16746336.99948  20484099.363    20484107.6044
  21207015.803     3037403.158 8   2359886.54647  21207015.209    21207024.9024
  24193935.894    -3088364.363 7  -2401121.41945  24193935.537    24193950.8524
  24219530.080    17458964.875 7  13444325.89245  24219530.787    24219545.4504
 00  2 29 18 47 30.0000000  0  8 02 27 26 04 07 08 11 13
  21224997.682    -4650862.479 9  -3632474.02247  21224997.010    21225005.9384
  22150019.780     7408479.122 8   5767428.40246  22150019.381    22150030.9094
  22521199.508   -12781386.606 8  -9950331.04146  22521199.238    22521209.4164
  23892283.221    -4438685.624 7  -3433266.03845  23892283.278    23892301.3264
  20482849.718   -21502451.788 9 -16751456.70148  20482849.039    20482857.2834
  21220969.575     3110730.458 9   2417024.58747  21220968.999    21220978.7014
  24203008.797    -3040686.306 7  -2363969.87845  24203008.445    24203024.0774
  24238864.111    17560564.214 8  13523493.87345  24238864.822    24238879.5184
 00  2 29 18 48  0.0000000  0  8 02 27 26 04 07 08 11 13
  21226672.032    -4642063.860 9  -3625617.98047  21226671.351    21226680.2794
  22166669.927     7495975.628 8   5835607.32146  22166669.524    22166681.0834
  22524348.562   -12764837.961 8  -9937436.04446  22524348.378    22524358.5974
  23872410.105    -4543118.334 7  -3514641.81245  23872410.085    23872428.0024
  20481680.963   -21508593.517 9 -16756242.45448  20481680.298    20481688.5854
  21234999.756     3184458.851 9   2474475.16747  21234999.136    21235008.8714
  24212167.977    -2992554.985 7  -2326465.13245  24212167.496    24212183.2174
  24258196.861    17662156.323 8  13602656.21145  24258197.399    24258212.2304
 00  2 29 18 48 30.0000000  0  8 02 27 26 04 07 08 11 13
  21228371.913    -4633131.173 9  -3618657.47947  21228371.214    21228380.1914
  22183386.111     7583819.156 8   5904056.64546  22183385.731    22183397.3814
  22527594.255   -12747781.937 8  -9924145.67846  22527594.071    22527604.3244
  23852533.095    -4647572.128 8  -3596034.01245  23852533.095    23852550.7504
  20480598.830   -21514280.292 9 -16760673.69348  20480598.127    20480606.4504
  21249107.362     3258594.877 9   2532243.38847  21249106.809    21249116.5994
  24221415.030    -2943962.761 7  -2288601.22045  24221414.404    24221430.3414
  24277524.838    17763723.740 7  13681799.29145  24277525.369    24277540.2084
 00  2 29 18 49  0.0000000  0  8 02 27 26 04 07 08 11 13
  21230098.616    -4624057.133 9  -3611586.83747  21230097.919    21230106.9464
  22200170.688     7672022.201 8   5972786.09946  22200170.372    22200182.0064
  22530938.018   -12730209.737 8  -9910453.10246  22530937.966    22530948.2394
  23832654.816    -4752031.976 7  -3677430.91345  23832654.648    23832672.3044
  20479606.723   -21519493.616 9 -16764736.01848  20479606.074    20479614.3754
  21263293.887     3333145.172 9   2590334.40547  21263293.368    21263303.1244
  24230754.898    -2894882.950 7  -2250357.35045  24230754.348    24230770.0624
  24296847.776    17865264.564 8  13760921.66545  24296848.062    24296863.0954
 00  2 29 18 49 30.0000000  0  9 09 02 27 26 04 07 08 11 13
  24476185.640    -3784181.616 7  -2931327.90945  24476185.519    24476201.5974
  21231853.486    -4614835.247 9  -3604400.99547  21231852.804    21231861.8114
  22217032.309     7760630.255 8   6041831.14546  22217031.979    22217043.7974
  22534382.319   -12712109.448 8  -9896349.03446  22534382.392    22534392.5964
  23812784.062    -4856451.531 7  -3758796.41645  23812784.023    23812801.6144
  20478709.023   -21524211.374 9 -16768412.18448  20478708.355    20478716.6464
  21277561.933     3408123.308 9   2648758.80047  21277561.360    21277571.0594
  24240191.559    -2845293.055 7  -2211715.96345  24240190.854    24240207.1644
  24316168.672    17966794.602 7  13840035.62545  24316168.876    24316184.0224
 00  2 29 18 50  0.0000000  0  9 09 02 27 26 04 07 08 11 13
  24457039.970    -3884793.518 7  -3009726.69045  24457039.674    24457055.6404
  21233631.322    -4605492.546 9  -3597121.00847  21233630.633    21233639.7104
  22233967.952     7849626.998 8   6111179.06246  22233967.634    22233979.5114
  22537921.009   -12693513.505 8  -9881858.73746  22537921.152    22537931.3144
  23792918.088    -4960846.197 7  -3840142.54645  23792918.126    23792935.8404
  20477900.124   -21528462.280 9 -16771724.57248  20477899.445    20477907.7154
  21291904.669     3483493.876 9   2707488.98847  21291904.091    21291913.7694
  24249718.971    -2795226.467 7  -2172703.17345  24249718.378    24249734.4784
  24335483.805    18068293.350 7  13919125.20645  24335483.754    24335498.8854
 00  2 29 18 50 30.0000000  0  9 09 02 27 26 04 07 08 11 13
  24437905.103    -3985344.644 7  -3088078.15245  24437905.191    24437921.3604
  21235436.130    -4596008.287 9  -3589730.71947  21235435.484    21235444.5554
  22250973.529     7938990.407 8   6180812.69146  22250973.131    22250985.0074
  22541552.044   -12674432.154 8  -9866990.19046  22541552.198    22541562.3654
  23773058.560    -5065208.168 7  -3921463.18045  23773058.445    23773076.2274
  20477178.368   -21532254.867 9 -16774679.82948  20477177.705    20477185.9524
  21306319.902     3559245.660 8   2766516.22447  21306319.302    21306328.9534
  24259336.975    -2744684.470 7  -2133319.91545  24259336.291    24259352.2374
  24354796.602    18169781.077 7  13998206.19845  24354796.555    24354811.5984
 00  2 29 18 51  0.0000000  0  9 09 02 27 26 04 07 08 11 13
  24418784.154    -4085825.974 7  -3166375.22545  24418784.437    24418800.2944
  21237270.476    -4586369.259 9  -3582219.82847  21237269.804    21237278.8834
  22268047.380     8028713.620 8   6250726.68546  22268046.981    22268059.0264
  22545277.120   -12654856.903 8  -9851736.79646  22545277.290    22545287.4684
  23753205.419    -5169536.918 7  -4002757.92945  23753205.230    23753222.8684
  20476540.832   -21535605.329 9 -16777290.57148  20476540.166    20476548.4094
  21320804.451     3635362.257 9   2825827.73247  21320803.884    21320813.5764
  24269043.325    -2693677.224 7  -2093574.12345  24269042.702    24269058.8884
  24374109.010    18271266.777 7  14077285.60245  24374108.865    24374124.2754
 00  2 29 18 51 30.0000000  0  9 09 02 27 26 04 07 08 11 13
  24399678.876    -4186227.842 7  -3244610.35045  24399678.385    24399694.2924
  21239131.973    -4576587.109 9  -3574597.40847  21239131.305    21239140.3704
  22285185.980     8118776.628 8   6320905.44346  22285185.597    22285197.6394
  22549097.656   -12634779.830 8  -9836092.36446  22549097.855    22549108.0454
  23733355.398    -5273846.194 7  -4084037.55645  23733355.441    23733373.0604
  20475985.837   -21538521.867 9 -16779563.19848  20475985.190    20475993.4284
  21335356.648     3711833.874 8   2885415.87147  21335356.110    21335365.8124
  24278835.567    -2642218.178 7  -2053476.24245  24278835.211    24278851.6024
  24393421.299    18372752.291 7  14156364.86745  24393421.126    24393436.6004
 00  2 29 18 52  0.0000000  0  9 09 02 27 26 04 07 08 11 13
  24380588.839    -4286543.899 7  -3322778.64045  24380588.889    24380604.7314
  21241020.650    -4566661.862 9  -3566863.49847  21241019.978    21241029.1284
  22302382.725     8209145.605 8   6391322.61246  22302382.391    22302394.5664
  22553016.444   -12614186.258 8  -9820045.45646  22553016.721    22553026.9304
  23713503.567    -5378166.408 7  -4165325.66945  23713503.584    23713521.2484
  20475510.044   -21541022.409 9 -16781511.67648  20475509.340    20475517.5964
  21349977.200     3788664.635 8   2945283.86447  21349976.668    21349986.3844
  24288713.620    -2590309.447 7  -2013027.99445  24288713.213    24288729.3784
  24412732.739    18474232.091 7  14235439.66745  24412732.257    24412748.1184
 00  2 29 18 52 30.0000000  0  9 09 02 27 26 04 07 08 11 13
  24361516.051    -4386772.651 7  -3400878.89645  24361515.864    24361531.7014
  21242934.013    -4556607.469 9  -3559028.95647  21242933.343    21242942.5084
  22319636.149     8299812.076 8   6461971.60546  22319635.837    22319648.0574
  22557036.595   -12593059.599 8  -9803583.16246  22557036.968    22557047.2114
  23693649.141    -5482500.087 7  -4246624.30345  23693649.060    23693666.8294
  20475110.570   -21543120.974 9 -16783146.93348  20475109.876    20475118.1794
  21364666.031     3865854.633 8   3005431.77547  21364665.500    21364675.2904
  24298674.971    -2537962.169 7  -1972237.96045  24298674.706    24298691.0334
  24432038.145    18575683.142 7  14314492.05645  24432037.952    24432053.6994
 00  2 29 18 53  0.0000000  0  9 09 02 27 26 04 07 08 11 13
  24342457.162    -4486928.459 7  -3478922.29845  24342456.739    24342472.5934
  21244868.408    -4546442.296 9  -3551108.08547  21244867.744    21244876.9204
  22336945.706     8390773.569 8   6532850.50046  22336945.394    22336957.7034
  22561156.557   -12571408.943 8  -9786712.56246  22561156.966    22561167.2484
  23673791.576    -5586850.231 7  -4327935.76245  23673791.645    23673809.2304
  20474786.298   -21544824.869 9 -16784474.65348  20474785.671    20474793.9574
  21379421.871     3943397.326 8   3065854.52147  21379421.414    21379431.2894
  24308719.488    -2485178.154 7  -1931107.63645  24308719.145    24308735.5294
  24451332.841    18677078.126 7  14393500.75745  24451332.933    24451349.0304
 00  2 29 18 53 30.0000000  0  9 09 02 27 26 04 07 08 11 13
  24323412.044    -4587011.929 7  -3556909.35845  24323411.502    24323427.1314
  21246824.574    -4536162.622 9  -3543098.00047  21246823.900    21246833.0664
  22354310.975     8482027.232 8   6603957.03246  22354310.613    22354322.9594
  22565373.129   -12549251.393 8  -9769446.97546  22565373.457    22565383.7614
  23653932.721    -5691208.520 7  -4409253.56145  23653932.774    23653950.1744
  20474537.065   -21546134.992 9 -16785495.54348  20474536.343    20474544.6454
  21394247.363     4021305.061 8   3126561.69747  21394246.841    21394256.7904
  24318848.254    -2431951.632 7  -1889632.46545  24318847.951    24318864.2484
  24470616.352    18778413.946 7  14472463.33745  24470616.824    24470632.8354
 00  2 29 18 54  0.0000000  0  9 09 02 27 26 04 07 08 11 13
  24304378.076    -4687034.508 7  -3634848.94545  24304377.889    24304393.4134
  21248802.740    -4525767.499 9  -3534997.94947  21248802.070    21248811.2414
  22371733.140     8573580.610 8   6675297.11846  22371732.811    22371745.1424
  22569682.636   -12526605.648 8  -9751800.97446  22569682.844    22569693.2184
  23634073.608    -5795566.053 8  -4490570.78745  23634073.792    23634091.1474
  20474362.814   -21547050.343 9 -16786208.82148  20474362.164    20474370.4654
  21409141.078     4099571.544 8   3187548.42847  21409140.520    21409150.5654
  24329056.590    -2378306.397 7  -1847831.02245  24329056.245    24329072.4884
  24489888.253    18879687.437 7  14551377.38545  24489888.672    24489904.8744
 00  2 29 18 54 30.0000000  0  9 09 02 27 26 04 07 08 11 13
  24285356.215    -4786994.906 7  -3712740.07645  24285356.038    24285371.5144
  21250805.837    -4515241.372 9  -3526795.82047  21250805.154    21250814.3784
  22389216.409     8665455.659 8   6746887.85346  22389216.128    22389228.5624
  22574083.264   -12503480.194 8  -9733781.17546  22574083.477    22574093.8934
  23614220.455    -5899894.696 8  -4571865.46645  23614220.515    23614237.5794
  20474267.919   -21547549.179 9 -16786597.54248  20474267.280    20474275.5554
  21424103.576     4178199.347 8   3248816.70847  21424103.012    21424113.1344
  24339346.575    -2324232.471 7  -1805695.52745  24339346.201    24339362.5674
  24509152.751    18980922.327 7  14630261.33645  24509153.336    24509169.6764
 00  2 29 18 55  0.0000000  0  9 09 02 27 26 04 07 08 11 13
  24266344.904    -4886903.048 7  -3790590.43345  24266344.160    24266359.6244
  21252836.085    -4504572.343 9  -3518482.34347  21252835.398    21252844.6524
  22406760.723     8757650.896 8   6818728.08446  22406760.472    22406772.9434
  22578571.334   -12479895.101 8  -9715403.20346  22578571.550    22578582.0074
  23594372.962    -6004193.541 8  -4653136.94745  23594372.916    23594389.8524
  20474254.028   -21547622.282 9 -16786654.52348  20474253.399    20474261.6654
  21439135.387     4257191.069 8   3310368.56147  21439134.745    21439144.9764
  24349717.166    -2269735.280 7  -1763230.24445  24349716.791    24349732.9894
  24528412.078    19082129.375 7  14709123.58745  24528412.852    24528429.0114
 00  2 29 18 55 30.0000000  0  9 09 02 27 26 04 07 08 11 13
  24247349.149    -4986724.732 7  -3868373.46245  24247348.640    24247364.1604
  21254896.455    -4493744.896 9  -3510045.42747  21254895.822    21254905.0564
  22424369.511     8850185.517 8   6890832.77846  22424369.213    22424381.8484
  22583149.227   -12455838.058 8  -9696657.49946  22583149.501    22583159.9224
  23574532.100    -6108456.374 8  -4734380.36545  23574532.021    23574549.0614
  20474323.067   -21547259.383 9 -16786371.76948  20474322.451    20474330.7184
  21454240.290     4336567.354 8   3372220.06247  21454239.669    21454249.9364
  24360166.458    -2214824.161 7  -1720442.37745  24360166.078    24360182.3464
  24547669.355    19183323.680 7  14787975.90345  24547669.830    24547686.0084
 00  2 29 18 56  0.0000000  0  9 09 02 27 26 04 07 08 11 13
  24228371.476    -5086451.539 7  -3946082.55845  24228371.338    24228386.7464
  21256986.071    -4482764.162 9  -3501489.07547  21256985.435    21256994.6614
  22442044.642     8943068.757 8   6963209.11246  22442044.396    22442057.1654
  22587818.756   -12431300.282 8  -9677537.19946  22587818.898    22587829.3264
  23554699.730    -6212675.078 7  -4815589.39045  23554699.651    23554716.4804
  20474475.356   -21546459.238 9 -16785748.30848  20474474.716    20474482.9954
  21469417.709     4416324.968 8   3434368.70647  21469417.122    21469427.4104
  24370695.433    -2159494.752 7  -1677328.61145  24370695.000    24370711.3544
  24566922.732    19284498.275 7  14866812.85445  24566923.102    24566939.3784
 00  2 29 18 56 30.0000000  0  9 09 02 27 26 04 07 08 11 13
  24209413.001    -5186079.667 7  -4023714.73245  24209412.692    24209428.0404
  21259105.726    -4471625.679 9  -3492809.79447  21259105.088    21259114.2694
  22459784.938     9036293.315 8   7035851.40446  22459784.724    22459797.3794
  22592579.445   -12406283.240 8  -9658043.44846  22592579.533    22592589.9304
  23534873.978    -6316858.094 8  -4896770.59945  23534873.966    23534890.7694
  20474709.205   -21545230.402 9 -16784790.79748  20474708.584    20474716.8654
  21484668.432     4496467.796 8   3496817.52047  21484667.834    21484678.2104
  24381307.881    -2103725.910 7  -1633872.40645  24381307.470    24381323.8254
  24586168.001    19385631.194 7  14945617.33545  24586168.269    24586184.7664
 00  2 29 18 57  0.0000000  0  9 09 02 27 26 04 07 08 11 13
  24190474.918    -5285600.224 7  -4101263.08345  24190474.673    24190489.8514
  21261255.871    -4460326.780 9  -3484005.51447  21261255.219    21261264.4504
  22477589.731     9129857.300 8   7108758.18346  22477589.508    22477602.1084
  22597432.857   -12380779.329 8  -9638170.31546  22597432.823    22597443.2074
  23515052.922    -6421017.716 8  -4977933.58245  23515052.829    23515069.5254
  20475023.230   -21543580.510 9 -16783505.19048  20475022.567    20475030.8504
  21499990.776     4576987.073 8   3559559.68347  21499990.206    21500000.5864
  24392002.425    -2047526.199 7  -1590080.46445  24392001.949    24392018.2884
  24605400.048    19486694.171 7  15024367.32745  24605400.156    24605416.9294
 00  2 29 18 57 30.0000000  0  9 09 02 27 26 04 07 08 11 13
  24171558.626    -5385006.445 7  -4178722.32345  24171558.189    24171573.3084
  21263435.216    -4448874.495 9  -3475081.72047  21263434.550    21263443.8294
  22495457.637     9223753.197 8   7181923.59746  22495457.418    22495470.1284
  22602380.424   -12354779.085 8  -9617910.43346  22602380.537    22602390.9794
  23495234.726    -6525162.280 8  -5059084.82545  23495234.498    23495251.1254
  20475415.924   -21541516.948 9 -16781897.25348  20475415.285    20475423.5634
  21515381.107     4657862.815 8   3622579.58947  21515380.512    21515390.8594
  24402781.106    -1990883.818 7  -1545943.59745  24402780.587    24402797.1924
  24624616.249    19587674.736 7  15103053.09145  24624616.432    24624633.2284
 00  2 29 18 58  0.0000000  0  9 09 02 27 26 04 07 08 11 13
  24152659.138    -5484321.344 7  -4256110.42145  24152659.002    24152674.0564
  21265643.653    -4437269.205 9  -3466038.70047  21265643.001    21265652.2984
  22513385.440     9317963.154 8   7255333.72046  22513385.168    22513397.7724
  22607421.543   -12328288.326 8  -9597268.33346  22607421.588    22607432.0404
  23475419.561    -6629289.680 7  -5140222.71345  23475419.476    23475436.0354
  20475888.022   -21539036.023 9 -16779964.09648  20475887.398    20475895.6774
  21530836.509     4739080.734 8   3685866.13847  21530835.892    21530846.2434
  24413645.963    -1933788.448 7  -1501453.78545  24413645.494    24413661.8854
  24643817.438    19688575.877 7  15181676.95045  24643817.620    24643834.6384
 00  2 29 18 58 30.0000000  0  9 09 02 27 26 04 07 08 11 13
  24133777.823    -5583543.560 7  -4333426.28245  24133777.624    24133792.5154
  21267882.176    -4425506.230 9  -3456872.80447  21267881.502    21267890.7984
  22531372.214     9412484.263 8   7328986.30946  22531372.016    22531384.7684
  22612555.060   -12301310.587 8  -9576246.77546  22612555.214    22612565.7414
  23455608.252    -6733397.549 8  -5221345.36145  23455608.162    23455624.5714
  20476441.044   -21536130.091 9 -16777699.76248  20476440.365    20476448.6684
  21546357.842     4820645.543 8   3749422.98647  21546357.217    21546367.5744
  24424593.865    -1876256.147 7  -1456623.51445  24424593.506    24424610.1104
  24663004.965    19789402.911 8  15260243.08645  24663004.786    24663021.6894
 00  2 29 18 59  0.0000000  0  9 09 02 27 26 04 07 08 11 13
  24114915.895    -5682662.908 7  -4410661.96845  24114915.592    24114930.7244
  21270149.254    -4413592.403 9  -3447589.36347  21270148.642    21270157.9864
  22549418.719     9507318.493 8   7402882.87146  22549418.522    22549431.3954
  22617782.973   -12273838.025 8  -9554839.64946  22617783.094    22617793.5394
  23435804.791    -6837463.986 8  -5302435.74245  23435804.591    23435821.0764
  20477074.599   -21532800.275 9 -16775105.12848  20477073.977    20477082.2964
  21561944.857     4902556.249 8   3813249.36847  21561944.327    21561954.7534
  24435624.159    -1818292.289 8  -1411456.94745  24435623.699    24435640.4664
  24682180.458    19890166.757 7  15338759.97345  24682179.412    24682196.6484
 00  2 29 18 59 30.0000000  0  9 09 02 27 26 04 07 08 11 13
  24096072.643    -5781681.405 7  -4487819.09945  24096072.906    24096088.1014
  21272442.197    -4401543.632 9  -3438200.76747  21272441.515    21272450.8424
  22567522.158     9602451.300 8   7477012.10546  22567521.909    22567534.9174
  22623102.895   -12245882.185 8  -9533055.94846  22623102.992    22623113.3844
  23416012.050    -6941473.602 8  -5383481.84845  23416011.973    23416028.2864
  20477788.706   -21529047.902 9 -16772181.22848  20477788.042    20477796.3804
  21577598.680     4984817.620 8   3877348.99947  21577598.210    21577608.7354
  24446737.965    -1759889.549 7  -1365948.40345  24446737.566    24446754.0604
  24701343.362    19990867.738 7  15417227.88345  24701342.525    24701359.7114
 00  2 29 19  0  0.0000000  0  9 09 02 27 26 04 07 08 11 13
  24077249.297    -5880599.490 8  -4564897.96045  24077249.218    24077264.5144
  21274760.860    -4389359.052 9  -3428706.35647  21274760.210    21274769.5304
  22585683.723     9697890.273 8   7551379.89546  22585683.456    22585696.6914
  22628514.119   -12217446.701 8  -9510898.50446  22628514.126    22628524.5164
  23396233.940    -7045407.031 8  -5464468.61545  23396233.874    23396250.1024
  20478583.720   -21524870.175 9 -16768925.88548  20478583.082    20478591.3974
  21593322.326     5067445.619 8   3941734.31147  21593321.794    21593332.3984
  24457932.852    -1701060.549 7  -1320107.71245  24457932.415    24457949.1544
  24720492.444    20091497.378 7  15495640.19445  24720492.009    24720509.3614
 00  2 29 19  0 30.0000000  0  9 09 02 27 26 04 07 08 11 13
  24058446.912    -5979406.313 7  -4641890.14745  24058446.764    24058462.1144
  21277105.646    -4377037.617 9  -3419105.29647  21277104.937    21277114.2604
  22603905.077     9793643.382 8   7625992.46046  22603904.862    22603918.0824
  22634017.672   -12188525.615 8  -9488362.66446  22634017.666    22634028.0894
  23376471.820    -7149257.298 8  -5545390.56545  23376471.756    23376487.7754
  20479458.671   -21520272.452 9 -16765343.26648  20479458.046    20479466.3344
  21609115.251     5150437.374 8   4006403.06047  21609114.711    21609125.3894
  24469207.472    -1641811.942 7  -1273940.03245  24469206.981    24469223.5714
  24739625.152    20192041.353 7  15573985.73045  24739625.063    24739642.8224
 00  2 29 19  1  0.0000000  0  9 09 02 27 26 04 07 08 11 13
  24039664.998    -6078104.826 7  -4718797.95445  24039664.927    24039680.1994
  21279476.509    -4364578.592 9  -3409397.02247  21279475.855    21279485.1764
  22622183.691     9889696.829 8   7700839.07946  22622183.388    22622196.6474
  22639614.352   -12159115.198 8  -9465445.53246  22639614.321    22639624.7824
  23356722.962    -7253037.100 8  -5626257.59645  23356722.808    23356738.9484
  20480412.716   -21515259.134 9 -16761436.80348  20480412.046    20480420.3384
  21624975.417     5233782.713 8   4071347.33847  21624974.931    21624985.6314
  24480564.533    -1582131.363 7  -1227435.77345  24480564.088    24480580.5624
  24758739.730    20292489.194 7  15652256.36945  24758740.210    24758757.7094
 00  2 29 19  1 30.0000000  0  9 09 02 27 26 04 07 08 11 13
  24020903.627    -6176697.548 7  -4795623.31045  24020903.225    24020918.3904
  21281875.761    -4351970.794 9  -3399572.81847  21281875.094    21281884.4384
  22640519.203     9986050.055 8   7775919.26546  22640518.904    22640532.2014
  22645303.678   -12129217.772 8  -9442148.90146  22645303.662    22645314.1344
  23336985.739    -7356755.938 8  -5707077.13545  23336985.412    23337001.5964
  20481447.031   -21509823.746 9 -16757201.45048  20481446.400    20481454.6704
  21640903.291     5317483.686 8   4136568.72847  21640902.854    21640913.5754
  24492000.503    -1522034.609 7  -1180607.22245  24492000.132    24492016.6354
  24777837.683    20392846.161 7  15730456.20345  24777837.749    24777855.4384
 00  2 29 19  2  0.0000000  0  9 09 02 27 26 04 07 08 11 13
  24002162.716    -6275180.276 8  -4872362.95945  24002162.479    24002177.5604
  21284306.200    -4339198.852 9  -3389620.70347  21284305.532    21284314.9064
  22658913.395    10082709.831 8   7851238.33346  22658912.981    22658926.2414
  22651084.290   -12098840.615 8  -9418478.46546  22651084.261    22651094.7904
  23317261.151    -7460406.751 8  -5787843.68845  23317260.976    23317277.0474
  20482561.415   -21503967.657 9 -16752638.27448  20482560.738    20482569.0084
  21656899.219     5401541.944 8   4202068.53047  21656898.761    21656909.4924
  24503512.556    -1461538.825 7  -1133467.75045  24503512.192    24503528.6704
  24796920.379    20493123.277 7  15808593.80445  24796920.189    24796938.0834
 00  2 29 19  2 30.0000000  0  9 09 02 27 26 04 07 08 11 13
  23983445.938    -6373536.744 7  -4949004.23645  23983445.756    23983460.7814
  21286769.010    -4326256.947 9  -3379536.15047  21286768.337    21286777.7764
  22677365.055    10179673.695 8   7926794.35146  22677364.737    22677378.1744
  22656955.645   -12067986.952 8  -9394436.72546  22656955.606    22656966.1154
  23297548.877    -7563993.909 8  -5868560.61445  23297548.763    23297564.6164
  20483756.300   -21497688.272 9 -16747745.24848  20483755.671    20483763.9354
  21672962.879     5485956.116 8   4267845.66847  21672962.350    21672973.0684
  24515102.655    -1400633.143 7  -1086008.87745  24515102.288    24515118.6544
  24815988.939    20593329.245 7  15886675.98345  24815988.888    24816006.9274
 00  2 29 19  3  0.0000000  0  9 09 02 27 26 04 07 08 11 13
  23964753.166    -6471767.424 7  -5025547.48045  23964752.937    23964767.9714
  21289264.105    -4313145.526 9  -3369319.50847  21289263.440    21289272.8634
  22695873.304    10276934.454 8   8002581.72946  22695873.044    22695886.5554
  22662916.507   -12036663.299 8  -9370028.75046  22662916.409    22662926.8804
  23277850.237    -7667509.097 8  -5949221.47845  23277850.261    23277865.9324
  20485030.826   -21490990.738 9 -16742526.39448  20485030.189    20485038.4764
  21689096.868     5570739.888 8   4333910.79947  21689096.311    21689107.0104
  24526770.774    -1339316.709 7  -1038230.00245  24526770.430    24526786.9134
  24835044.845    20693467.550 7  15964705.43845  24835044.945    24835062.8614
 00  2 29 19  3 30.0000000  0  9 09 02 27 26 04 07 08 11 13
  23946083.672    -6569875.515 8  -5101995.22845  23946083.561    23946098.4004
  21291790.685    -4299868.129 9  -3358973.54247  21291790.040    21291799.4584
  22714439.482    10374499.389 8   8078606.09746  22714439.330    22714452.8524
  22668962.758   -12004890.829 8  -9345271.05946  22668962.554    22668973.0364
  23258170.621    -7770925.053 8  -6029805.02245  23258170.644    23258186.1214
  20486383.485   -21483882.649 9 -16736987.62848  20486382.832    20486391.1184
  21705301.074     5655893.192 8   4400263.87647  21705300.543    21705311.2654
  24538515.996    -1277595.464 7   -990135.67945  24538515.568    24538532.1114
  24854089.031    20793541.181 7  16042684.49745  24854088.671    24854106.6944
 00  2 29 19  4  0.0000000  0  9 09 02 27 26 04 07 08 11 13
  23927436.831    -6667865.706 8  -5178351.08245  23927436.610    23927451.2824
  21294347.786    -4286430.560 9  -3348502.76047  21294347.120    21294356.6174
  22733063.368    10472367.602 8   8154866.79146  22733063.198    22733076.8384
  22675093.160   -11972675.408 8  -9320168.19846  22675092.989    22675103.5284
  23238509.748    -7874241.033 8  -6110310.66545  23238510.025    23238525.3894
  20487814.021   -21476365.278 9 -16731129.94448  20487813.372    20487821.6504
  21721574.182     5741408.375 8   4466898.94147  21721573.627    21721584.4464
  24550340.690    -1215458.276 7   -941717.25845  24550340.133    24550356.5404
  24873118.444    20893540.427 7  16120605.57345  24873118.307    24873136.4234
 00  2 29 19  4 30.0000000  0  8 09 02 27 26 04 07 08 11
  23908812.104    -6765739.501 8  -5254616.23245  23908811.794    23908826.3964
  21296933.993    -4272839.990 9  -3337912.75447  21296933.350    21296942.8274
  22751742.904    10570528.147 8   8231355.27046  22751742.716    22751756.5164
  22681311.233   -11939999.868 8  -9294706.81146  22681311.075    22681321.5974
  23218866.530    -7977466.610 8  -6190745.84245  23218866.564    23218881.8734
  20489322.475   -21468438.354 9 -16724953.12548  20489321.798    20489330.0914
  21737913.878     5827273.336 8   4533806.56147  21737913.276    21737924.2064
  24562245.294    -1152898.960 7   -892969.90045  24562244.831    24562261.5184
 00  2 29 19  5  0.0000000  0  8 09 02 27 26 04 07 08 11
  23890204.117    -6863523.699 8  -5330811.55845  23890204.016    23890218.5164
  21299544.258    -4259123.264 9  -3327224.43947  21299543.573    21299553.0244
  22770472.335    10668951.595 8   8308048.61146  22770472.080    22770485.9224
  22687613.262   -11906883.193 8  -9268901.67246  22687613.072    22687623.5814
  23199239.519    -8080605.626 8  -6271113.60545  23199239.561    23199254.8624
  20490904.738   -21460123.457 9 -16718473.99248  20490904.102    20490912.4004
  21754316.148     5913467.873 8   4600970.99347  21754315.611    21754326.6084
  24574225.403    -1089944.100 7   -843914.29745  24574224.957    24574241.6084
 00  2 29 19  5 30.0000000  0  8 09 02 27 26 04 07 08 11
  23871622.221    -6961171.888 8  -5406900.90445  23871622.090    23871636.5584
  21302184.088    -4245250.838 9  -3316414.80547  21302183.415    21302192.9294
  22789257.834    10767668.829 8   8384970.86846  22789257.575    22789271.5194
  22694005.826   -11873290.320 8  -9242725.47946  22694005.607    22694016.1434
  23179633.792    -8183633.048 8  -6351394.40145  23179633.865    23179649.0694
  20492569.343   -21451376.135 9 -16711657.91548  20492568.660    20492576.9534
  21770785.082     6000011.969 8   4668407.79847  21770784.569    21770795.5324
  24586284.772    -1026571.243 7   -794532.96245  24586284.309    24586301.1094
 00  2 29 19  6  0.0000000  0  8 09 02 27 26 04 07 08 11
  23853068.713    -7058670.109 8  -5482873.40645  23853068.695    23853083.1084
  21304853.398    -4231223.812 9  -3305484.69447  21304852.717    21304862.2314
  22808095.895    10866664.403 8   8462110.03946  22808095.803    22808109.9664
  22700489.849   -11839215.441 8  -9216173.69146  22700489.788    22700500.3824
  23160046.999    -8286560.675 8  -6431597.44045  23160047.024    23160062.1124
  20494318.087   -21442186.246 9 -16704496.98148  20494317.449    20494325.7184
  21787320.696     6086906.525 8   4736117.70747  21787320.192    21787331.2414
  24598422.563     -962787.738 7   -744831.64245  24598421.937    24598438.6834
 00  2 29 19  6 30.0000000  0  8 09 02 27 26 04 07 08 11
  23834546.681    -7156004.230 8  -5558718.01945  23834546.557    23834560.7994
  21307551.825    -4217043.765 9  -3294435.34847  21307551.159    21307560.6664
  22826987.032    10965936.403 8   8539464.57546  22826986.935    22827001.0224
  22707066.281   -11804655.179 8  -9189243.67946  22707066.355    22707077.0194
  23140482.938    -8389368.025 8  -6511706.76645  23140483.197    23140498.1944
  20496149.860   -21432560.535 9 -16696996.44448  20496149.171    20496157.4644
  21803924.698     6174159.908 8   4804107.20747  21803924.047    21803935.1714
  24610638.072     -898595.396 7   -694811.76345  24610637.659    24610654.4584
 00  2 29 19  7  0.0000000  0  8 09 02 27 26 04 07 08 11
  23816054.930    -7253177.800 8  -5634437.55045  23816054.909    23816069.0584
  21310279.210    -4202711.627 9  -3283267.49047  21310278.501    21310288.0274
  22845932.298    11065492.093 8   8617040.17346  22845932.050    22845945.9594
  22713731.216   -11769630.378 8  -9161951.68446  22713731.381    22713742.0594
  23120942.370    -8492053.951 8  -6591721.47245  23120942.385    23120957.4594
  20498060.730   -21422518.686 9 -16689171.65148  20498060.038    20498068.3724
  21820595.894     6261767.925 8   4872373.04847  21820595.375    21820606.5314
  24622931.002     -833996.060 7   -644474.76945  24622930.671    24622947.2874
 00  2 29 19  7 30.0000000  0  8 09 02 27 26 04 07 08 11
  23797593.349    -7350193.465 8  -5710034.01645  23797593.310    23797607.4274
  21313037.081    -4188218.629 9  -3271974.29747  21313036.442    21313045.9684
  22864931.731    11165333.217 8   8694838.20146  22864931.466    22864945.3544
  22720481.829   -11734156.459 8  -9134309.73646  22720481.907    22720492.5554
  23101420.854    -8594638.842 8  -6671657.47245  23101420.939    23101435.9554
  20500048.182   -21412074.462 9 -16681033.32748  20500047.502    20500055.8454
  21837333.320     6349721.892 8   4940908.43546  21837332.718    21837343.7344
  24635301.322     -768990.648 7   -593821.35545  24635300.765    24635317.6974
 00  2 29 19  8  0.0000000  0  8 09 02 27 26 04 07 08 11
  23779158.261    -7447070.777 8  -5785522.64745  23779157.942    23779172.0964
  21315826.909    -4173558.503 9  -3260550.87447  21315826.250    21315835.7474
  22883985.559    11265460.614 8   8772859.28746  22883985.256    22883999.2534
  22727317.212   -11698237.531 8  -9106321.03246  22727317.136    22727327.7394
  23081918.094    -8697125.290 8  -6751516.75945  23081918.321    23081933.1954
  20502107.242   -21401253.938 9 -16672601.78148  20502106.607    20502114.9014
  21854135.578     6438017.169 8   5009709.80346  21854134.937    21854145.8924
  24647751.371     -703564.984 7   -542840.42444  24647750.775    24647767.7564
 00  2 29 19  8 30.0000000  0  8 09 02 27 26 04 07 08 11
  23760744.363    -7543834.717 8  -5860922.95445  23760744.229    23760758.4404
  21318648.185    -4158732.893 9  -3248998.50447  21318647.507    21318657.0034
  22903094.755    11365878.666 8   8851106.83946  22903094.446    22903108.2594
  22734234.985   -11661884.509 8  -9077994.06146  22734234.917    22734245.4654
  23062431.584    -8799526.812 8  -6831309.87745  23062431.761    23062446.5334
  20504232.490   -21390086.098 9 -16663899.59548  20504231.796    20504240.1024
  21870998.888     6526633.852 8   5078761.60546  21870998.233    21871009.1914
  24660281.603     -637718.435 7   -491531.52144  24660281.223    24660297.6214
 00  2 29 19  9  0.0000000  0  7 09 02 27 26 04 07 08
  23742351.000    -7640491.164 8  -5936239.50245  23742351.052    23742365.1044
  21321502.198    -4143735.351 9  -3237312.15247  21321501.492    21321510.9774
  22922259.621    11466589.523 8   8929582.58746  22922259.240    22922273.2204
  22741233.335   -11625108.980 8  -9049337.86646  22741233.172    22741243.7054
  23042958.790    -8901857.818 8  -6911048.03945  23042958.702    23042973.3184
  20506425.130   -21378563.764 9 -16654921.18248  20506424.458    20506432.7534
  21887920.899     6615558.832 8   5148053.62946  21887920.198    21887931.1714
 00  2 29 19  9 30.0000000  0  7 09 02 27 26 04 07 08
  23723985.192    -7737004.070 8  -6011444.15745  23723985.237    23723999.1834
  21324394.927    -4128533.941 9  -3225466.94447  21324394.199    21324403.7184
  22941483.757    11567611.811 8   9008300.97646  22941483.411    22941497.4414
  22748316.106   -11587888.583 8  -9020335.01946  22748316.038    22748326.6044
  23023506.425    -9004079.254 8  -6990700.84945  23023506.509    23023520.9154
  20508694.635   -21366637.609 9 -16645628.10648  20508693.917    20508702.2444
  21904907.432     6704824.161 8   5217610.86846  21904906.828    21904917.9354
 00  2 29 19 10  0.0000000  0  7 09 02 27 26 04 07 08
  23705639.794    -7833409.671 8  -6086565.21345  23705639.707    23705653.6534
  21327316.552    -4113180.590 9  -3213503.33747  21327315.896    21327325.4544
  22960758.506    11668900.770 8   9087227.19445  22960758.098    22960772.3644
  22755477.459   -11550255.493 8  -8991010.57646  22755477.371    22755488.0534
  23004070.659    -9106213.741 8  -7070285.89546  23004070.714    23004085.0034
  20511032.908   -21354349.942 9 -16636053.33548  20511032.218    20511040.5414
  21921948.402     6794374.719 8   5287390.36146  21921947.821    21921959.0194
 00  2 29 19 10 30.0000000  0  7 09 02 27 26 04 07 08
  23687319.820    -7929680.405 8  -6161581.18545  23687319.770    23687333.7314
  21330266.452    -4097678.829 9  -3201424.08647  21330265.794    21330275.4114
  22980083.524    11770453.161 8   9166358.65445  22980083.030    22980097.1984
  22762717.814   -11512207.044 8  -8961362.48146  22762717.739    22762728.5384
  22984656.929    -9208232.229 8  -7149780.56746  22984657.053    22984671.2684
  20513444.823   -21341675.591 9 -16626177.25148  20513444.118    20513452.4354
  21939044.006     6884212.156 8   5357393.39046  21939043.406    21939054.7184
 00  2 29 19 11  0.0000000  0  7 09 02 27 26 04 07 08
  23669031.819    -8025784.353 8  -6236467.20745  23669031.680    23669045.6084
  21333244.716    -4082028.279 9  -3189228.89947  21333244.062    21333253.6574
  22999457.586    11872263.381 8   9245691.04245  22999457.097    22999471.4514
  22770040.759   -11473725.019 8  -8931376.54246  22770040.698    22770051.4964
  22965270.181    -9310109.283 8  -7229165.03346  22965270.196    22965284.3874
  20515933.040   -21328599.979 9 -16615988.50048  20515932.326    20515940.6974
  21956197.291     6974353.404 8   5427633.15746  21956196.751    21956208.2084
 00  2 29 19 11 30.0000000  0  7 09 02 27 26 04 07 08
  23650777.031    -8121713.058 8  -6311216.67845  23650776.898    23650790.7554
  21336250.980    -4066230.231 9  -3176918.78247  21336250.341    21336259.9854
  23018877.180    11974313.409 8   9325210.27645  23018876.743    23018891.1084
  22777449.855   -11434790.688 8  -8901038.15546  22777449.770    22777460.4984
  22945912.944    -9411830.656 8  -7308428.21746  22945913.065    22945927.1404
  20518494.948   -21315136.844 9 -16605497.78548  20518494.302    20518502.7014
  21973410.438     7064807.545 8   5498116.74246  21973409.775    21973421.2824
 00  2 29 19 12  0.0000000  0  7 09 02 27 26 04 07 08
  23632555.425    -8217469.545 8  -6385831.94145  23632554.943    23632568.7814
  21339284.844    -4050287.303 9  -3164495.76747  21339284.231    21339293.9054
  23038341.293    12076597.399 8   9404911.83745  23038340.878    23038355.2684
  22784947.145   -11395391.931 8  -8870337.88946  22784947.159    22784957.8994
  22926585.195    -9513398.860 8  -7387572.04946  22926585.135    22926599.1284
  20521127.579   -21301302.591 9 -16594717.88348  20521126.909    20521135.2934
  21990680.610     7155562.627 8   5568834.81046  21990679.959    21990691.4824
 00  2 29 19 12 30.0000000  0  7 09 02 27 26 04 07 08
  23614364.631    -8313061.139 8  -6460318.73145  23614364.256    23614378.2414
  21342347.279    -4034194.486 9  -3151955.96447  21342346.641    21342356.2644
  23057848.415    12179106.932 8   9484789.12245  23057847.954    23057862.4684
  22792530.242   -11355542.367 8  -8839286.33046  22792530.270    22792541.0314
  22907284.492    -9614823.341 8  -7466603.87846  22907284.468    22907298.4294
  20523831.690   -21287092.538 9 -16583645.14848  20523830.997    20523839.3874
  22008009.399     7246625.189 8   5639792.47946  22008008.742    22008020.2444
 00  2 29 19 13  0.0000000  0  7 09 02 27 26 04 07 08
  23596205.440    -8408486.722 8  -6534676.16645  23596205.188    23596219.1954
  21345440.055    -4017942.343 9  -3139291.99947  21345439.380    21345448.9524
  23077399.442    12281847.765 8   9564846.66545  23077398.979    23077413.4984
  22800197.697   -11315249.725 8  -8807889.54146  22800197.712    22800208.5514
  22888008.313    -9716118.190 8  -7545534.71346  22888008.382    22888022.4004
  20526606.138   -21272512.617 9 -16572284.20048  20526605.487    20526613.8654
  22025399.382     7338009.593 8   5711000.93646  22025398.794    22025410.3544
 00  2 29 19 13 30.0000000  0  7 09 02 27 26 04 07 08
  23578076.427    -8503755.071 8  -6608911.07645  23578076.058    23578090.0924
  21348563.380    -4001529.285 9  -3126502.66047  21348562.718    21348572.3004
  23096996.032    12384826.520 8   9645089.56245  23096995.602    23097010.0414
  22807946.749   -11274527.976 8  -8776158.37646  22807946.837    22807957.6594
  22868755.778    -9817289.220 8  -7624369.07146  22868755.791    22868769.9354
  20529453.007   -21257552.670 9 -16560627.13048  20529452.326    20529460.7134
  22042848.618     7429705.682 8   5782452.27146  22042848.063    22042859.6584
 00  2 29 19 14  0.0000000  0  7 09 02 27 26 04 07 08
  23559979.048    -8598857.683 8  -6683016.83345  23559978.556    23559992.5494
  21351718.638    -3984948.730 9  -3113582.78947  21351717.983    21351727.5074
  23116644.094    12488077.428 8   9725544.55745  23116643.610    23116658.5234
  22815775.733   -11233385.976 8  -8744099.75246  22815775.877    22815786.7704
  22849527.810    -9918331.383 8  -7703103.01646  22849527.981    22849542.0784
  20532377.487   -21242184.622 9 -16548652.05448  20532376.771    20532385.1564
  22060357.828     7521715.982 8   5854148.42346  22060357.242    22060368.7464
 00  2 29 19 14 30.0000000  0  7 09 02 27 26 04 07 08
  23541915.790    -8693780.161 8  -6756982.22845  23541915.341    23541929.1784
  21354906.919    -3968194.604 9  -3100527.67547  21354906.216    21354915.7354
  23136346.170    12591612.095 8   9806220.63945  23136345.800    23136360.6304
  22823684.437   -11191825.529 8  -8711715.07046  22823684.612    22823695.5784
  22830326.490   -10019234.175 8  -7781728.37746  22830326.724    22830340.7054
  20535382.209   -21226394.472 9 -16536348.07248  20535381.561    20535389.9774
  22077932.266     7614069.206 8   5926111.81246  22077931.636    22077943.2174
 00  2 29 19 15  0.0000000  0  7 09 02 27 26 04 07 08
  23523889.150    -8788510.039 8  -6830797.55945  23523888.811    23523902.6164
  21358127.817    -3951268.663 9  -3087338.66947  21358127.146    21358136.6634
  23156104.340    12695438.845 8   9887124.32245  23156103.872    23156118.6204
  22831675.933   -11149830.842 8  -8678992.02346  22831675.999    22831686.9944
  22811154.654   -10119982.889 8  -7860233.67446  22811154.896    22811168.6234
  20538466.078   -21210188.920 9 -16523720.39048  20538465.396    20538473.8244
  22095572.237     7706767.843 8   5998344.33846  22095571.753    22095583.3394
 00  2 29 19 15 30.0000000  0  7 09 02 27 26 04 07 08
  23505897.848    -8883055.056 8  -6904468.82545  23505897.386    23505911.2314
  21361382.685    -3934164.115 9  -3074010.49447  21361382.043    21361391.5894
  23175916.743    12799553.055 8   9968252.00445  23175916.356    23175931.0714
  22839750.230   -11107400.466 8  -8645929.47846  22839750.330    22839761.3554
  22792014.930   -10220563.142 8  -7938607.70346  22792015.077    22792028.6384
  20541627.316   -21193576.179 9 -16510775.42348  20541626.678    20541635.0994
  22113274.627     7799793.588 8   6070831.75146  22113274.029    22113285.5764
 00  2 29 19 16  0.0000000  0  7 09 02 27 26 04 07 08
  23487940.830    -8977418.654 8  -6977998.74545  23487940.457    23487954.2954
  21364673.150    -3916872.996 9  -3060536.93047  21364672.485    21364682.0094
  23195780.480    12903937.047 8  10049589.89945  23195780.196    23195795.0644
  22847906.344   -11064540.674 8  -8612532.31846  22847906.333    22847917.3284
  22772907.472   -10320973.484 8  -8016849.33546  22772907.584    22772920.9994
  20544861.373   -21176581.630 9 -16497532.93148  20544860.689    20544869.1064
  22131038.191     7893142.141 8   6143570.70446  22131037.681    22131049.4074
 00  2 29 19 16 30.0000000  0  7 09 02 27 26 04 07 08
  23470017.539    -9071605.914 8  -7051391.25245  23470017.175    23470030.9334
  21367998.782    -3899396.865 9  -3046919.20947  21367998.093    21368007.7344
  23215689.860    13008561.017 8  10131114.78745  23215689.611    23215704.5944
  22856142.574   -11021258.664 8  -8578806.16046  22856142.661    22856153.6834
  22753830.916   -10421220.578 8  -8094963.74646  22753830.961    22753844.3984
  20548162.498   -21159234.350 9 -16484015.58048  20548161.804    20548170.1994
  22148860.566     7986798.199 8   6216549.24446  22148860.053    22148871.7454
 00  2 29 19 17  0.0000000  0  7 09 02 27 26 04 07 08
  23452125.775    -9165626.578 8  -7124653.95245  23452125.601    23452139.1474
  21371358.072    -3881743.487 9  -3033163.37147  21371357.427    21371367.1074
  23235642.789    13113412.529 8  10212817.01145  23235642.360    23235657.3694
  22864456.895   -10977566.943 8  -8544760.74046  22864457.025    22864468.0764
  22734783.718   -10521313.542 8  -8172958.07046  22734783.758    22734797.1144
  20551527.746   -21141549.948 9 -16470235.54548  20551527.084    20551535.4804
  22166735.005     8080729.270 8   6289742.09846  22166734.588    22166746.3234
 00  2 29 19 17 30.0000000  0  7 09 02 27 26 04 07 08
  23434264.903    -9259485.167 8  -7197790.37345  23434264.786    23434278.1864
  21374750.816    -3863914.274 9  -3019270.51747  21374750.198    21374759.8954
  23255636.007    13218477.048 8  10294685.15545  23255635.748    23255650.9184
  22872844.408   -10933490.857 8  -8510415.83246  22872844.529    22872855.5284
  22715764.498   -10621259.421 8  -8250837.80346  22715764.563    22715777.7484
  20554956.334   -21123532.628 9 -16456196.08548  20554955.640    20554964.0614
  22184660.176     8174925.554 8   6363141.60046  22184659.709    22184671.5354
 00  2 29 19 18  0.0000000  0  7 09 02 27 26 04 07 08
  23416435.912    -9353175.609 8  -7270795.75345  23416435.999    23416449.2964
  21378174.639    -3845922.652 9  -3005251.10647  21378173.988    21378183.6694
  23275670.606    13323758.314 8  10376722.24845  23275670.239    23275685.5604
  22881303.158   -10889040.224 8  -8475779.05846  22881303.323    22881314.3084
  22696773.688   -10721055.893 8  -8328601.11246  22696773.721    22696786.8914
  20558450.051   -21105172.892 9 -16441889.80948  20558449.392    20558457.8124
  22202636.800     8269392.430 8   6436751.96246  22202636.295    22202648.2324
 00  2 29 19 18 30.0000000  0  7 09 02 27 26 04 07 08
  23398641.694    -9446684.855 8  -7343659.94745  23398641.678    23398654.7924
  21381626.623    -3827782.625 9  -2991116.05847  21381625.929    21381635.6484
  23295747.976    13429265.777 8  10458935.57045  23295747.768    23295763.1054
  22889833.270   -10844215.622 8  -8440850.90146  22889833.268    22889844.1624
  22677812.396   -10820696.182 8  -8406242.71246  22677812.538    22677825.7284
  20562011.053   -21086460.152 9 -16427308.46048  20562010.336    20562018.7544
  22220666.521     8364138.423 8   6510579.80746  22220665.962    22220677.9534
 00  2 29 19 19  0.0000000  0  7 09 02 27 26 04 07 08
  23380884.743    -9539998.626 8  -7416371.82145  23380884.431    23380897.5114
  21385105.923    -3809498.623 9  -2976868.82547  21385105.279    21385114.9824
  23315869.666    13535003.191 8  10541328.06745  23315869.429    23315884.6154
  22898433.889   -10799018.780 8  -8405632.67446  22898433.954    22898444.9264
  22658884.695   -10920161.305 8  -8483747.83046  22658884.831    22658897.9954
  20565640.670   -21067386.055 9 -16412445.54148  20565640.004    20565648.4254
  22238752.019     8459176.688 8   6584635.38246  22238751.422    22238763.3384
 00  2 29 19 19 30.0000000  0  7 09 02 27 26 04 07 08
  23363165.435    -9633112.607 8  -7488928.01545  23363165.267    23363178.2954
  21388612.586    -3791071.441 9  -2962510.02147  21388611.922    21388621.6154
  23336034.969    13640972.290 7  10623901.12145  23336034.639    23336049.9504
  22907104.464   -10753454.023 8  -8370127.75046  22907104.592    22907115.7374
  22639991.342   -11019445.035 8  -8561111.59346  22639991.520    22640004.7494
  20569340.323   -21047944.341 9 -16397296.16648  20569339.632    20569348.0574
  22256894.970     8554517.635 8   6658926.82446  22256894.322    22256906.2944
 00  2 29 19 20  0.0000000  0  7 09 02 27 26 04 07 08
  23345486.269    -9726017.069 8  -7561320.94645  23345485.997    23345498.8874
  21392145.924    -3772503.459 9  -2948041.51247  21392145.276    21392155.0054
  23356245.400    13747177.181 8  10706657.88645  23356245.137    23356260.5854
  22915848.424   -10707503.618 8  -8334322.32946  22915848.598    22915859.9234
  22621133.252   -11118543.951 8  -8638331.35746  22621133.416    22621146.7034
  20573112.318   -21028122.349 9 -16381850.47448  20573111.671    20573120.0464
  22275096.398     8650165.914 8   6733457.73046  22275095.802    22275107.7394
 00  2 29 19 20 30.0000000  0  7 09 02 27 26 04 07 08
  23327848.599    -9818703.057 8  -7633543.63245  23327848.297    23327861.1894
  21395708.897    -3753780.435 9  -2933452.18747  21395708.229    21395717.9464
  23376497.324    13853600.359 8  10789584.77045  23376496.998    23376512.3794
  22924669.046   -10661152.054 8  -8298204.31446  22924669.101    22924680.4184
  22602312.014   -11217449.913 8  -8715400.77746  22602312.096    22602325.4484
  20576954.758   -21007930.264 9 -16366116.40048  20576954.081    20576962.4744
  22293358.212     8746131.434 8   6808235.83646  22293357.619    22293369.6054
 00  2 29 19 21  0.0000000  0  7 09 02 27 26 04 07 08
  23310248.865    -9911189.220 8  -7705610.64445  23310248.661    23310261.5604
  21399304.768    -3734884.274 9  -2918727.95447  21399304.040    21399313.7864
  23396790.511    13960240.333 8  10872680.58045  23396790.239    23396805.6344
  22933564.211   -10614407.381 8  -8261779.99146  22933564.334    22933575.7064
  22583528.869   -11316155.357 8  -8792313.95346  22583528.939    22583542.2884
  20580866.631   -20987373.259 9 -16350097.98248  20580865.983    20580874.3774
  22311677.704     8842400.382 8   6883250.38246  22311677.187    22311689.2484
 00  2 29 19 21 30.0000000  0  7 09 02 27 26 04 07 08
  23292684.207   -10003491.888 8  -7777534.63946  23292683.871    23292696.8274
  21402937.796    -3715792.595 9  -2903851.37247  21402937.125    21402946.8334
  23417126.226    14067104.317 8  10955950.94345  23417126.010    23417141.4344
  22942535.269   -10567264.141 8  -8225045.08646  22942535.463    22942546.8314
  22564783.272   -11414663.192 8  -8869073.15146  22564783.426    22564796.7464
  20584848.376   -20966449.128 9 -16333793.49048  20584847.696    20584856.1134
  22330052.075     8938957.312 8   6958489.31446  22330051.527    22330063.5424
 00  2 29 19 22  0.0000000  0  7 09 02 27 26 04 07 08
  23275155.369   -10095606.457 8  -7849312.06046  23275154.946    23275167.8894
  21406611.579    -3696487.071 9  -2888808.16347  21406610.882    21406620.6404
  23437503.338    14174184.673 7  11039389.91745  23437502.964    23437518.6004
  22951584.370   -10519711.031 8  -8187990.80846  22951584.618    22951595.9334
  22546077.133   -11512963.616 8  -8945670.75246  22546077.316    22546090.6114
  20588898.609   -20945165.073 9 -16317208.54448  20588897.962    20588906.3654
  22348480.808     9035801.413 8   7033952.03746  22348480.399    22348492.5874
 00  2 29 19 22 30.0000000  0  7 09 02 27 26 04 07 08
  23257659.311   -10187548.139 8  -7920954.77746  23257658.918    23257671.8364
  21410327.290    -3676961.067 9  -2873593.14747  21410326.609    21410336.3564
  23457922.149    14281486.118 7  11123001.14745  23457921.848    23457937.5574
  22960709.016   -10471761.971 8  -8150628.00146  22960709.122    22960720.3824
  22527412.266   -11611047.884 8  -9022099.91346  22527412.467    22527425.6774
  20593014.946   -20923533.861 9 -16300353.08248  20593014.253    20593022.6574
  22366963.441     9132926.839 8   7109633.95646  22366962.983    22366975.2214
 00  2 29 19 23  0.0000000  0  7 09 02 27 26 04 07 08
  23240197.579   -10279309.184 8  -7992456.72146  23240197.276    23240210.1794
  21414083.419    -3657222.841 9  -2858212.76047  21414082.739    21414092.4394
  23478386.688    14389027.570 7  11206799.40945  23478386.450    23478402.2884
  22969909.128   -10423416.784 8  -8112956.53246  22969909.032    22969920.2584
  22508787.088   -11708923.761 8  -9098366.71746  22508787.211    22508800.3484
  20597199.492   -20901543.639 9 -16283217.88348  20597198.826    20597207.2714
  22385495.568     9230313.389 8   7185519.34446  22385495.074    22385507.5104
 00  2 29 19 23 30.0000000  0  7 09 02 27 26 04 07 08
  23222775.935   -10370858.971 8  -8063794.07246  23222775.847    23222788.7054
  21417876.697    -3637289.030 9  -2842679.97847  21417876.013    21417885.7504
  23498894.315    14496794.339 7  11290773.20845  23498893.954    23498909.9404
  22979186.483   -10374665.078 8  -8074968.28546  22979186.280    22979197.5444
  22490200.766   -11806595.079 8  -9174474.13546  22490200.819    22490213.8934
  20601452.912   -20879191.902 9 -16265800.97748  20601452.251    20601460.7014
  22404079.159     9327969.710 8   7261614.94146  22404078.659    22404091.1074
 00  2 29 19 24  0.0000000  0  7 09 02 27 26 04 07 08
  23205399.395   -10462172.658 8  -8134947.42546  23205399.297    23205412.2494
  21421702.459    -3617184.588 9  -2827014.22947  21421701.784    21421711.5514
  23519441.828    14604773.120 7  11374912.24645  23519441.559    23519457.7764
  22988540.055   -10325512.508 8  -8036667.66346  22988539.825    22988551.1384
  22471654.733   -11904053.710 8  -9250415.81846  22471654.908    22471667.9284
  20605773.844   -20856485.269 9 -16248107.52548  20605773.190    20605781.6584
  22422715.875     9425905.925 8   7337928.63546  22422715.387    22422728.0164
 00  2 29 19 24 30.0000000  0  7 09 02 27 26 04 07 08
  23188068.299   -10553246.964 8  -8205914.24946  23188068.304    23188081.2404
  21425558.056    -3596923.571 9  -2811226.47547  21425557.375    21425567.1734
  23540030.861    14712968.234 7  11459219.82945  23540030.666    23540046.9254
  22997967.439   -10275971.362 8  -7998064.26546  22997967.278    22997978.5454
  22453148.510   -12001304.583 8  -9326195.63246  22453148.539    22453161.5624
  20610160.186   -20833435.082 9 -16230146.37548  20610159.523    20610168.0164
  22441403.965     9524111.965 8   7414452.57746  22441403.479    22441416.1684
 00  2 29 19 25  0.0000000  0  7 09 02 27 26 04 07 08
  23170783.962   -10644076.439 8  -8276690.30046  23170783.911    23170796.8154
  21429441.490    -3576516.165 9  -2795324.64747  21429440.797    21429450.6224
  23560657.264    14821358.124 7  11543679.20545  23560656.827    23560673.0724
  23007465.729   -10226058.047 8  -7959170.84446  23007465.493    23007476.7824
  22434679.076   -12098361.693 8  -9401824.47846  22434679.134    22434692.1094
  20614608.357   -20810059.788 9 -16211931.89648  20614607.694    20614616.2224
  22460140.941     9622573.887 8   7491175.90146  22460140.468    22460153.0244
 00  2 29 19 25 30.0000000  0  7 09 02 27 26 04 07 08
  23153542.488   -10734680.338 8  -8347290.59246  23153542.407    23153555.3034
  21433352.084    -3555966.169 9  -2779311.71147  21433351.379    21433361.1824
  23581316.735    14929924.581 7  11628276.15945  23581316.453    23581333.0624
  23017031.837   -10175788.123 8  -7919999.55646  23017031.621    23017042.9514
  22416246.669   -12195224.250 8  -9477301.72546  22416246.745    22416259.6384
  20619117.420   -20786364.823 9 -16193468.32048  20619116.743    20619125.3084
  22478927.277     9721295.898 8   7568101.89046  22478926.822    22478939.4174
 00  2 29 19 26  0.0000000  0  7 09 02 27 26 04 07 08
  23136340.784   -10825075.658 8  -8417728.34646  23136340.655    23136353.4884
  21437292.433    -3535259.521 9  -2763176.71447  21437291.742    21437301.5504
  23602012.753    15038679.964 7  11713020.31245  23602012.277    23602028.5624
  23026666.230   -10125159.580 8  -7880548.83846  23026665.971    23026677.3504
  22397853.893   -12291879.374 8  -9552617.32946  22397853.869    22397866.7164
  20623687.915   -20762346.535 9 -16174752.80848  20623687.248    20623695.8304
  22497762.867     9820275.647 8   7645228.71146  22497762.343    22497774.8964
 00  2 29 19 26 30.0000000  0  7 09 02 27 26 04 07 08
  23119177.797   -10915267.562 8  -8488007.59746  23119177.576    23119190.3264
  21441265.641    -3514380.003 9  -2746907.01547  21441265.001    21441274.8344
  23622744.765    15147627.556 7  11797914.26245  23622744.374    23622761.2184
  23036369.115   -10074170.762 8  -7840817.36746  23036368.884    23036380.2404
  22379500.498   -12388326.034 8  -9627770.51146  22379500.664    22379513.4094
  20628324.707   -20737980.207 9 -16155766.09148  20628324.038    20628332.6374
  22516648.788     9919521.101 8   7722562.58446  22516648.239    22516660.8954
 00  2 29 19 27  0.0000000  0  7 09 02 27 26 04 07 08
  23102057.138   -11005236.454 8  -8558113.06046  23102056.869    23102069.5714
  21445274.665    -3493312.655 9  -2730490.94247  21445274.026    21445283.8264
  23643515.582    15256777.111 7  11882965.55245  23643514.885    23643531.7824
  23046143.953   -10022803.294 8  -7800790.85246  23046143.856    23046155.1884
  22361192.690   -12484534.750 8  -9702738.27346  22361192.709    22361205.4544
  20633034.126   -20713232.376 9 -16136482.09748  20633033.468    20633042.0464
  22535588.083    10019046.952 8   7800114.93946  22535587.517    22535600.2764
 00  2 29 19 27 30.0000000  0  7 09 02 27 26 04 07 08
  23084982.697   -11094962.152 8  -8628029.02446  23084982.529    23084995.1974
  21449323.612    -3472035.567 9  -2713911.43647  21449322.943    21449332.7974
  23664327.131    15366140.969 7  11968183.87445  23664326.377    23664343.2614
  23055993.630    -9971043.527 8  -7760458.65846  23055993.518    23056004.8174
  22342936.007   -12580474.060 8  -9777496.12246  22342935.957    22342948.8204
  20637820.870   -20688078.343 9 -16116881.57548  20637820.204    20637828.7704
  22554584.669    10118873.916 8   7877901.92746  22554584.146    22554596.9234
 00  2 29 19 28  0.0000000  0  7 09 02 27 26 04 07 08
  23067959.429   -11184419.458 8  -8697735.85346  23067959.245    23067971.9174
  21453415.896    -3450530.697 9  -2697154.43647  21453415.220    21453425.1124
  23685179.652    15475721.058 7  12053570.69145  23685179.001    23685196.1494
  23065915.838    -9918902.179 8  -7719829.13546  23065915.779    23065927.0804
  22324732.523   -12676133.462 8  -9852035.84246  22324732.429    22324745.3774
  20642683.236   -20662526.628 9 -16096971.16748  20642682.558    20642691.1124
  22573640.330    10219010.853 8   7955930.45946  22573639.764    22573652.6274
 00  2 29 19 28 30.0000000  0  7 09 02 27 26 04 07 08
  23050988.501   -11273601.482 8  -8767228.18446  23050988.353    23051000.9324
  21457550.726    -3428802.431 9  -2680223.36547  21457549.997    21457559.8924
  23706071.746    15585508.956 7  12139119.38645  23706071.039    23706088.2034
  23075905.692    -9866404.925 8  -7678922.28846  23075905.723    23075917.0944
  22306580.032   -12771524.283 8  -9926366.26446  22306580.106    22306593.0174
  20647619.263   -20636587.874 9 -16076759.17848  20647618.541    20647627.0834
  22592752.671    10319446.583 8   8034191.83346  22592752.062    22592765.2814
 00  2 29 19 29  0.0000000  0  7 09 02 27 26 04 07 08
  23034068.086   -11362518.287 8  -8836513.85446  23034067.917    23034080.4254
  21461727.532    -3406853.203 9  -2663120.11847  21461726.816    21461736.7124
  23727001.682    15695495.667 7  12224823.01545  23727001.048    23727018.1604
  23085959.558    -9813572.362 8  -7637754.16946  23085959.493    23085970.8664
  22288478.230   -12866649.499 8 -10000489.72946  22288478.337    22288491.2094
  20652620.835   -20610304.192 9 -16056278.40948  20652620.159    20652628.6844
  22611916.364    10420151.673 8   8112663.07046  22611915.776    22611929.0424
 00  2 29 19 29 30.0000000  0  7 09 02 27 26 04 07 08
  23017194.996   -11451186.830 8  -8905606.05646  23017194.688    23017207.1504
  21465944.015    -3384695.743 9  -2645854.61847  21465943.296    21465953.1614
  23747965.653    15805661.396 7  12310666.11845  23747964.985    23747982.2914
  23096072.951    -9760426.047 8  -7596341.56546  23096073.011    23096084.3634
  22270421.751   -12961537.307 8 -10074428.15946  22270421.748    22270434.5774
  20657682.013   -20583707.828 9 -16035553.99248  20657681.295    20657689.8384
  22631128.766    10521112.639 8   8191333.69846  22631128.195    22631141.5724
 00  2 29 19 30  0.0000000  0  7 09 02 27 26 04 07 08
  23000365.493   -11539626.025 8  -8974519.53446  23000365.119    23000377.5724
  21470195.345    -3362355.055 9  -2628446.34247  21470194.644    21470204.4834
  23768962.750    15916001.543 7  12396645.16145  23768962.399    23768979.7984
  23106244.526    -9706974.261 8  -7554690.93946  23106244.560    23106256.0184
  22252406.439   -13056207.636 8 -10148197.12046  22252406.550    22252419.3164
  20662797.566   -20556825.620 9 -16014606.83748  20662796.823    20662805.4034
  22650384.823    10622302.231 8   8270182.48046  22650384.205    22650397.5454
 00  2 29 19 30 30.0000000  0  7 09 02 27 26 04 07 08
  22983576.343   -11627852.252 8  -9043267.07346  22983576.042    22983588.5144
  21474478.288    -3339847.954 9  -2610908.38547  21474477.589    21474487.4854
  23789993.232    16026514.753 7  12482759.00145  23789992.760    23790010.1664
  23116476.403    -9653206.387 8  -7512794.00846  23116476.266    23116487.8244
  22234431.983   -13150664.142 8 -10221799.43346  22234431.943    22234444.7464
  20667965.433   -20529668.194 9 -15993445.22648  20667964.706    20667973.2894
  22669679.321    10723694.501 8   8349189.20146  22669678.667    22669692.0324
 00  2 29 19 31  0.0000000  0  7 09 02 27 26 04 07 08
  22966826.545   -11715872.315 8  -9111853.96546  22966826.268    22966838.7574
  21478791.893    -3317179.936 9  -2593245.04147  21478791.202    21478801.1274
  23811056.045    16137199.093 7  12569006.23045  23811055.669    23811072.9724
  23126770.846    -9599109.175 8  -7470640.46246  23126770.680    23126782.3264
  22216499.878   -13244895.835 8 -10295226.57246  22216500.068    22216512.9624
  20673184.690   -20502240.681 9 -15972073.16348  20673184.003    20673192.5914
  22689011.690    10825286.464 8   8428351.49546  22689011.164    22689024.5284
 00  2 29 19 31 30.0000000  0  7 09 02 27 26 04 07 08
  22950117.293   -11803679.337 8  -9180274.87146  22950117.005    22950129.4864
  21483133.868    -3294362.937 9  -2575465.60747  21483133.176    21483143.1434
  23832154.549    16248070.456 7  12655399.17645  23832154.172    23832171.2854
  23137129.481    -9544673.416 8  -7428223.11246  23137129.518    23137141.1974
  22198610.760   -13338903.324 8 -10368478.97646  22198610.932    22198623.8104
  20678458.973   -20474524.339 9 -15950476.04048  20678458.271    20678466.8514
  22708384.466    10927089.904 8   8507678.58646  22708383.912    22708397.3884
 00  2 29 19 32  0.0000000  0  7 09 02 27 26 04 07 08
  22933451.200   -11891260.035 8  -9248519.40646  22933450.832    22933463.3244
  21487506.994    -3271382.200 9  -2557558.57847  21487506.309    21487516.2894
  23853288.987    16359131.642 7  12741940.02745  23853288.721    23853305.7404
  23147554.908    -9489888.753 8  -7385533.89446  23147554.831    23147566.5604
  22180766.166   -13432676.824 8 -10441549.02946  22180766.245    22180779.1704
  20683792.234   -20446497.975 9 -15928637.34248  20683791.529    20683800.0924
  22727799.039    11029113.000 8   8587176.86046  22727798.432    22727812.0974
 00  2 29 19 32 30.0000000  0  7 09 02 27 26 04 07 08
  22916829.941   -11978605.051 8  -9316580.31046  22916829.610    22916842.0234
  21491914.143    -3248222.395 9  -2539512.01847  21491913.488    21491923.4924
  23874457.163    16470370.278 7  12828619.13545  23874456.756    23874473.9504
  23158048.176    -9434747.242 8  -7342566.61246  23158048.017    23158059.7724
  22162968.126   -13526205.277 8 -10514428.11746  22162968.247    22162981.0794
  20689187.633   -20418145.145 9 -15906544.26748  20689186.914    20689195.5034
  22747257.240    11131366.182 8   8666854.40746  22747256.691    22747270.4184
 00  2 29 19 33  0.0000000  0  7 09 02 27 26 04 07 08
  22900257.104   -12065695.703 8  -9384442.99246  22900256.673    22900269.0654
  21496357.990    -3224870.374 9  -2521315.67447  21496357.331    21496367.3414
  23895659.060    16581785.972 7  12915436.24545  23895658.621    23895675.9874
  23168609.930    -9379245.301 8  -7299318.47946  23168609.735    23168621.5074
  22145219.808   -13619473.143 8 -10587104.15846  22145219.834    22145232.5604
  20694649.386   -20389443.753 9 -15884179.58348  20694648.673    20694657.2874
  22766763.174    11233869.106 8   8746726.55346  22766762.588    22766776.3944
 00  2 29 19 33 30.0000000  0  7 09 02 27 26 04 07 08
  22883738.037   -12152502.168 8  -9452084.22946  22883737.838    22883750.2054
  21500841.268    -3201310.737 9  -2502957.56047  21500840.558    21500850.6494
  23916892.572    16693367.379 7  13002382.45545  23916892.198    23916909.5994
  23179241.681    -9323375.543 8  -7255783.72346  23179241.485    23179253.2604
  22127521.046   -13712479.601 8 -10659576.51146  22127521.256    22127533.7984
  20700179.171   -20360384.852 9 -15861536.32348  20700178.475    20700187.0764
  22786317.996    11336629.375 8   8826799.22546  22786317.390    22786331.4014
